Wetterdaten: Mittwoch, 04.04.2018
Datum Zeit Temp. A. Feuchte A. Luftdruck Regen Wind Richtung Richtung Sonnenschein ET UV Solar Taupunkt Windchill Windböen
04.04.2018 00:00 7,6 °C 73 % 1004,6 hPa 0,0 mm 1,5 km/h (1 Bft) S 184 ° 0 min 0,000 mm 0,0 UV-I 0 W/m² 3,1 °C 7,6 °C 3,2 km/h (1 Bft)
04.04.2018 00:01 7,6 °C 73 % 1004,6 hPa 0,0 mm 0,0 km/h (0 Bft) S 184 ° 0 min 0,000 mm 0,0 UV-I 0 W/m² 3,1 °C 7,6 °C 0,0 km/h (0 Bft)
04.04.2018 00:02 7,6 °C 73 % 1004,6 hPa 0,0 mm 0,0 km/h (0 Bft) S 184 ° 0 min 0,000 mm 0,0 UV-I 0 W/m² 3,1 °C 7,6 °C 0,0 km/h (0 Bft)
04.04.2018 00:03 7,5 °C 74 % 1004,6 hPa 0,0 mm 0,0 km/h (0 Bft) S 184 ° 0 min 0,000 mm 0,0 UV-I 0 W/m² 3,2 °C 7,5 °C 0,0 km/h (0 Bft)
04.04.2018 00:04 7,5 °C 74 % 1004,6 hPa 0,0 mm 0,0 km/h (0 Bft) S 184 ° 0 min 0,000 mm 0,0 UV-I 0 W/m² 3,2 °C 7,5 °C 0,0 km/h (0 Bft)
04.04.2018 00:05 7,5 °C 74 % 1004,6 hPa 0,0 mm 1,5 km/h (1 Bft) S 184 ° 0 min 0,000 mm 0,0 UV-I 0 W/m² 3,2 °C 7,5 °C 3,2 km/h (1 Bft)
04.04.2018 00:06 7,4 °C 74 % 1004,6 hPa 0,0 mm 0,0 km/h (0 Bft) S 184 ° 0 min 0,000 mm 0,0 UV-I 0 W/m² 3,1 °C 7,4 °C 0,0 km/h (0 Bft)
04.04.2018 00:07 7,4 °C 74 % 1004,6 hPa 0,0 mm 0,0 km/h (0 Bft) S 184 ° 0 min 0,000 mm 0,0 UV-I 0 W/m² 3,1 °C 7,4 °C 0,0 km/h (0 Bft)
04.04.2018 00:08 7,4 °C 74 % 1004,6 hPa 0,0 mm 0,0 km/h (0 Bft) S 184 ° 0 min 0,000 mm 0,0 UV-I 0 W/m² 3,1 °C 7,4 °C 0,0 km/h (0 Bft)
04.04.2018 00:09 7,4 °C 74 % 1004,6 hPa 0,0 mm 0,0 km/h (0 Bft) S 184 ° 0 min 0,000 mm 0,0 UV-I 0 W/m² 3,1 °C 7,4 °C 0,0 km/h (0 Bft)
04.04.2018 00:10 7,5 °C 74 % 1004,6 hPa 0,0 mm 0,0 km/h (0 Bft) S 184 ° 0 min 0,000 mm 0,0 UV-I 0 W/m² 3,2 °C 7,5 °C 0,0 km/h (0 Bft)
04.04.2018 00:11 7,6 °C 73 % 1004,6 hPa 0,0 mm 0,0 km/h (0 Bft) S 184 ° 0 min 0,000 mm 0,0 UV-I 0 W/m² 3,1 °C 7,6 °C 0,0 km/h (0 Bft)
04.04.2018 00:12 7,7 °C 73 % 1004,6 hPa 0,0 mm 0,0 km/h (0 Bft) S 184 ° 0 min 0,000 mm 0,0 UV-I 0 W/m² 3,2 °C 7,7 °C 0,0 km/h (0 Bft)
04.04.2018 00:13 7,7 °C 72 % 1004,6 hPa 0,0 mm 0,0 km/h (0 Bft) S 184 ° 0 min 0,000 mm 0,0 UV-I 0 W/m² 3,0 °C 7,7 °C 0,0 km/h (0 Bft)
04.04.2018 00:14 7,8 °C 72 % 1004,6 hPa 0,0 mm 0,0 km/h (0 Bft) S 184 ° 0 min 0,000 mm 0,0 UV-I 0 W/m² 3,1 °C 7,8 °C 0,0 km/h (0 Bft)
04.04.2018 00:15 7,8 °C 73 % 1004,6 hPa 0,0 mm 0,0 km/h (0 Bft) S 184 ° 0 min 0,000 mm 0,0 UV-I 0 W/m² 3,3 °C 7,8 °C 0,0 km/h (0 Bft)
04.04.2018 00:16 8,0 °C 72 % 1004,6 hPa 0,0 mm 0,0 km/h (0 Bft) S 184 ° 0 min 0,000 mm 0,0 UV-I 0 W/m² 3,3 °C 8,0 °C 0,0 km/h (0 Bft)
04.04.2018 00:17 8,1 °C 72 % 1004,5 hPa 0,0 mm 0,0 km/h (0 Bft) S 184 ° 0 min 0,000 mm 0,0 UV-I 0 W/m² 3,4 °C 8,1 °C 0,0 km/h (0 Bft)
04.04.2018 00:18 8,1 °C 73 % 1004,6 hPa 0,0 mm 0,0 km/h (0 Bft) S 184 ° 0 min 0,000 mm 0,0 UV-I 0 W/m² 3,6 °C 8,1 °C 0,0 km/h (0 Bft)
04.04.2018 00:19 8,1 °C 72 % 1004,6 hPa 0,0 mm 0,0 km/h (0 Bft) S 184 ° 0 min 0,000 mm 0,0 UV-I 0 W/m² 3,4 °C 8,1 °C 0,0 km/h (0 Bft)
04.04.2018 00:20 8,2 °C 72 % 1004,5 hPa 0,0 mm 0,0 km/h (0 Bft) S 184 ° 0 min 0,000 mm 0,0 UV-I 0 W/m² 3,5 °C 8,2 °C 0,0 km/h (0 Bft)
04.04.2018 00:21 8,3 °C 70 % 1004,5 hPa 0,0 mm 0,0 km/h (0 Bft) S 184 ° 0 min 0,000 mm 0,0 UV-I 0 W/m² 3,2 °C 8,3 °C 0,0 km/h (0 Bft)
04.04.2018 00:22 8,5 °C 70 % 1004,5 hPa 0,0 mm 0,0 km/h (0 Bft) S 184 ° 0 min 0,000 mm 0,0 UV-I 0 W/m² 3,3 °C 8,5 °C 0,0 km/h (0 Bft)
04.04.2018 00:23 8,7 °C 70 % 1004,5 hPa 0,0 mm 1,5 km/h (1 Bft) S 184 ° 0 min 0,000 mm 0,0 UV-I 0 W/m² 3,5 °C 8,7 °C 3,2 km/h (1 Bft)
04.04.2018 00:24 8,8 °C 70 % 1004,4 hPa 0,0 mm 2,3 km/h (1 Bft) S 184 ° 0 min 0,000 mm 0,0 UV-I 0 W/m² 3,6 °C 8,8 °C 3,2 km/h (1 Bft)
04.04.2018 00:25 8,8 °C 70 % 1004,4 hPa 0,0 mm 0,8 km/h (0 Bft) S 184 ° 0 min 0,000 mm 0,0 UV-I 0 W/m² 3,6 °C 8,8 °C 3,2 km/h (1 Bft)
04.04.2018 00:26 8,8 °C 70 % 1004,4 hPa 0,0 mm 0,0 km/h (0 Bft) S 184 ° 0 min 0,000 mm 0,0 UV-I 0 W/m² 3,6 °C 8,8 °C 0,0 km/h (0 Bft)
04.04.2018 00:27 8,8 °C 70 % 1004,4 hPa 0,0 mm 0,0 km/h (0 Bft) S 184 ° 0 min 0,000 mm 0,0 UV-I 0 W/m² 3,6 °C 8,8 °C 0,0 km/h (0 Bft)
04.04.2018 00:28 8,7 °C 70 % 1004,4 hPa 0,0 mm 0,0 km/h (0 Bft) S 184 ° 0 min 0,000 mm 0,0 UV-I 0 W/m² 3,5 °C 8,7 °C 0,0 km/h (0 Bft)
04.04.2018 00:29 8,5 °C 71 % 1004,4 hPa 0,0 mm 1,2 km/h (1 Bft) S 184 ° 0 min 0,000 mm 0,0 UV-I 0 W/m² 3,5 °C 8,5 °C 3,2 km/h (1 Bft)
04.04.2018 00:30 8,3 °C 72 % 1004,4 hPa 0,0 mm 0,7 km/h (0 Bft) S 184 ° 0 min 0,000 mm 0,0 UV-I 0 W/m² 3,6 °C 8,3 °C 3,2 km/h (1 Bft)
04.04.2018 00:31 8,2 °C 73 % 1004,4 hPa 0,0 mm 0,0 km/h (0 Bft) S 184 ° 0 min 0,000 mm 0,0 UV-I 0 W/m² 3,7 °C 8,2 °C 0,0 km/h (0 Bft)
04.04.2018 00:32 8,1 °C 73 % 1004,4 hPa 0,0 mm 0,0 km/h (0 Bft) S 184 ° 0 min 0,000 mm 0,0 UV-I 0 W/m² 3,6 °C 8,1 °C 0,0 km/h (0 Bft)
04.04.2018 00:33 7,9 °C 73 % 1004,4 hPa 0,0 mm 0,0 km/h (0 Bft) S 184 ° 0 min 0,000 mm 0,0 UV-I 0 W/m² 3,4 °C 7,9 °C 0,0 km/h (0 Bft)
04.04.2018 00:34 7,9 °C 74 % 1004,3 hPa 0,0 mm 0,0 km/h (0 Bft) S 184 ° 0 min 0,000 mm 0,0 UV-I 0 W/m² 3,6 °C 7,9 °C 0,0 km/h (0 Bft)
04.04.2018 00:35 7,9 °C 73 % 1004,3 hPa 0,0 mm 0,0 km/h (0 Bft) S 184 ° 0 min 0,000 mm 0,0 UV-I 0 W/m² 3,4 °C 7,9 °C 0,0 km/h (0 Bft)
04.04.2018 00:36 8,0 °C 73 % 1004,4 hPa 0,0 mm 0,0 km/h (0 Bft) S 184 ° 0 min 0,000 mm 0,0 UV-I 0 W/m² 3,5 °C 8,0 °C 0,0 km/h (0 Bft)
04.04.2018 00:37 8,0 °C 74 % 1004,4 hPa 0,0 mm 0,5 km/h (0 Bft) S 184 ° 0 min 0,000 mm 0,0 UV-I 0 W/m² 3,7 °C 8,0 °C 1,6 km/h (1 Bft)
04.04.2018 00:38 8,2 °C 73 % 1004,4 hPa 0,0 mm 0,3 km/h (0 Bft) S 184 ° 0 min 0,000 mm 0,0 UV-I 0 W/m² 3,7 °C 8,2 °C 1,6 km/h (1 Bft)
04.04.2018 00:39 8,2 °C 74 % 1004,3 hPa 0,0 mm 0,2 km/h (0 Bft) S 184 ° 0 min 0,000 mm 0,0 UV-I 0 W/m² 3,8 °C 8,2 °C 1,6 km/h (1 Bft)
04.04.2018 00:40 8,3 °C 72 % 1004,4 hPa 0,0 mm 0,0 km/h (0 Bft) S 184 ° 0 min 0,000 mm 0,0 UV-I 0 W/m² 3,6 °C 8,3 °C 0,0 km/h (0 Bft)
04.04.2018 00:41 8,3 °C 73 % 1004,4 hPa 0,0 mm 0,0 km/h (0 Bft) S 184 ° 0 min 0,000 mm 0,0 UV-I 0 W/m² 3,8 °C 8,3 °C 0,0 km/h (0 Bft)
04.04.2018 00:42 8,3 °C 73 % 1004,4 hPa 0,0 mm 0,0 km/h (0 Bft) S 184 ° 0 min 0,000 mm 0,0 UV-I 0 W/m² 3,8 °C 8,3 °C 0,0 km/h (0 Bft)
04.04.2018 00:43 8,3 °C 73 % 1004,4 hPa 0,0 mm 0,0 km/h (0 Bft) S 184 ° 0 min 0,000 mm 0,0 UV-I 0 W/m² 3,8 °C 8,3 °C 0,0 km/h (0 Bft)
04.04.2018 00:44 8,3 °C 72 % 1004,3 hPa 0,0 mm 0,0 km/h (0 Bft) S 184 ° 0 min 0,000 mm 0,0 UV-I 0 W/m² 3,6 °C 8,3 °C 0,0 km/h (0 Bft)
04.04.2018 00:45 8,6 °C 71 % 1004,3 hPa 0,0 mm 0,0 km/h (0 Bft) S 184 ° 0 min 0,000 mm 0,0 UV-I 0 W/m² 3,6 °C 8,6 °C 0,0 km/h (0 Bft)
04.04.2018 00:46 8,8 °C 71 % 1004,3 hPa 0,0 mm 0,0 km/h (0 Bft) S 184 ° 0 min 0,000 mm 0,0 UV-I 0 W/m² 3,8 °C 8,8 °C 0,0 km/h (0 Bft)
04.04.2018 00:47 9,1 °C 68 % 1004,3 hPa 0,0 mm 0,3 km/h (0 Bft) S 184 ° 0 min 0,000 mm 0,0 UV-I 0 W/m² 3,5 °C 9,1 °C 1,6 km/h (1 Bft)
04.04.2018 00:48 9,3 °C 66 % 1004,3 hPa 0,0 mm 0,0 km/h (0 Bft) S 184 ° 0 min 0,000 mm 0,0 UV-I 0 W/m² 3,3 °C 9,3 °C 0,0 km/h (0 Bft)
04.04.2018 00:49 9,3 °C 68 % 1004,3 hPa 0,0 mm 0,0 km/h (0 Bft) S 184 ° 0 min 0,000 mm 0,0 UV-I 0 W/m² 3,7 °C 9,3 °C 0,0 km/h (0 Bft)
04.04.2018 00:50 9,3 °C 68 % 1004,3 hPa 0,0 mm 0,0 km/h (0 Bft) S 184 ° 0 min 0,000 mm 0,0 UV-I 0 W/m² 3,7 °C 9,3 °C 0,0 km/h (0 Bft)
04.04.2018 00:51 9,3 °C 68 % 1004,3 hPa 0,0 mm 0,0 km/h (0 Bft) S 184 ° 0 min 0,000 mm 0,0 UV-I 0 W/m² 3,7 °C 9,3 °C 0,0 km/h (0 Bft)
04.04.2018 00:52 9,4 °C 64 % 1004,3 hPa 0,0 mm 0,1 km/h (0 Bft) S 184 ° 0 min 0,000 mm 0,0 UV-I 0 W/m² 2,9 °C 9,4 °C 1,6 km/h (1 Bft)
04.04.2018 00:53 9,6 °C 65 % 1004,2 hPa 0,0 mm 0,9 km/h (0 Bft) S 184 ° 0 min 0,000 mm 0,0 UV-I 0 W/m² 3,4 °C 9,6 °C 3,2 km/h (1 Bft)
04.04.2018 00:54 9,7 °C 66 % 1004,3 hPa 0,0 mm 1,1 km/h (1 Bft) S 184 ° 0 min 0,000 mm 0,0 UV-I 0 W/m² 3,7 °C 9,7 °C 3,2 km/h (1 Bft)
04.04.2018 00:55 9,8 °C 63 % 1004,3 hPa 0,0 mm 0,0 km/h (0 Bft) S 184 ° 0 min 0,000 mm 0,0 UV-I 0 W/m² 3,1 °C 9,8 °C 0,0 km/h (0 Bft)
04.04.2018 00:56 9,9 °C 61 % 1004,2 hPa 0,0 mm 0,4 km/h (0 Bft) S 184 ° 0 min 0,000 mm 0,0 UV-I 0 W/m² 2,7 °C 9,9 °C 1,6 km/h (1 Bft)
04.04.2018 00:57 10,1 °C 60 % 1004,2 hPa 0,0 mm 0,0 km/h (0 Bft) S 184 ° 0 min 0,000 mm 0,0 UV-I 0 W/m² 2,7 °C 10,1 °C 0,0 km/h (0 Bft)
04.04.2018 00:58 10,3 °C 58 % 1004,2 hPa 0,0 mm 0,0 km/h (0 Bft) S 184 ° 0 min 0,000 mm 0,0 UV-I 0 W/m² 2,4 °C 10,3 °C 0,0 km/h (0 Bft)
04.04.2018 00:59 10,6 °C 57 % 1004,2 hPa 0,0 mm 0,0 km/h (0 Bft) S 184 ° 0 min 0,000 mm 0,0 UV-I 0 W/m² 2,4 °C 10,6 °C 0,0 km/h (0 Bft)
04.04.2018 01:00 10,7 °C 58 % 1004,2 hPa 0,0 mm 0,1 km/h (0 Bft) S 184 ° 0 min 0,025 mm 0,0 UV-I 0 W/m² 2,8 °C 10,7 °C 1,6 km/h (1 Bft)
04.04.2018 01:01 10,7 °C 57 % 1004,2 hPa 0,0 mm 0,0 km/h (0 Bft) S 184 ° 0 min 0,000 mm 0,0 UV-I 0 W/m² 2,5 °C 10,7 °C 0,0 km/h (0 Bft)
04.04.2018 01:02 10,7 °C 57 % 1004,2 hPa 0,0 mm 0,0 km/h (0 Bft) S 184 ° 0 min 0,000 mm 0,0 UV-I 0 W/m² 2,5 °C 10,7 °C 0,0 km/h (0 Bft)
04.04.2018 01:03 10,7 °C 58 % 1004,1 hPa 0,0 mm 0,0 km/h (0 Bft) S 184 ° 0 min 0,000 mm 0,0 UV-I 0 W/m² 2,8 °C 10,7 °C 0,0 km/h (0 Bft)
04.04.2018 01:04 10,8 °C 58 % 1004,1 hPa 0,0 mm 0,0 km/h (0 Bft) S 184 ° 0 min 0,000 mm 0,0 UV-I 0 W/m² 2,9 °C 10,8 °C 0,0 km/h (0 Bft)
04.04.2018 01:05 10,8 °C 57 % 1004,1 hPa 0,0 mm 0,0 km/h (0 Bft) S 184 ° 0 min 0,000 mm 0,0 UV-I 0 W/m² 2,6 °C 10,8 °C 0,0 km/h (0 Bft)
04.04.2018 01:06 10,9 °C 57 % 1004,1 hPa 0,0 mm 0,1 km/h (0 Bft) S 184 ° 0 min 0,000 mm 0,0 UV-I 0 W/m² 2,7 °C 10,9 °C 1,6 km/h (1 Bft)
04.04.2018 01:07 10,9 °C 56 % 1004,1 hPa 0,0 mm 0,0 km/h (0 Bft) S 184 ° 0 min 0,000 mm 0,0 UV-I 0 W/m² 2,5 °C 10,9 °C 0,0 km/h (0 Bft)
04.04.2018 01:08 11,1 °C 56 % 1004,1 hPa 0,0 mm 0,0 km/h (0 Bft) S 184 ° 0 min 0,000 mm 0,0 UV-I 0 W/m² 2,7 °C 11,1 °C 0,0 km/h (0 Bft)
04.04.2018 01:09 11,1 °C 55 % 1004,1 hPa 0,0 mm 0,0 km/h (0 Bft) S 184 ° 0 min 0,000 mm 0,0 UV-I 0 W/m² 2,4 °C 11,1 °C 0,0 km/h (0 Bft)
04.04.2018 01:10 11,1 °C 56 % 1004,0 hPa 0,0 mm 0,0 km/h (0 Bft) S 184 ° 0 min 0,000 mm 0,0 UV-I 0 W/m² 2,7 °C 11,1 °C 0,0 km/h (0 Bft)
04.04.2018 01:11 11,1 °C 55 % 1004,0 hPa 0,0 mm 0,0 km/h (0 Bft) S 184 ° 0 min 0,000 mm 0,0 UV-I 0 W/m² 2,4 °C 11,1 °C 0,0 km/h (0 Bft)
04.04.2018 01:12 11,1 °C 56 % 1004,1 hPa 0,0 mm 0,7 km/h (0 Bft) S 184 ° 0 min 0,000 mm 0,0 UV-I 0 W/m² 2,7 °C 11,1 °C 3,2 km/h (1 Bft)
04.04.2018 01:13 11,1 °C 55 % 1004,1 hPa 0,0 mm 0,9 km/h (0 Bft) S 184 ° 0 min 0,000 mm 0,0 UV-I 0 W/m² 2,4 °C 11,1 °C 3,2 km/h (1 Bft)
04.04.2018 01:14 11,2 °C 54 % 1004,0 hPa 0,0 mm 0,0 km/h (0 Bft) S 184 ° 0 min 0,000 mm 0,0 UV-I 0 W/m² 2,2 °C 11,2 °C 0,0 km/h (0 Bft)
04.04.2018 01:15 11,3 °C 55 % 1004,0 hPa 0,0 mm 0,0 km/h (0 Bft) S 184 ° 0 min 0,000 mm 0,0 UV-I 0 W/m² 2,6 °C 11,3 °C 0,0 km/h (0 Bft)
04.04.2018 01:16 11,3 °C 56 % 1004,0 hPa 0,0 mm 0,9 km/h (0 Bft) S 184 ° 0 min 0,000 mm 0,0 UV-I 0 W/m² 2,8 °C 11,3 °C 3,2 km/h (1 Bft)
04.04.2018 01:17 11,3 °C 55 % 1004,0 hPa 0,0 mm 0,1 km/h (0 Bft) S 184 ° 0 min 0,000 mm 0,0 UV-I 0 W/m² 2,6 °C 11,3 °C 1,6 km/h (1 Bft)
04.04.2018 01:18 11,3 °C 55 % 1004,0 hPa 0,0 mm 0,7 km/h (0 Bft) S 184 ° 0 min 0,000 mm 0,0 UV-I 0 W/m² 2,6 °C 11,3 °C 3,2 km/h (1 Bft)
04.04.2018 01:19 11,3 °C 55 % 1004,0 hPa 0,0 mm 0,0 km/h (0 Bft) S 184 ° 0 min 0,000 mm 0,0 UV-I 0 W/m² 2,6 °C 11,3 °C 0,0 km/h (0 Bft)
04.04.2018 01:20 11,3 °C 55 % 1004,0 hPa 0,0 mm 0,0 km/h (0 Bft) S 184 ° 0 min 0,000 mm 0,0 UV-I 0 W/m² 2,6 °C 11,3 °C 0,0 km/h (0 Bft)
04.04.2018 01:21 11,2 °C 56 % 1004,0 hPa 0,0 mm 0,0 km/h (0 Bft) S 184 ° 0 min 0,000 mm 0,0 UV-I 0 W/m² 2,8 °C 11,2 °C 0,0 km/h (0 Bft)
04.04.2018 01:22 11,2 °C 56 % 1004,0 hPa 0,0 mm 0,0 km/h (0 Bft) S 184 ° 0 min 0,000 mm 0,0 UV-I 0 W/m² 2,8 °C 11,2 °C 0,0 km/h (0 Bft)
04.04.2018 01:23 11,1 °C 56 % 1004,0 hPa 0,0 mm 0,5 km/h (0 Bft) S 184 ° 0 min 0,000 mm 0,0 UV-I 0 W/m² 2,7 °C 11,1 °C 1,6 km/h (1 Bft)
04.04.2018 01:24 11,1 °C 55 % 1004,0 hPa 0,0 mm 0,3 km/h (0 Bft) S 184 ° 0 min 0,000 mm 0,0 UV-I 0 W/m² 2,4 °C 11,1 °C 1,6 km/h (1 Bft)
04.04.2018 01:25 11,2 °C 54 % 1004,0 hPa 0,0 mm 0,0 km/h (0 Bft) S 184 ° 0 min 0,000 mm 0,0 UV-I 0 W/m² 2,2 °C 11,2 °C 0,0 km/h (0 Bft)
04.04.2018 01:26 11,2 °C 57 % 1004,0 hPa 0,0 mm 2,3 km/h (1 Bft) O 85 ° 0 min 0,000 mm 0,0 UV-I 0 W/m² 3,0 °C 11,2 °C 9,7 km/h (2 Bft)
04.04.2018 01:27 11,2 °C 56 % 1004,0 hPa 0,0 mm 0,9 km/h (0 Bft) O 84 ° 0 min 0,000 mm 0,0 UV-I 0 W/m² 2,8 °C 11,2 °C 6,4 km/h (2 Bft)
04.04.2018 01:28 11,3 °C 55 % 1004,0 hPa 0,0 mm 0,3 km/h (0 Bft) O 84 ° 0 min 0,000 mm 0,0 UV-I 0 W/m² 2,6 °C 11,3 °C 1,6 km/h (1 Bft)
04.04.2018 01:29 11,3 °C 54 % 1004,0 hPa 0,0 mm 0,1 km/h (0 Bft) O 84 ° 0 min 0,000 mm 0,0 UV-I 0 W/m² 2,3 °C 11,3 °C 1,6 km/h (1 Bft)
04.04.2018 01:30 11,4 °C 53 % 1003,9 hPa 0,0 mm 1,1 km/h (1 Bft) O 84 ° 0 min 0,000 mm 0,0 UV-I 0 W/m² 2,2 °C 11,4 °C 3,2 km/h (1 Bft)
04.04.2018 01:31 11,5 °C 55 % 1003,9 hPa 0,0 mm 0,6 km/h (0 Bft) O 84 ° 0 min 0,000 mm 0,0 UV-I 0 W/m² 2,8 °C 11,5 °C 1,6 km/h (1 Bft)
04.04.2018 01:32 11,6 °C 53 % 1003,9 hPa 0,0 mm 0,0 km/h (0 Bft) O 84 ° 0 min 0,000 mm 0,0 UV-I 0 W/m² 2,4 °C 11,6 °C 0,0 km/h (0 Bft)
04.04.2018 01:33 11,6 °C 54 % 1003,9 hPa 0,0 mm 0,1 km/h (0 Bft) O 84 ° 0 min 0,000 mm 0,0 UV-I 0 W/m² 2,6 °C 11,6 °C 1,6 km/h (1 Bft)
04.04.2018 01:34 11,7 °C 54 % 1003,9 hPa 0,0 mm 2,5 km/h (1 Bft) SW 223 ° 0 min 0,000 mm 0,0 UV-I 0 W/m² 2,7 °C 11,7 °C 6,4 km/h (2 Bft)
04.04.2018 01:35 11,7 °C 54 % 1003,9 hPa 0,0 mm 0,0 km/h (0 Bft) SW 223 ° 0 min 0,000 mm 0,0 UV-I 0 W/m² 2,7 °C 11,7 °C 0,0 km/h (0 Bft)
04.04.2018 01:36 11,6 °C 55 % 1003,9 hPa 0,0 mm 0,1 km/h (0 Bft) SW 223 ° 0 min 0,000 mm 0,0 UV-I 0 W/m² 2,9 °C 11,6 °C 1,6 km/h (1 Bft)
04.04.2018 01:37 11,6 °C 55 % 1003,9 hPa 0,0 mm 0,3 km/h (0 Bft) SW 223 ° 0 min 0,000 mm 0,0 UV-I 0 W/m² 2,9 °C 11,6 °C 3,2 km/h (1 Bft)
04.04.2018 01:38 11,6 °C 55 % 1003,9 hPa 0,0 mm 0,8 km/h (0 Bft) SW 223 ° 0 min 0,000 mm 0,0 UV-I 0 W/m² 2,9 °C 11,6 °C 3,2 km/h (1 Bft)
04.04.2018 01:39 11,6 °C 53 % 1003,9 hPa 0,0 mm 0,3 km/h (0 Bft) SW 223 ° 0 min 0,000 mm 0,0 UV-I 0 W/m² 2,4 °C 11,6 °C 1,6 km/h (1 Bft)
04.04.2018 01:40 11,7 °C 53 % 1003,9 hPa 0,0 mm 0,3 km/h (0 Bft) SW 223 ° 0 min 0,000 mm 0,0 UV-I 0 W/m² 2,4 °C 11,7 °C 1,6 km/h (1 Bft)
04.04.2018 01:41 11,6 °C 54 % 1003,9 hPa 0,0 mm 1,4 km/h (1 Bft) SW 223 ° 0 min 0,000 mm 0,0 UV-I 0 W/m² 2,6 °C 11,6 °C 1,6 km/h (1 Bft)
04.04.2018 01:42 11,6 °C 54 % 1003,9 hPa 0,0 mm 1,3 km/h (1 Bft) SW 223 ° 0 min 0,000 mm 0,0 UV-I 0 W/m² 2,6 °C 11,6 °C 3,2 km/h (1 Bft)
04.04.2018 01:43 11,6 °C 54 % 1003,9 hPa 0,0 mm 2,9 km/h (1 Bft) SW 226 ° 0 min 0,000 mm 0,0 UV-I 0 W/m² 2,6 °C 11,6 °C 4,8 km/h (1 Bft)
04.04.2018 01:44 11,6 °C 53 % 1003,9 hPa 0,0 mm 0,1 km/h (0 Bft) SW 226 ° 0 min 0,000 mm 0,0 UV-I 0 W/m² 2,4 °C 11,6 °C 1,6 km/h (1 Bft)
04.04.2018 01:45 11,6 °C 53 % 1003,9 hPa 0,0 mm 0,5 km/h (0 Bft) SW 226 ° 0 min 0,000 mm 0,0 UV-I 0 W/m² 2,4 °C 11,6 °C 3,2 km/h (1 Bft)
04.04.2018 01:46 11,6 °C 53 % 1003,9 hPa 0,0 mm 1,7 km/h (1 Bft) SW 234 ° 0 min 0,000 mm 0,0 UV-I 0 W/m² 2,4 °C 11,6 °C 6,4 km/h (2 Bft)
04.04.2018 01:47 11,6 °C 53 % 1003,9 hPa 0,0 mm 1,3 km/h (1 Bft) SW 234 ° 0 min 0,000 mm 0,0 UV-I 0 W/m² 2,4 °C 11,6 °C 3,2 km/h (1 Bft)
04.04.2018 01:48 11,6 °C 54 % 1003,9 hPa 0,0 mm 1,0 km/h (0 Bft) SW 234 ° 0 min 0,000 mm 0,0 UV-I 0 W/m² 2,6 °C 11,6 °C 3,2 km/h (1 Bft)
04.04.2018 01:49 11,6 °C 54 % 1003,9 hPa 0,0 mm 0,6 km/h (0 Bft) SW 234 ° 0 min 0,000 mm 0,0 UV-I 0 W/m² 2,6 °C 11,6 °C 1,6 km/h (1 Bft)
04.04.2018 01:50 11,7 °C 53 % 1003,9 hPa 0,0 mm 0,7 km/h (0 Bft) SW 234 ° 0 min 0,000 mm 0,0 UV-I 0 W/m² 2,4 °C 11,7 °C 3,2 km/h (1 Bft)
04.04.2018 01:51 11,7 °C 53 % 1003,9 hPa 0,0 mm 1,7 km/h (1 Bft) W-NW 290 ° 0 min 0,000 mm 0,0 UV-I 0 W/m² 2,4 °C 11,7 °C 4,8 km/h (1 Bft)
04.04.2018 01:52 11,6 °C 53 % 1003,9 hPa 0,0 mm 2,0 km/h (1 Bft) W-NW 290 ° 0 min 0,000 mm 0,0 UV-I 0 W/m² 2,4 °C 11,6 °C 3,2 km/h (1 Bft)
04.04.2018 01:53 11,6 °C 54 % 1003,9 hPa 0,0 mm 1,0 km/h (0 Bft) W-NW 290 ° 0 min 0,000 mm 0,0 UV-I 0 W/m² 2,6 °C 11,6 °C 3,2 km/h (1 Bft)
04.04.2018 01:54 11,7 °C 53 % 1003,9 hPa 0,0 mm 1,6 km/h (1 Bft) W-NW 290 ° 0 min 0,000 mm 0,0 UV-I 0 W/m² 2,4 °C 11,7 °C 4,8 km/h (1 Bft)
04.04.2018 01:55 11,7 °C 53 % 1003,9 hPa 0,0 mm 1,1 km/h (1 Bft) NW 306 ° 0 min 0,000 mm 0,0 UV-I 0 W/m² 2,4 °C 11,7 °C 3,2 km/h (1 Bft)
04.04.2018 01:56 11,7 °C 53 % 1003,9 hPa 0,0 mm 2,0 km/h (1 Bft) NW 306 ° 0 min 0,000 mm 0,0 UV-I 0 W/m² 2,4 °C 11,7 °C 3,2 km/h (1 Bft)
04.04.2018 01:57 11,7 °C 55 % 1003,8 hPa 0,0 mm 2,5 km/h (1 Bft) S-SO 154 ° 0 min 0,000 mm 0,0 UV-I 0 W/m² 3,0 °C 11,7 °C 8,0 km/h (2 Bft)
04.04.2018 01:58 11,6 °C 53 % 1003,9 hPa 0,0 mm 1,8 km/h (1 Bft) W-NW 294 ° 0 min 0,000 mm 0,0 UV-I 0 W/m² 2,4 °C 11,6 °C 4,8 km/h (1 Bft)
04.04.2018 01:59 11,6 °C 53 % 1003,9 hPa 0,0 mm 5,2 km/h (1 Bft) W-SW 252 ° 0 min 0,000 mm 0,0 UV-I 0 W/m² 2,4 °C 11,6 °C 8,0 km/h (2 Bft)
04.04.2018 02:00 11,7 °C 51 % 1003,8 hPa 0,0 mm 3,2 km/h (1 Bft) NW 321 ° 0 min 0,026 mm 0,0 UV-I 0 W/m² 1,9 °C 11,7 °C 8,0 km/h (2 Bft)
04.04.2018 02:01 11,8 °C 53 % 1003,8 hPa 0,0 mm 1,9 km/h (1 Bft) O 101 ° 0 min 0,000 mm 0,0 UV-I 0 W/m² 2,5 °C 11,8 °C 4,8 km/h (1 Bft)
04.04.2018 02:02 11,8 °C 53 % 1003,8 hPa 0,0 mm 3,6 km/h (1 Bft) O-NO 67 ° 0 min 0,000 mm 0,0 UV-I 0 W/m² 2,5 °C 11,8 °C 6,4 km/h (2 Bft)
04.04.2018 02:03 11,8 °C 52 % 1003,8 hPa 0,0 mm 1,9 km/h (1 Bft) N-NW 346 ° 0 min 0,000 mm 0,0 UV-I 0 W/m² 2,3 °C 11,8 °C 3,2 km/h (1 Bft)
04.04.2018 02:04 11,9 °C 52 % 1003,8 hPa 0,0 mm 2,1 km/h (1 Bft) O 79 ° 0 min 0,000 mm 0,0 UV-I 0 W/m² 2,4 °C 11,9 °C 3,2 km/h (1 Bft)
04.04.2018 02:05 11,9 °C 52 % 1003,9 hPa 0,0 mm 1,3 km/h (1 Bft) O 80 ° 0 min 0,000 mm 0,0 UV-I 0 W/m² 2,4 °C 11,9 °C 3,2 km/h (1 Bft)
04.04.2018 02:06 12,1 °C 50 % 1003,8 hPa 0,0 mm 1,1 km/h (1 Bft) O 80 ° 0 min 0,000 mm 0,0 UV-I 0 W/m² 2,0 °C 12,1 °C 3,2 km/h (1 Bft)
04.04.2018 02:07 12,2 °C 50 % 1003,8 hPa 0,0 mm 1,9 km/h (1 Bft) N-NW 334 ° 0 min 0,000 mm 0,0 UV-I 0 W/m² 2,1 °C 12,2 °C 6,4 km/h (2 Bft)
04.04.2018 02:08 12,1 °C 52 % 1003,9 hPa 0,0 mm 4,4 km/h (1 Bft) W-NW 286 ° 0 min 0,000 mm 0,0 UV-I 0 W/m² 2,5 °C 12,1 °C 4,8 km/h (1 Bft)
04.04.2018 02:09 12,0 °C 53 % 1003,9 hPa 0,0 mm 4,4 km/h (1 Bft) W 270 ° 0 min 0,000 mm 0,0 UV-I 0 W/m² 2,7 °C 12,0 °C 6,4 km/h (2 Bft)
04.04.2018 02:10 12,0 °C 52 % 1003,9 hPa 0,0 mm 3,2 km/h (1 Bft) W 263 ° 0 min 0,000 mm 0,0 UV-I 0 W/m² 2,5 °C 12,0 °C 6,4 km/h (2 Bft)
04.04.2018 02:11 11,9 °C 53 % 1003,9 hPa 0,0 mm 2,3 km/h (1 Bft) W-SW 250 ° 0 min 0,000 mm 0,0 UV-I 0 W/m² 2,6 °C 11,9 °C 4,8 km/h (1 Bft)
04.04.2018 02:12 11,9 °C 52 % 1004,0 hPa 0,0 mm 0,1 km/h (0 Bft) W-SW 250 ° 0 min 0,000 mm 0,0 UV-I 0 W/m² 2,4 °C 11,9 °C 1,6 km/h (1 Bft)
04.04.2018 02:13 11,8 °C 53 % 1003,9 hPa 0,0 mm 2,7 km/h (1 Bft) S-SO 158 ° 0 min 0,000 mm 0,0 UV-I 0 W/m² 2,5 °C 11,8 °C 8,0 km/h (2 Bft)
04.04.2018 02:14 11,8 °C 52 % 1003,9 hPa 0,0 mm 1,9 km/h (1 Bft) SO 136 ° 0 min 0,000 mm 0,0 UV-I 0 W/m² 2,3 °C 11,8 °C 4,8 km/h (1 Bft)
04.04.2018 02:15 11,9 °C 51 % 1003,9 hPa 0,0 mm 1,2 km/h (1 Bft) W 269 ° 0 min 0,000 mm 0,0 UV-I 0 W/m² 2,1 °C 11,9 °C 4,8 km/h (1 Bft)
04.04.2018 02:16 12,1 °C 49 % 1003,9 hPa 0,0 mm 9,5 km/h (2 Bft) SW 227 ° 0 min 0,000 mm 0,0 UV-I 0 W/m² 1,7 °C 12,1 °C 12,9 km/h (3 Bft)
04.04.2018 02:17 12,2 °C 51 % 1003,9 hPa 0,0 mm 4,9 km/h (1 Bft) O 88 ° 0 min 0,000 mm 0,0 UV-I 0 W/m² 2,4 °C 12,2 °C 11,3 km/h (2 Bft)
04.04.2018 02:18 12,2 °C 51 % 1003,9 hPa 0,0 mm 3,1 km/h (1 Bft) W 272 ° 0 min 0,000 mm 0,0 UV-I 0 W/m² 2,4 °C 12,2 °C 6,4 km/h (2 Bft)
04.04.2018 02:19 12,2 °C 50 % 1003,9 hPa 0,0 mm 5,2 km/h (1 Bft) SW 219 ° 0 min 0,000 mm 0,0 UV-I 0 W/m² 2,1 °C 12,2 °C 9,7 km/h (2 Bft)
04.04.2018 02:20 12,2 °C 48 % 1003,9 hPa 0,0 mm 5,1 km/h (1 Bft) W-SW 245 ° 0 min 0,000 mm 0,0 UV-I 0 W/m² 1,5 °C 12,2 °C 11,3 km/h (2 Bft)
04.04.2018 02:21 12,4 °C 48 % 1003,9 hPa 0,0 mm 5,9 km/h (2 Bft) W-SW 247 ° 0 min 0,000 mm 0,0 UV-I 0 W/m² 1,7 °C 12,4 °C 11,3 km/h (2 Bft)
04.04.2018 02:22 12,4 °C 48 % 1003,8 hPa 0,0 mm 3,6 km/h (1 Bft) W-SW 250 ° 0 min 0,000 mm 0,0 UV-I 0 W/m² 1,7 °C 12,4 °C 6,4 km/h (2 Bft)
04.04.2018 02:23 12,5 °C 48 % 1003,8 hPa 0,0 mm 4,6 km/h (1 Bft) S-SW 202 ° 0 min 0,000 mm 0,0 UV-I 0 W/m² 1,8 °C 12,5 °C 9,7 km/h (2 Bft)
04.04.2018 02:24 12,6 °C 48 % 1003,9 hPa 0,0 mm 3,3 km/h (1 Bft) W 262 ° 0 min 0,000 mm 0,0 UV-I 0 W/m² 1,9 °C 12,6 °C 6,4 km/h (2 Bft)
04.04.2018 02:25 12,6 °C 48 % 1003,9 hPa 0,0 mm 6,5 km/h (2 Bft) S-SW 206 ° 0 min 0,000 mm 0,0 UV-I 0 W/m² 1,9 °C 12,6 °C 9,7 km/h (2 Bft)
04.04.2018 02:26 12,6 °C 46 % 1003,9 hPa 0,0 mm 7,8 km/h (2 Bft) S-SW 213 ° 0 min 0,000 mm 0,0 UV-I 0 W/m² 1,3 °C 12,6 °C 16,1 km/h (3 Bft)
04.04.2018 02:27 12,7 °C 46 % 1003,9 hPa 0,0 mm 7,3 km/h (2 Bft) SW 232 ° 0 min 0,000 mm 0,0 UV-I 0 W/m² 1,4 °C 12,7 °C 12,9 km/h (3 Bft)
04.04.2018 02:28 12,7 °C 48 % 1003,9 hPa 0,0 mm 2,4 km/h (1 Bft) SW 223 ° 0 min 0,000 mm 0,0 UV-I 0 W/m² 2,0 °C 12,7 °C 4,8 km/h (1 Bft)
04.04.2018 02:29 12,7 °C 48 % 1003,9 hPa 0,0 mm 2,3 km/h (1 Bft) W-SW 237 ° 0 min 0,000 mm 0,0 UV-I 0 W/m² 2,0 °C 12,7 °C 4,8 km/h (1 Bft)
04.04.2018 02:30 12,7 °C 47 % 1003,9 hPa 0,0 mm 7,0 km/h (2 Bft) SW 235 ° 0 min 0,000 mm 0,0 UV-I 0 W/m² 1,7 °C 12,7 °C 11,3 km/h (2 Bft)
04.04.2018 02:31 12,7 °C 46 % 1003,9 hPa 0,0 mm 5,4 km/h (1 Bft) S-SW 203 ° 0 min 0,000 mm 0,0 UV-I 0 W/m² 1,4 °C 12,7 °C 12,9 km/h (3 Bft)
04.04.2018 02:32 12,7 °C 49 % 1003,9 hPa 0,0 mm 3,6 km/h (1 Bft) S-SW 211 ° 0 min 0,000 mm 0,0 UV-I 0 W/m² 2,3 °C 12,7 °C 6,4 km/h (2 Bft)
04.04.2018 02:33 12,6 °C 47 % 1003,9 hPa 0,0 mm 4,8 km/h (1 Bft) S-SW 194 ° 0 min 0,000 mm 0,0 UV-I 0 W/m² 1,6 °C 12,6 °C 14,5 km/h (3 Bft)
04.04.2018 02:34 12,6 °C 48 % 1003,9 hPa 0,0 mm 5,5 km/h (1 Bft) W-NW 284 ° 0 min 0,000 mm 0,0 UV-I 0 W/m² 1,9 °C 12,6 °C 9,7 km/h (2 Bft)
04.04.2018 02:35 12,6 °C 46 % 1003,9 hPa 0,0 mm 10,5 km/h (2 Bft) SW 220 ° 0 min 0,000 mm 0,0 UV-I 0 W/m² 1,3 °C 12,6 °C 16,1 km/h (3 Bft)
04.04.2018 02:36 12,7 °C 47 % 1003,9 hPa 0,0 mm 3,9 km/h (1 Bft) W-SW 255 ° 0 min 0,000 mm 0,0 UV-I 0 W/m² 1,7 °C 12,7 °C 8,0 km/h (2 Bft)
04.04.2018 02:37 12,7 °C 49 % 1003,9 hPa 0,0 mm 2,0 km/h (1 Bft) SW 215 ° 0 min 0,000 mm 0,0 UV-I 0 W/m² 2,3 °C 12,7 °C 3,2 km/h (1 Bft)
04.04.2018 02:38 12,6 °C 48 % 1003,8 hPa 0,0 mm 0,1 km/h (0 Bft) SW 215 ° 0 min 0,000 mm 0,0 UV-I 0 W/m² 1,9 °C 12,6 °C 1,6 km/h (1 Bft)
04.04.2018 02:39 12,6 °C 49 % 1003,9 hPa 0,0 mm 0,1 km/h (0 Bft) SW 215 ° 0 min 0,000 mm 0,0 UV-I 0 W/m² 2,2 °C 12,6 °C 1,6 km/h (1 Bft)
04.04.2018 02:40 12,4 °C 50 % 1003,9 hPa 0,0 mm 4,9 km/h (1 Bft) S-SW 207 ° 0 min 0,000 mm 0,0 UV-I 0 W/m² 2,3 °C 12,4 °C 8,0 km/h (2 Bft)
04.04.2018 02:41 12,3 °C 50 % 1003,8 hPa 0,0 mm 2,3 km/h (1 Bft) W 263 ° 0 min 0,000 mm 0,0 UV-I 0 W/m² 2,2 °C 12,3 °C 6,4 km/h (2 Bft)
04.04.2018 02:42 12,3 °C 50 % 1003,9 hPa 0,0 mm 9,5 km/h (2 Bft) W-SW 242 ° 0 min 0,000 mm 0,0 UV-I 0 W/m² 2,2 °C 12,3 °C 16,1 km/h (3 Bft)
04.04.2018 02:43 12,2 °C 50 % 1003,9 hPa 0,0 mm 4,8 km/h (1 Bft) W-SW 240 ° 0 min 0,000 mm 0,0 UV-I 0 W/m² 2,1 °C 12,2 °C 8,0 km/h (2 Bft)
04.04.2018 02:44 12,3 °C 47 % 1003,9 hPa 0,0 mm 5,5 km/h (1 Bft) S-SW 198 ° 0 min 0,000 mm 0,0 UV-I 0 W/m² 1,3 °C 12,3 °C 11,3 km/h (2 Bft)
04.04.2018 02:45 12,3 °C 50 % 1003,9 hPa 0,0 mm 4,9 km/h (1 Bft) S 174 ° 0 min 0,000 mm 0,0 UV-I 0 W/m² 2,2 °C 12,3 °C 9,7 km/h (2 Bft)
04.04.2018 02:46 12,4 °C 49 % 1003,9 hPa 0,0 mm 0,0 km/h (0 Bft) S 174 ° 0 min 0,000 mm 0,0 UV-I 0 W/m² 2,0 °C 12,4 °C 0,0 km/h (0 Bft)
04.04.2018 02:47 12,3 °C 50 % 1003,9 hPa 0,0 mm 2,7 km/h (1 Bft) SW 225 ° 0 min 0,000 mm 0,0 UV-I 0 W/m² 2,2 °C 12,3 °C 6,4 km/h (2 Bft)
04.04.2018 02:48 12,3 °C 49 % 1003,9 hPa 0,0 mm 3,1 km/h (1 Bft) S 178 ° 0 min 0,000 mm 0,0 UV-I 0 W/m² 1,9 °C 12,3 °C 9,7 km/h (2 Bft)
04.04.2018 02:49 12,3 °C 50 % 1003,8 hPa 0,0 mm 1,2 km/h (1 Bft) N-NO 19 ° 0 min 0,000 mm 0,0 UV-I 0 W/m² 2,2 °C 12,3 °C 6,4 km/h (2 Bft)
04.04.2018 02:50 12,2 °C 51 % 1003,9 hPa 0,0 mm 3,3 km/h (1 Bft) S-SO 157 ° 0 min 0,000 mm 0,0 UV-I 0 W/m² 2,4 °C 12,2 °C 6,4 km/h (2 Bft)
04.04.2018 02:51 12,2 °C 51 % 1003,9 hPa 0,0 mm 3,5 km/h (1 Bft) N 355 ° 0 min 0,000 mm 0,0 UV-I 0 W/m² 2,4 °C 12,2 °C 6,4 km/h (2 Bft)
04.04.2018 02:52 12,1 °C 51 % 1003,8 hPa 0,0 mm 2,1 km/h (1 Bft) S 170 ° 0 min 0,000 mm 0,0 UV-I 0 W/m² 2,3 °C 12,1 °C 6,4 km/h (2 Bft)
04.04.2018 02:53 12,1 °C 51 % 1003,8 hPa 0,0 mm 1,5 km/h (1 Bft) O 98 ° 0 min 0,000 mm 0,0 UV-I 0 W/m² 2,3 °C 12,1 °C 4,8 km/h (1 Bft)
04.04.2018 02:54 12,1 °C 50 % 1003,8 hPa 0,0 mm 0,2 km/h (0 Bft) O 98 ° 0 min 0,000 mm 0,0 UV-I 0 W/m² 2,0 °C 12,1 °C 1,6 km/h (1 Bft)
04.04.2018 02:55 12,1 °C 51 % 1003,9 hPa 0,0 mm 0,0 km/h (0 Bft) O 98 ° 0 min 0,000 mm 0,0 UV-I 0 W/m² 2,3 °C 12,1 °C 0,0 km/h (0 Bft)
04.04.2018 02:56 12,2 °C 49 % 1003,9 hPa 0,0 mm 0,3 km/h (0 Bft) S 171 ° 0 min 0,000 mm 0,0 UV-I 0 W/m² 1,8 °C 12,2 °C 1,6 km/h (1 Bft)
04.04.2018 02:57 12,2 °C 49 % 1003,9 hPa 0,0 mm 3,1 km/h (1 Bft) W-SW 247 ° 0 min 0,000 mm 0,0 UV-I 0 W/m² 1,8 °C 12,2 °C 6,4 km/h (2 Bft)
04.04.2018 02:58 12,2 °C 52 % 1003,9 hPa 0,0 mm 0,0 km/h (0 Bft) W-SW 243 ° 0 min 0,000 mm 0,0 UV-I 0 W/m² 2,6 °C 12,2 °C 0,0 km/h (0 Bft)
04.04.2018 02:59 12,1 °C 52 % 1003,9 hPa 0,0 mm 0,0 km/h (0 Bft) W-SW 243 ° 0 min 0,000 mm 0,0 UV-I 0 W/m² 2,5 °C 12,1 °C 0,0 km/h (0 Bft)
04.04.2018 03:00 12,1 °C 50 % 1003,9 hPa 0,0 mm 3,2 km/h (1 Bft) S 171 ° 0 min 0,051 mm 0,0 UV-I 0 W/m² 2,0 °C 12,1 °C 6,4 km/h (2 Bft)
04.04.2018 03:01 12,1 °C 51 % 1003,9 hPa 0,0 mm 4,3 km/h (1 Bft) SO 136 ° 0 min 0,000 mm 0,0 UV-I 0 W/m² 2,3 °C 12,1 °C 6,4 km/h (2 Bft)
04.04.2018 03:02 12,1 °C 52 % 1003,9 hPa 0,0 mm 0,2 km/h (0 Bft) SO 136 ° 0 min 0,000 mm 0,0 UV-I 0 W/m² 2,5 °C 12,1 °C 1,6 km/h (1 Bft)
04.04.2018 03:03 12,1 °C 50 % 1003,9 hPa 0,0 mm 0,0 km/h (0 Bft) SO 136 ° 0 min 0,000 mm 0,0 UV-I 0 W/m² 2,0 °C 12,1 °C 0,0 km/h (0 Bft)
04.04.2018 03:04 12,1 °C 50 % 1003,9 hPa 0,0 mm 0,0 km/h (0 Bft) SO 136 ° 0 min 0,000 mm 0,0 UV-I 0 W/m² 2,0 °C 12,1 °C 0,0 km/h (0 Bft)
04.04.2018 03:05 12,1 °C 52 % 1003,9 hPa 0,0 mm 2,0 km/h (1 Bft) NO 51 ° 0 min 0,000 mm 0,0 UV-I 0 W/m² 2,5 °C 12,1 °C 4,8 km/h (1 Bft)
04.04.2018 03:06 11,9 °C 53 % 1003,9 hPa 0,0 mm 2,2 km/h (1 Bft) S-SO 152 ° 0 min 0,000 mm 0,0 UV-I 0 W/m² 2,6 °C 11,9 °C 4,8 km/h (1 Bft)
04.04.2018 03:07 11,9 °C 52 % 1004,0 hPa 0,0 mm 0,0 km/h (0 Bft) S-SO 152 ° 0 min 0,000 mm 0,0 UV-I 0 W/m² 2,4 °C 11,9 °C 0,0 km/h (0 Bft)
04.04.2018 03:08 11,9 °C 52 % 1004,0 hPa 0,0 mm 0,0 km/h (0 Bft) S-SO 152 ° 0 min 0,000 mm 0,0 UV-I 0 W/m² 2,4 °C 11,9 °C 0,0 km/h (0 Bft)
04.04.2018 03:09 11,8 °C 51 % 1004,0 hPa 0,0 mm 0,0 km/h (0 Bft) S-SO 152 ° 0 min 0,000 mm 0,0 UV-I 0 W/m² 2,0 °C 11,8 °C 0,0 km/h (0 Bft)
04.04.2018 03:10 11,9 °C 51 % 1004,0 hPa 0,0 mm 0,0 km/h (0 Bft) S-SO 152 ° 0 min 0,000 mm 0,0 UV-I 0 W/m² 2,1 °C 11,9 °C 0,0 km/h (0 Bft)
04.04.2018 03:11 11,9 °C 51 % 1004,1 hPa 0,0 mm 0,6 km/h (0 Bft) S-SO 152 ° 0 min 0,000 mm 0,0 UV-I 0 W/m² 2,1 °C 11,9 °C 3,2 km/h (1 Bft)
04.04.2018 03:12 11,9 °C 51 % 1004,1 hPa 0,0 mm 0,7 km/h (0 Bft) S-SO 152 ° 0 min 0,000 mm 0,0 UV-I 0 W/m² 2,1 °C 11,9 °C 3,2 km/h (1 Bft)
04.04.2018 03:13 11,9 °C 52 % 1004,1 hPa 0,0 mm 0,0 km/h (0 Bft) S-SO 152 ° 0 min 0,000 mm 0,0 UV-I 0 W/m² 2,4 °C 11,9 °C 0,0 km/h (0 Bft)
04.04.2018 03:14 11,9 °C 51 % 1004,1 hPa 0,0 mm 1,5 km/h (1 Bft) N-NO 22 ° 0 min 0,000 mm 0,0 UV-I 0 W/m² 2,1 °C 11,9 °C 4,8 km/h (1 Bft)
04.04.2018 03:15 11,8 °C 52 % 1004,1 hPa 0,0 mm 1,4 km/h (1 Bft) O-NO 69 ° 0 min 0,000 mm 0,0 UV-I 0 W/m² 2,3 °C 11,8 °C 3,2 km/h (1 Bft)
04.04.2018 03:16 11,9 °C 52 % 1004,1 hPa 0,0 mm 0,5 km/h (0 Bft) O-NO 69 ° 0 min 0,000 mm 0,0 UV-I 0 W/m² 2,4 °C 11,9 °C 1,6 km/h (1 Bft)
04.04.2018 03:17 11,9 °C 50 % 1004,2 hPa 0,0 mm 0,0 km/h (0 Bft) O-NO 69 ° 0 min 0,000 mm 0,0 UV-I 0 W/m² 1,8 °C 11,9 °C 0,0 km/h (0 Bft)
04.04.2018 03:18 12,1 °C 50 % 1004,2 hPa 0,0 mm 0,1 km/h (0 Bft) O-NO 69 ° 0 min 0,000 mm 0,0 UV-I 0 W/m² 2,0 °C 12,1 °C 1,6 km/h (1 Bft)
04.04.2018 03:19 12,0 °C 51 % 1004,2 hPa 0,0 mm 0,1 km/h (0 Bft) O-NO 69 ° 0 min 0,000 mm 0,0 UV-I 0 W/m² 2,2 °C 12,0 °C 1,6 km/h (1 Bft)
04.04.2018 03:20 11,9 °C 51 % 1004,2 hPa 0,0 mm 0,1 km/h (0 Bft) O-NO 69 ° 0 min 0,000 mm 0,0 UV-I 0 W/m² 2,1 °C 11,9 °C 1,6 km/h (1 Bft)
04.04.2018 03:21 11,9 °C 51 % 1004,2 hPa 0,0 mm 0,0 km/h (0 Bft) O-NO 69 ° 0 min 0,000 mm 0,0 UV-I 0 W/m² 2,1 °C 11,9 °C 0,0 km/h (0 Bft)
04.04.2018 03:22 11,9 °C 52 % 1004,2 hPa 0,0 mm 0,3 km/h (0 Bft) O-NO 69 ° 0 min 0,000 mm 0,0 UV-I 0 W/m² 2,4 °C 11,9 °C 1,6 km/h (1 Bft)
04.04.2018 03:23 11,8 °C 52 % 1004,2 hPa 0,0 mm 0,5 km/h (0 Bft) O-NO 69 ° 0 min 0,000 mm 0,0 UV-I 0 W/m² 2,3 °C 11,8 °C 1,6 km/h (1 Bft)
04.04.2018 03:24 11,8 °C 52 % 1004,2 hPa 0,0 mm 0,0 km/h (0 Bft) O-NO 69 ° 0 min 0,000 mm 0,0 UV-I 0 W/m² 2,3 °C 11,8 °C 0,0 km/h (0 Bft)
04.04.2018 03:25 11,8 °C 50 % 1004,2 hPa 0,0 mm 2,9 km/h (1 Bft) SW 223 ° 0 min 0,000 mm 0,0 UV-I 0 W/m² 1,7 °C 11,8 °C 6,4 km/h (2 Bft)
04.04.2018 03:26 11,8 °C 51 % 1004,2 hPa 0,0 mm 3,5 km/h (1 Bft) SW 224 ° 0 min 0,000 mm 0,0 UV-I 0 W/m² 2,0 °C 11,8 °C 4,8 km/h (1 Bft)
04.04.2018 03:27 11,9 °C 50 % 1004,2 hPa 0,0 mm 2,8 km/h (1 Bft) S 179 ° 0 min 0,000 mm 0,0 UV-I 0 W/m² 1,8 °C 11,9 °C 4,8 km/h (1 Bft)
04.04.2018 03:28 11,9 °C 52 % 1004,3 hPa 0,0 mm 0,2 km/h (0 Bft) S 179 ° 0 min 0,000 mm 0,0 UV-I 0 W/m² 2,4 °C 11,9 °C 1,6 km/h (1 Bft)
04.04.2018 03:29 11,9 °C 51 % 1004,3 hPa 0,0 mm 0,5 km/h (0 Bft) W 278 ° 0 min 0,000 mm 0,0 UV-I 0 W/m² 2,1 °C 11,9 °C 1,6 km/h (1 Bft)
04.04.2018 03:30 11,9 °C 52 % 1004,3 hPa 0,0 mm 0,3 km/h (0 Bft) W 278 ° 0 min 0,000 mm 0,0 UV-I 0 W/m² 2,4 °C 11,9 °C 3,2 km/h (1 Bft)
04.04.2018 03:31 11,9 °C 50 % 1004,2 hPa 0,0 mm 3,4 km/h (1 Bft) S-SW 207 ° 0 min 0,000 mm 0,0 UV-I 0 W/m² 1,8 °C 11,9 °C 4,8 km/h (1 Bft)
04.04.2018 03:32 12,1 °C 51 % 1004,3 hPa 0,0 mm 1,5 km/h (1 Bft) S-SW 209 ° 0 min 0,000 mm 0,0 UV-I 0 W/m² 2,3 °C 12,1 °C 3,2 km/h (1 Bft)
04.04.2018 03:33 12,1 °C 50 % 1004,3 hPa 0,0 mm 0,5 km/h (0 Bft) S-SW 209 ° 0 min 0,000 mm 0,0 UV-I 0 W/m² 2,0 °C 12,1 °C 1,6 km/h (1 Bft)
04.04.2018 03:34 12,2 °C 52 % 1004,3 hPa 0,0 mm 0,4 km/h (0 Bft) S-SW 209 ° 0 min 0,000 mm 0,0 UV-I 0 W/m² 2,6 °C 12,2 °C 3,2 km/h (1 Bft)
04.04.2018 03:35 12,0 °C 52 % 1004,3 hPa 0,0 mm 0,3 km/h (0 Bft) W 271 ° 0 min 0,000 mm 0,0 UV-I 0 W/m² 2,5 °C 12,0 °C 1,6 km/h (1 Bft)
04.04.2018 03:36 11,9 °C 52 % 1004,3 hPa 0,0 mm 0,0 km/h (0 Bft) W 271 ° 0 min 0,000 mm 0,0 UV-I 0 W/m² 2,4 °C 11,9 °C 0,0 km/h (0 Bft)
04.04.2018 03:37 11,8 °C 51 % 1004,3 hPa 0,0 mm 0,0 km/h (0 Bft) W 271 ° 0 min 0,000 mm 0,0 UV-I 0 W/m² 2,0 °C 11,8 °C 0,0 km/h (0 Bft)
04.04.2018 03:38 11,8 °C 54 % 1004,3 hPa 0,0 mm 0,1 km/h (0 Bft) W 271 ° 0 min 0,000 mm 0,0 UV-I 0 W/m² 2,8 °C 11,8 °C 1,6 km/h (1 Bft)
04.04.2018 03:39 11,7 °C 53 % 1004,3 hPa 0,0 mm 0,5 km/h (0 Bft) W 271 ° 0 min 0,000 mm 0,0 UV-I 0 W/m² 2,4 °C 11,7 °C 1,6 km/h (1 Bft)
04.04.2018 03:40 11,7 °C 52 % 1004,2 hPa 0,0 mm 0,5 km/h (0 Bft) W 271 ° 0 min 0,000 mm 0,0 UV-I 0 W/m² 2,2 °C 11,7 °C 1,6 km/h (1 Bft)
04.04.2018 03:41 11,7 °C 53 % 1004,3 hPa 0,0 mm 0,0 km/h (0 Bft) W 271 ° 0 min 0,000 mm 0,0 UV-I 0 W/m² 2,4 °C 11,7 °C 0,0 km/h (0 Bft)
04.04.2018 03:42 11,7 °C 52 % 1004,2 hPa 0,0 mm 0,1 km/h (0 Bft) W 271 ° 0 min 0,000 mm 0,0 UV-I 0 W/m² 2,2 °C 11,7 °C 1,6 km/h (1 Bft)
04.04.2018 03:43 11,7 °C 52 % 1004,2 hPa 0,0 mm 0,0 km/h (0 Bft) W 271 ° 0 min 0,000 mm 0,0 UV-I 0 W/m² 2,2 °C 11,7 °C 0,0 km/h (0 Bft)
04.04.2018 03:44 11,7 °C 51 % 1004,3 hPa 0,0 mm 0,7 km/h (0 Bft) W 271 ° 0 min 0,000 mm 0,0 UV-I 0 W/m² 1,9 °C 11,7 °C 1,6 km/h (1 Bft)
04.04.2018 03:45 11,8 °C 51 % 1004,2 hPa 0,0 mm 0,2 km/h (0 Bft) W 271 ° 0 min 0,000 mm 0,0 UV-I 0 W/m² 2,0 °C 11,8 °C 1,6 km/h (1 Bft)
04.04.2018 03:46 11,8 °C 52 % 1004,2 hPa 0,0 mm 0,0 km/h (0 Bft) W 271 ° 0 min 0,000 mm 0,0 UV-I 0 W/m² 2,3 °C 11,8 °C 0,0 km/h (0 Bft)
04.04.2018 03:47 11,8 °C 52 % 1004,2 hPa 0,0 mm 0,0 km/h (0 Bft) W 271 ° 0 min 0,000 mm 0,0 UV-I 0 W/m² 2,3 °C 11,8 °C 0,0 km/h (0 Bft)
04.04.2018 03:48 11,7 °C 54 % 1004,2 hPa 0,0 mm 0,0 km/h (0 Bft) W 271 ° 0 min 0,000 mm 0,0 UV-I 0 W/m² 2,7 °C 11,7 °C 0,0 km/h (0 Bft)
04.04.2018 03:49 11,7 °C 51 % 1004,3 hPa 0,0 mm 0,5 km/h (0 Bft) W 271 ° 0 min 0,000 mm 0,0 UV-I 0 W/m² 1,9 °C 11,7 °C 1,6 km/h (1 Bft)
04.04.2018 03:50 11,7 °C 52 % 1004,3 hPa 0,0 mm 0,0 km/h (0 Bft) W 271 ° 0 min 0,000 mm 0,0 UV-I 0 W/m² 2,2 °C 11,7 °C 0,0 km/h (0 Bft)
04.04.2018 03:51 11,7 °C 51 % 1004,3 hPa 0,0 mm 0,0 km/h (0 Bft) W 271 ° 0 min 0,000 mm 0,0 UV-I 0 W/m² 1,9 °C 11,7 °C 0,0 km/h (0 Bft)
04.04.2018 03:52 11,8 °C 51 % 1004,3 hPa 0,0 mm 0,9 km/h (0 Bft) W 271 ° 0 min 0,000 mm 0,0 UV-I 0 W/m² 2,0 °C 11,8 °C 3,2 km/h (1 Bft)
04.04.2018 03:53 11,8 °C 51 % 1004,3 hPa 0,0 mm 1,0 km/h (0 Bft) W 271 ° 0 min 0,000 mm 0,0 UV-I 0 W/m² 2,0 °C 11,8 °C 1,6 km/h (1 Bft)
04.04.2018 03:54 11,9 °C 50 % 1004,3 hPa 0,0 mm 1,4 km/h (1 Bft) S-SW 203 ° 0 min 0,000 mm 0,0 UV-I 0 W/m² 1,8 °C 11,9 °C 4,8 km/h (1 Bft)
04.04.2018 03:55 12,0 °C 53 % 1004,3 hPa 0,0 mm 0,7 km/h (0 Bft) S-SW 202 ° 0 min 0,000 mm 0,0 UV-I 0 W/m² 2,7 °C 12,0 °C 3,2 km/h (1 Bft)
04.04.2018 03:56 11,9 °C 53 % 1004,3 hPa 0,0 mm 0,0 km/h (0 Bft) S-SW 202 ° 0 min 0,000 mm 0,0 UV-I 0 W/m² 2,6 °C 11,9 °C 0,0 km/h (0 Bft)
04.04.2018 03:57 11,8 °C 53 % 1004,3 hPa 0,0 mm 0,0 km/h (0 Bft) S-SW 202 ° 0 min 0,000 mm 0,0 UV-I 0 W/m² 2,5 °C 11,8 °C 0,0 km/h (0 Bft)
04.04.2018 03:58 11,7 °C 53 % 1004,3 hPa 0,0 mm 1,3 km/h (1 Bft) S-SW 202 ° 0 min 0,000 mm 0,0 UV-I 0 W/m² 2,4 °C 11,7 °C 3,2 km/h (1 Bft)
04.04.2018 03:59 11,7 °C 51 % 1004,3 hPa 0,0 mm 0,3 km/h (0 Bft) S-SW 202 ° 0 min 0,000 mm 0,0 UV-I 0 W/m² 1,9 °C 11,7 °C 1,6 km/h (1 Bft)
04.04.2018 04:00 11,8 °C 52 % 1004,3 hPa 0,0 mm 0,4 km/h (0 Bft) W-NW 283 ° 0 min 0,025 mm 0,0 UV-I 0 W/m² 2,3 °C 11,8 °C 3,2 km/h (1 Bft)
04.04.2018 04:01 11,7 °C 51 % 1004,4 hPa 0,0 mm 0,6 km/h (0 Bft) W 271 ° 0 min 0,000 mm 0,0 UV-I 0 W/m² 1,9 °C 11,7 °C 1,6 km/h (1 Bft)
04.04.2018 04:02 11,8 °C 50 % 1004,3 hPa 0,0 mm 1,5 km/h (1 Bft) W 271 ° 0 min 0,000 mm 0,0 UV-I 0 W/m² 1,7 °C 11,8 °C 4,8 km/h (1 Bft)
04.04.2018 04:03 11,8 °C 52 % 1004,3 hPa 0,0 mm 0,1 km/h (0 Bft) W 271 ° 0 min 0,000 mm 0,0 UV-I 0 W/m² 2,3 °C 11,8 °C 1,6 km/h (1 Bft)
04.04.2018 04:04 11,8 °C 52 % 1004,3 hPa 0,0 mm 0,0 km/h (0 Bft) W 271 ° 0 min 0,000 mm 0,0 UV-I 0 W/m² 2,3 °C 11,8 °C 0,0 km/h (0 Bft)
04.04.2018 04:05 11,8 °C 52 % 1004,3 hPa 0,0 mm 0,4 km/h (0 Bft) W 271 ° 0 min 0,000 mm 0,0 UV-I 0 W/m² 2,3 °C 11,8 °C 1,6 km/h (1 Bft)
04.04.2018 04:06 11,7 °C 53 % 1004,3 hPa 0,0 mm 0,0 km/h (0 Bft) W 271 ° 0 min 0,000 mm 0,0 UV-I 0 W/m² 2,4 °C 11,7 °C 0,0 km/h (0 Bft)
04.04.2018 04:07 11,7 °C 52 % 1004,3 hPa 0,0 mm 1,4 km/h (1 Bft) W-NW 293 ° 0 min 0,000 mm 0,0 UV-I 0 W/m² 2,2 °C 11,7 °C 3,2 km/h (1 Bft)
04.04.2018 04:08 11,7 °C 53 % 1004,3 hPa 0,0 mm 0,1 km/h (0 Bft) W-NW 293 ° 0 min 0,000 mm 0,0 UV-I 0 W/m² 2,4 °C 11,7 °C 1,6 km/h (1 Bft)
04.04.2018 04:09 11,7 °C 51 % 1004,3 hPa 0,0 mm 0,6 km/h (0 Bft) W-NW 293 ° 0 min 0,000 mm 0,0 UV-I 0 W/m² 1,9 °C 11,7 °C 1,6 km/h (1 Bft)
04.04.2018 04:10 11,7 °C 53 % 1004,3 hPa 0,0 mm 0,7 km/h (0 Bft) W-NW 293 ° 0 min 0,000 mm 0,0 UV-I 0 W/m² 2,4 °C 11,7 °C 1,6 km/h (1 Bft)
04.04.2018 04:11 11,6 °C 54 % 1004,3 hPa 0,0 mm 0,4 km/h (0 Bft) W-NW 293 ° 0 min 0,000 mm 0,0 UV-I 0 W/m² 2,6 °C 11,6 °C 1,6 km/h (1 Bft)
04.04.2018 04:12 11,6 °C 52 % 1004,3 hPa 0,0 mm 0,5 km/h (0 Bft) W-SW 246 ° 0 min 0,000 mm 0,0 UV-I 0 W/m² 2,1 °C 11,6 °C 3,2 km/h (1 Bft)
04.04.2018 04:13 11,7 °C 52 % 1004,3 hPa 0,0 mm 2,3 km/h (1 Bft) W-SW 246 ° 0 min 0,000 mm 0,0 UV-I 0 W/m² 2,2 °C 11,7 °C 4,8 km/h (1 Bft)
04.04.2018 04:14 11,7 °C 52 % 1004,3 hPa 0,0 mm 0,1 km/h (0 Bft) W-SW 246 ° 0 min 0,000 mm 0,0 UV-I 0 W/m² 2,2 °C 11,7 °C 1,6 km/h (1 Bft)
04.04.2018 04:15 11,7 °C 51 % 1004,3 hPa 0,0 mm 0,0 km/h (0 Bft) W-SW 246 ° 0 min 0,000 mm 0,0 UV-I 0 W/m² 1,9 °C 11,7 °C 0,0 km/h (0 Bft)
04.04.2018 04:16 11,8 °C 53 % 1004,3 hPa 0,0 mm 0,8 km/h (0 Bft) W-SW 248 ° 0 min 0,000 mm 0,0 UV-I 0 W/m² 2,5 °C 11,8 °C 3,2 km/h (1 Bft)
04.04.2018 04:17 11,7 °C 52 % 1004,3 hPa 0,0 mm 1,4 km/h (1 Bft) NW 317 ° 0 min 0,000 mm 0,0 UV-I 0 W/m² 2,2 °C 11,7 °C 3,2 km/h (1 Bft)
04.04.2018 04:18 11,7 °C 53 % 1004,3 hPa 0,0 mm 1,5 km/h (1 Bft) NW 317 ° 0 min 0,000 mm 0,0 UV-I 0 W/m² 2,4 °C 11,7 °C 4,8 km/h (1 Bft)
04.04.2018 04:19 11,6 °C 52 % 1004,3 hPa 0,0 mm 1,7 km/h (1 Bft) NW 307 ° 0 min 0,000 mm 0,0 UV-I 0 W/m² 2,1 °C 11,6 °C 3,2 km/h (1 Bft)
04.04.2018 04:20 11,7 °C 52 % 1004,3 hPa 0,0 mm 0,9 km/h (0 Bft) NW 307 ° 0 min 0,000 mm 0,0 UV-I 0 W/m² 2,2 °C 11,7 °C 3,2 km/h (1 Bft)
04.04.2018 04:21 11,7 °C 53 % 1004,3 hPa 0,0 mm 0,1 km/h (0 Bft) NW 307 ° 0 min 0,000 mm 0,0 UV-I 0 W/m² 2,4 °C 11,7 °C 1,6 km/h (1 Bft)
04.04.2018 04:22 11,7 °C 51 % 1004,3 hPa 0,0 mm 0,0 km/h (0 Bft) NW 307 ° 0 min 0,000 mm 0,0 UV-I 0 W/m² 1,9 °C 11,7 °C 0,0 km/h (0 Bft)
04.04.2018 04:23 11,7 °C 53 % 1004,3 hPa 0,0 mm 0,0 km/h (0 Bft) NW 307 ° 0 min 0,000 mm 0,0 UV-I 0 W/m² 2,4 °C 11,7 °C 0,0 km/h (0 Bft)
04.04.2018 04:24 11,6 °C 51 % 1004,4 hPa 0,0 mm 0,0 km/h (0 Bft) NW 307 ° 0 min 0,000 mm 0,0 UV-I 0 W/m² 1,8 °C 11,6 °C 0,0 km/h (0 Bft)
04.04.2018 04:25 11,7 °C 51 % 1004,4 hPa 0,0 mm 0,1 km/h (0 Bft) NW 307 ° 0 min 0,000 mm 0,0 UV-I 0 W/m² 1,9 °C 11,7 °C 1,6 km/h (1 Bft)
04.04.2018 04:26 11,7 °C 52 % 1004,3 hPa 0,0 mm 0,0 km/h (0 Bft) NW 307 ° 0 min 0,000 mm 0,0 UV-I 0 W/m² 2,2 °C 11,7 °C 0,0 km/h (0 Bft)
04.04.2018 04:27 11,6 °C 55 % 1004,4 hPa 0,0 mm 0,0 km/h (0 Bft) NW 307 ° 0 min 0,000 mm 0,0 UV-I 0 W/m² 2,9 °C 11,6 °C 0,0 km/h (0 Bft)
04.04.2018 04:28 11,6 °C 53 % 1004,4 hPa 0,0 mm 0,0 km/h (0 Bft) NW 307 ° 0 min 0,000 mm 0,0 UV-I 0 W/m² 2,4 °C 11,6 °C 0,0 km/h (0 Bft)
04.04.2018 04:29 11,6 °C 52 % 1004,4 hPa 0,0 mm 0,0 km/h (0 Bft) NW 307 ° 0 min 0,000 mm 0,0 UV-I 0 W/m² 2,1 °C 11,6 °C 0,0 km/h (0 Bft)
04.04.2018 04:30 11,7 °C 53 % 1004,4 hPa 0,0 mm 0,0 km/h (0 Bft) NW 307 ° 0 min 0,000 mm 0,0 UV-I 0 W/m² 2,4 °C 11,7 °C 0,0 km/h (0 Bft)
04.04.2018 04:31 11,7 °C 53 % 1004,4 hPa 0,0 mm 0,0 km/h (0 Bft) NW 307 ° 0 min 0,000 mm 0,0 UV-I 0 W/m² 2,4 °C 11,7 °C 0,0 km/h (0 Bft)
04.04.2018 04:32 11,6 °C 52 % 1004,3 hPa 0,0 mm 0,0 km/h (0 Bft) NW 307 ° 0 min 0,000 mm 0,0 UV-I 0 W/m² 2,1 °C 11,6 °C 0,0 km/h (0 Bft)
04.04.2018 04:33 11,7 °C 52 % 1004,3 hPa 0,0 mm 0,0 km/h (0 Bft) NW 307 ° 0 min 0,000 mm 0,0 UV-I 0 W/m² 2,2 °C 11,7 °C 0,0 km/h (0 Bft)
04.04.2018 04:34 11,7 °C 51 % 1004,3 hPa 0,0 mm 0,0 km/h (0 Bft) NW 307 ° 0 min 0,000 mm 0,0 UV-I 0 W/m² 1,9 °C 11,7 °C 0,0 km/h (0 Bft)
04.04.2018 04:35 11,8 °C 50 % 1004,4 hPa 0,0 mm 1,2 km/h (1 Bft) NW 307 ° 0 min 0,000 mm 0,0 UV-I 0 W/m² 1,7 °C 11,8 °C 4,8 km/h (1 Bft)
04.04.2018 04:36 11,9 °C 51 % 1004,4 hPa 0,0 mm 1,6 km/h (1 Bft) NW 307 ° 0 min 0,000 mm 0,0 UV-I 0 W/m² 2,1 °C 11,9 °C 4,8 km/h (1 Bft)
04.04.2018 04:37 11,9 °C 52 % 1004,3 hPa 0,0 mm 0,0 km/h (0 Bft) NW 307 ° 0 min 0,000 mm 0,0 UV-I 0 W/m² 2,4 °C 11,9 °C 0,0 km/h (0 Bft)
04.04.2018 04:38 11,9 °C 49 % 1004,3 hPa 0,0 mm 0,1 km/h (0 Bft) NW 307 ° 0 min 0,000 mm 0,0 UV-I 0 W/m² 1,5 °C 11,9 °C 1,6 km/h (1 Bft)
04.04.2018 04:39 11,9 °C 54 % 1004,3 hPa 0,0 mm 0,9 km/h (0 Bft) NW 307 ° 0 min 0,000 mm 0,0 UV-I 0 W/m² 2,9 °C 11,9 °C 3,2 km/h (1 Bft)
04.04.2018 04:40 11,9 °C 51 % 1004,3 hPa 0,0 mm 1,4 km/h (1 Bft) NW 307 ° 0 min 0,000 mm 0,0 UV-I 0 W/m² 2,1 °C 11,9 °C 3,2 km/h (1 Bft)
04.04.2018 04:41 11,9 °C 49 % 1004,3 hPa 0,0 mm 0,1 km/h (0 Bft) NW 307 ° 0 min 0,000 mm 0,0 UV-I 0 W/m² 1,5 °C 11,9 °C 1,6 km/h (1 Bft)
04.04.2018 04:42 11,9 °C 54 % 1004,3 hPa 0,0 mm 0,3 km/h (0 Bft) NW 307 ° 0 min 0,000 mm 0,0 UV-I 0 W/m² 2,9 °C 11,9 °C 1,6 km/h (1 Bft)
04.04.2018 04:43 11,9 °C 52 % 1004,3 hPa 0,0 mm 1,1 km/h (1 Bft) NW 307 ° 0 min 0,000 mm 0,0 UV-I 0 W/m² 2,4 °C 11,9 °C 3,2 km/h (1 Bft)
04.04.2018 04:44 11,9 °C 52 % 1004,3 hPa 0,0 mm 0,4 km/h (0 Bft) NW 307 ° 0 min 0,000 mm 0,0 UV-I 0 W/m² 2,4 °C 11,9 °C 1,6 km/h (1 Bft)
04.04.2018 04:45 11,8 °C 53 % 1004,3 hPa 0,0 mm 0,0 km/h (0 Bft) NW 307 ° 0 min 0,000 mm 0,0 UV-I 0 W/m² 2,5 °C 11,8 °C 0,0 km/h (0 Bft)
04.04.2018 04:46 11,8 °C 51 % 1004,2 hPa 0,0 mm 0,0 km/h (0 Bft) NW 307 ° 0 min 0,000 mm 0,0 UV-I 0 W/m² 2,0 °C 11,8 °C 0,0 km/h (0 Bft)
04.04.2018 04:47 11,9 °C 49 % 1004,3 hPa 0,0 mm 0,0 km/h (0 Bft) NW 307 ° 0 min 0,000 mm 0,0 UV-I 0 W/m² 1,5 °C 11,9 °C 0,0 km/h (0 Bft)
04.04.2018 04:48 11,9 °C 51 % 1004,3 hPa 0,0 mm 0,5 km/h (0 Bft) NW 307 ° 0 min 0,000 mm 0,0 UV-I 0 W/m² 2,1 °C 11,9 °C 1,6 km/h (1 Bft)
04.04.2018 04:49 12,1 °C 48 % 1004,3 hPa 0,0 mm 1,3 km/h (1 Bft) NW 307 ° 0 min 0,000 mm 0,0 UV-I 0 W/m² 1,4 °C 12,1 °C 1,6 km/h (1 Bft)
04.04.2018 04:50 11,9 °C 55 % 1004,3 hPa 0,0 mm 2,1 km/h (1 Bft) NW 307 ° 0 min 0,000 mm 0,0 UV-I 0 W/m² 3,2 °C 11,9 °C 3,2 km/h (1 Bft)
04.04.2018 04:51 11,9 °C 51 % 1004,2 hPa 0,0 mm 0,8 km/h (0 Bft) NW 307 ° 0 min 0,000 mm 0,0 UV-I 0 W/m² 2,1 °C 11,9 °C 1,6 km/h (1 Bft)
04.04.2018 04:52 11,8 °C 53 % 1004,3 hPa 0,0 mm 0,0 km/h (0 Bft) NW 307 ° 0 min 0,000 mm 0,0 UV-I 0 W/m² 2,5 °C 11,8 °C 0,0 km/h (0 Bft)
04.04.2018 04:53 11,8 °C 49 % 1004,3 hPa 0,0 mm 0,0 km/h (0 Bft) NW 307 ° 0 min 0,000 mm 0,0 UV-I 0 W/m² 1,4 °C 11,8 °C 0,0 km/h (0 Bft)
04.04.2018 04:54 11,9 °C 49 % 1004,3 hPa 0,0 mm 0,0 km/h (0 Bft) NW 307 ° 0 min 0,000 mm 0,0 UV-I 0 W/m² 1,5 °C 11,9 °C 0,0 km/h (0 Bft)
04.04.2018 04:55 12,1 °C 50 % 1004,3 hPa 0,0 mm 1,0 km/h (0 Bft) NW 307 ° 0 min 0,000 mm 0,0 UV-I 0 W/m² 2,0 °C 12,1 °C 3,2 km/h (1 Bft)
04.04.2018 04:56 11,8 °C 54 % 1004,3 hPa 0,0 mm 0,6 km/h (0 Bft) NW 307 ° 0 min 0,000 mm 0,0 UV-I 0 W/m² 2,8 °C 11,8 °C 1,6 km/h (1 Bft)
04.04.2018 04:57 11,7 °C 55 % 1004,3 hPa 0,0 mm 0,0 km/h (0 Bft) NW 307 ° 0 min 0,000 mm 0,0 UV-I 0 W/m² 3,0 °C 11,7 °C 0,0 km/h (0 Bft)
04.04.2018 04:58 11,5 °C 55 % 1004,3 hPa 0,0 mm 0,0 km/h (0 Bft) NW 307 ° 0 min 0,000 mm 0,0 UV-I 0 W/m² 2,8 °C 11,5 °C 0,0 km/h (0 Bft)
04.04.2018 04:59 11,3 °C 56 % 1004,3 hPa 0,0 mm 0,1 km/h (0 Bft) NW 307 ° 0 min 0,000 mm 0,0 UV-I 0 W/m² 2,8 °C 11,3 °C 1,6 km/h (1 Bft)
04.04.2018 05:00 11,2 °C 55 % 1004,4 hPa 0,0 mm 0,1 km/h (0 Bft) NW 307 ° 0 min 0,025 mm 0,0 UV-I 0 W/m² 2,5 °C 11,2 °C 1,6 km/h (1 Bft)
04.04.2018 05:01 11,2 °C 55 % 1004,3 hPa 0,0 mm 0,0 km/h (0 Bft) NW 307 ° 0 min 0,000 mm 0,0 UV-I 0 W/m² 2,5 °C 11,2 °C 0,0 km/h (0 Bft)
04.04.2018 05:02 11,2 °C 56 % 1004,3 hPa 0,0 mm 0,0 km/h (0 Bft) NW 307 ° 0 min 0,000 mm 0,0 UV-I 0 W/m² 2,8 °C 11,2 °C 0,0 km/h (0 Bft)
04.04.2018 05:03 11,1 °C 57 % 1004,3 hPa 0,0 mm 0,0 km/h (0 Bft) NW 307 ° 0 min 0,000 mm 0,0 UV-I 0 W/m² 2,9 °C 11,1 °C 0,0 km/h (0 Bft)
04.04.2018 05:04 11,1 °C 55 % 1004,3 hPa 0,0 mm 0,5 km/h (0 Bft) NW 307 ° 0 min 0,000 mm 0,0 UV-I 0 W/m² 2,4 °C 11,1 °C 3,2 km/h (1 Bft)
04.04.2018 05:05 11,2 °C 52 % 1004,3 hPa 0,0 mm 1,2 km/h (1 Bft) NW 307 ° 0 min 0,000 mm 0,0 UV-I 0 W/m² 1,7 °C 11,2 °C 3,2 km/h (1 Bft)
04.04.2018 05:06 11,4 °C 51 % 1004,3 hPa 0,0 mm 0,0 km/h (0 Bft) NW 307 ° 0 min 0,000 mm 0,0 UV-I 0 W/m² 1,6 °C 11,4 °C 0,0 km/h (0 Bft)
04.04.2018 05:07 11,6 °C 53 % 1004,3 hPa 0,0 mm 1,2 km/h (1 Bft) W-NW 296 ° 0 min 0,000 mm 0,0 UV-I 0 W/m² 2,4 °C 11,6 °C 3,2 km/h (1 Bft)
04.04.2018 05:08 11,7 °C 53 % 1004,3 hPa 0,0 mm 0,0 km/h (0 Bft) W-NW 296 ° 0 min 0,000 mm 0,0 UV-I 0 W/m² 2,4 °C 11,7 °C 0,0 km/h (0 Bft)
04.04.2018 05:09 11,8 °C 51 % 1004,4 hPa 0,0 mm 0,0 km/h (0 Bft) W-NW 296 ° 0 min 0,000 mm 0,0 UV-I 0 W/m² 2,0 °C 11,8 °C 0,0 km/h (0 Bft)
04.04.2018 05:10 11,8 °C 52 % 1004,4 hPa 0,0 mm 0,0 km/h (0 Bft) W-NW 296 ° 0 min 0,000 mm 0,0 UV-I 0 W/m² 2,3 °C 11,8 °C 0,0 km/h (0 Bft)
04.04.2018 05:11 11,8 °C 55 % 1004,3 hPa 0,0 mm 0,0 km/h (0 Bft) W-NW 296 ° 0 min 0,000 mm 0,0 UV-I 0 W/m² 3,1 °C 11,8 °C 0,0 km/h (0 Bft)
04.04.2018 05:12 11,6 °C 56 % 1004,3 hPa 0,0 mm 0,0 km/h (0 Bft) W-NW 296 ° 0 min 0,000 mm 0,0 UV-I 0 W/m² 3,1 °C 11,6 °C 0,0 km/h (0 Bft)
04.04.2018 05:13 11,2 °C 59 % 1004,4 hPa 0,0 mm 0,0 km/h (0 Bft) W-NW 296 ° 0 min 0,000 mm 0,0 UV-I 0 W/m² 3,5 °C 11,2 °C 0,0 km/h (0 Bft)
04.04.2018 05:14 10,9 °C 60 % 1004,3 hPa 0,0 mm 0,0 km/h (0 Bft) W-NW 296 ° 0 min 0,000 mm 0,0 UV-I 0 W/m² 3,4 °C 10,9 °C 0,0 km/h (0 Bft)
04.04.2018 05:15 10,7 °C 62 % 1004,3 hPa 0,0 mm 0,0 km/h (0 Bft) W-NW 296 ° 0 min 0,000 mm 0,0 UV-I 0 W/m² 3,7 °C 10,7 °C 0,0 km/h (0 Bft)
04.04.2018 05:16 10,6 °C 61 % 1004,3 hPa 0,0 mm 0,0 km/h (0 Bft) W-NW 296 ° 0 min 0,000 mm 0,0 UV-I 0 W/m² 3,4 °C 10,6 °C 0,0 km/h (0 Bft)
04.04.2018 05:17 10,4 °C 61 % 1004,3 hPa 0,0 mm 0,0 km/h (0 Bft) W-NW 296 ° 0 min 0,000 mm 0,0 UV-I 0 W/m² 3,2 °C 10,4 °C 0,0 km/h (0 Bft)
04.04.2018 05:18 10,4 °C 59 % 1004,3 hPa 0,0 mm 0,0 km/h (0 Bft) W-NW 296 ° 0 min 0,000 mm 0,0 UV-I 0 W/m² 2,7 °C 10,4 °C 0,0 km/h (0 Bft)
04.04.2018 05:19 10,4 °C 60 % 1004,3 hPa 0,0 mm 0,0 km/h (0 Bft) W-NW 296 ° 0 min 0,000 mm 0,0 UV-I 0 W/m² 3,0 °C 10,4 °C 0,0 km/h (0 Bft)
04.04.2018 05:20 10,4 °C 60 % 1004,3 hPa 0,0 mm 0,0 km/h (0 Bft) W-NW 296 ° 0 min 0,000 mm 0,0 UV-I 0 W/m² 3,0 °C 10,4 °C 0,0 km/h (0 Bft)
04.04.2018 05:21 10,4 °C 60 % 1004,3 hPa 0,0 mm 0,0 km/h (0 Bft) W-NW 296 ° 0 min 0,000 mm 0,0 UV-I 0 W/m² 3,0 °C 10,4 °C 0,0 km/h (0 Bft)
04.04.2018 05:22 10,3 °C 61 % 1004,3 hPa 0,0 mm 0,1 km/h (0 Bft) W-NW 296 ° 0 min 0,000 mm 0,0 UV-I 0 W/m² 3,1 °C 10,3 °C 1,6 km/h (1 Bft)
04.04.2018 05:23 10,3 °C 61 % 1004,3 hPa 0,0 mm 0,0 km/h (0 Bft) W-NW 296 ° 0 min 0,000 mm 0,0 UV-I 0 W/m² 3,1 °C 10,3 °C 0,0 km/h (0 Bft)
04.04.2018 05:24 10,2 °C 62 % 1004,3 hPa 0,0 mm 0,0 km/h (0 Bft) W-NW 296 ° 0 min 0,000 mm 0,0 UV-I 0 W/m² 3,3 °C 10,2 °C 0,0 km/h (0 Bft)
04.04.2018 05:25 10,1 °C 62 % 1004,3 hPa 0,0 mm 0,0 km/h (0 Bft) W-NW 296 ° 0 min 0,000 mm 0,0 UV-I 0 W/m² 3,2 °C 10,1 °C 0,0 km/h (0 Bft)
04.04.2018 05:26 10,0 °C 62 % 1004,3 hPa 0,0 mm 0,0 km/h (0 Bft) W-NW 296 ° 0 min 0,000 mm 0,0 UV-I 0 W/m² 3,1 °C 10,0 °C 0,0 km/h (0 Bft)
04.04.2018 05:27 9,9 °C 63 % 1004,3 hPa 0,0 mm 0,0 km/h (0 Bft) W-NW 296 ° 0 min 0,000 mm 0,0 UV-I 0 W/m² 3,2 °C 9,9 °C 0,0 km/h (0 Bft)
04.04.2018 05:28 9,8 °C 64 % 1004,3 hPa 0,0 mm 0,0 km/h (0 Bft) W-NW 296 ° 0 min 0,000 mm 0,0 UV-I 0 W/m² 3,3 °C 9,8 °C 0,0 km/h (0 Bft)
04.04.2018 05:29 9,7 °C 64 % 1004,3 hPa 0,0 mm 0,0 km/h (0 Bft) W-NW 296 ° 0 min 0,000 mm 0,0 UV-I 0 W/m² 3,2 °C 9,7 °C 0,0 km/h (0 Bft)
04.04.2018 05:30 9,6 °C 65 % 1004,3 hPa 0,0 mm 0,0 km/h (0 Bft) W-NW 296 ° 0 min 0,000 mm 0,0 UV-I 0 W/m² 3,4 °C 9,6 °C 0,0 km/h (0 Bft)
04.04.2018 05:31 9,4 °C 65 % 1004,3 hPa 0,0 mm 0,0 km/h (0 Bft) W-NW 296 ° 0 min 0,000 mm 0,0 UV-I 0 W/m² 3,2 °C 9,4 °C 0,0 km/h (0 Bft)
04.04.2018 05:32 9,3 °C 65 % 1004,3 hPa 0,0 mm 0,0 km/h (0 Bft) W-NW 296 ° 0 min 0,000 mm 0,0 UV-I 0 W/m² 3,1 °C 9,3 °C 0,0 km/h (0 Bft)
04.04.2018 05:33 9,2 °C 66 % 1004,3 hPa 0,0 mm 0,0 km/h (0 Bft) W-NW 296 ° 0 min 0,000 mm 0,0 UV-I 0 W/m² 3,2 °C 9,2 °C 0,0 km/h (0 Bft)
04.04.2018 05:34 9,1 °C 67 % 1004,3 hPa 0,0 mm 0,0 km/h (0 Bft) W-NW 296 ° 0 min 0,000 mm 0,0 UV-I 0 W/m² 3,3 °C 9,1 °C 0,0 km/h (0 Bft)
04.04.2018 05:35 9,1 °C 67 % 1004,3 hPa 0,0 mm 0,0 km/h (0 Bft) W-NW 296 ° 0 min 0,000 mm 0,0 UV-I 0 W/m² 3,3 °C 9,1 °C 0,0 km/h (0 Bft)
04.04.2018 05:36 9,1 °C 67 % 1004,3 hPa 0,0 mm 0,0 km/h (0 Bft) W-NW 296 ° 0 min 0,000 mm 0,0 UV-I 0 W/m² 3,3 °C 9,1 °C 0,0 km/h (0 Bft)
04.04.2018 05:37 9,1 °C 66 % 1004,4 hPa 0,0 mm 0,0 km/h (0 Bft) W-NW 296 ° 0 min 0,000 mm 0,0 UV-I 0 W/m² 3,1 °C 9,1 °C 0,0 km/h (0 Bft)
04.04.2018 05:38 9,1 °C 66 % 1004,4 hPa 0,0 mm 0,0 km/h (0 Bft) W-NW 296 ° 0 min 0,000 mm 0,0 UV-I 0 W/m² 3,1 °C 9,1 °C 0,0 km/h (0 Bft)
04.04.2018 05:39 9,2 °C 66 % 1004,4 hPa 0,0 mm 0,0 km/h (0 Bft) W-NW 296 ° 0 min 0,000 mm 0,0 UV-I 0 W/m² 3,2 °C 9,2 °C 0,0 km/h (0 Bft)
04.04.2018 05:40 9,3 °C 64 % 1004,4 hPa 0,0 mm 0,0 km/h (0 Bft) W-NW 296 ° 0 min 0,000 mm 0,0 UV-I 0 W/m² 2,8 °C 9,3 °C 0,0 km/h (0 Bft)
04.04.2018 05:41 9,4 °C 63 % 1004,4 hPa 0,0 mm 0,0 km/h (0 Bft) W-NW 296 ° 0 min 0,000 mm 0,0 UV-I 0 W/m² 2,7 °C 9,4 °C 0,0 km/h (0 Bft)
04.04.2018 05:42 9,6 °C 63 % 1004,4 hPa 0,0 mm 0,0 km/h (0 Bft) W-NW 296 ° 0 min 0,000 mm 0,0 UV-I 0 W/m² 2,9 °C 9,6 °C 0,0 km/h (0 Bft)
04.04.2018 05:43 9,7 °C 62 % 1004,4 hPa 0,0 mm 0,0 km/h (0 Bft) W-NW 296 ° 0 min 0,000 mm 0,0 UV-I 0 W/m² 2,8 °C 9,7 °C 0,0 km/h (0 Bft)
04.04.2018 05:44 9,8 °C 61 % 1004,4 hPa 0,0 mm 0,0 km/h (0 Bft) W-NW 296 ° 0 min 0,000 mm 0,0 UV-I 0 W/m² 2,6 °C 9,8 °C 0,0 km/h (0 Bft)
04.04.2018 05:45 9,8 °C 61 % 1004,4 hPa 0,0 mm 0,0 km/h (0 Bft) W-NW 296 ° 0 min 0,000 mm 0,0 UV-I 0 W/m² 2,6 °C 9,8 °C 0,0 km/h (0 Bft)
04.04.2018 05:46 9,9 °C 60 % 1004,4 hPa 0,0 mm 0,0 km/h (0 Bft) W-NW 296 ° 0 min 0,000 mm 0,0 UV-I 0 W/m² 2,5 °C 9,9 °C 0,0 km/h (0 Bft)
04.04.2018 05:47 10,0 °C 61 % 1004,5 hPa 0,0 mm 0,0 km/h (0 Bft) W-NW 296 ° 0 min 0,000 mm 0,0 UV-I 0 W/m² 2,8 °C 10,0 °C 0,0 km/h (0 Bft)
04.04.2018 05:48 9,9 °C 63 % 1004,5 hPa 0,0 mm 0,0 km/h (0 Bft) W-NW 296 ° 0 min 0,000 mm 0,0 UV-I 0 W/m² 3,2 °C 9,9 °C 0,0 km/h (0 Bft)
04.04.2018 05:49 9,8 °C 62 % 1004,5 hPa 0,0 mm 0,0 km/h (0 Bft) W-NW 296 ° 0 min 0,000 mm 0,0 UV-I 0 W/m² 2,9 °C 9,8 °C 0,0 km/h (0 Bft)
04.04.2018 05:50 9,8 °C 61 % 1004,4 hPa 0,0 mm 0,0 km/h (0 Bft) W-NW 296 ° 0 min 0,000 mm 0,0 UV-I 0 W/m² 2,6 °C 9,8 °C 0,0 km/h (0 Bft)
04.04.2018 05:51 9,9 °C 59 % 1004,4 hPa 0,0 mm 0,0 km/h (0 Bft) W-NW 296 ° 0 min 0,000 mm 0,0 UV-I 0 W/m² 2,3 °C 9,9 °C 0,0 km/h (0 Bft)
04.04.2018 05:52 9,9 °C 60 % 1004,4 hPa 0,0 mm 0,0 km/h (0 Bft) W-NW 296 ° 0 min 0,000 mm 0,0 UV-I 0 W/m² 2,5 °C 9,9 °C 0,0 km/h (0 Bft)
04.04.2018 05:53 10,1 °C 59 % 1004,4 hPa 0,0 mm 0,0 km/h (0 Bft) W-NW 296 ° 0 min 0,000 mm 0,0 UV-I 0 W/m² 2,5 °C 10,1 °C 0,0 km/h (0 Bft)
04.04.2018 05:54 10,1 °C 58 % 1004,4 hPa 0,0 mm 0,6 km/h (0 Bft) W-NW 296 ° 0 min 0,000 mm 0,0 UV-I 0 W/m² 2,2 °C 10,1 °C 3,2 km/h (1 Bft)
04.04.2018 05:55 10,3 °C 57 % 1004,4 hPa 0,0 mm 0,1 km/h (0 Bft) W-NW 296 ° 0 min 0,000 mm 0,0 UV-I 0 W/m² 2,2 °C 10,3 °C 1,6 km/h (1 Bft)
04.04.2018 05:56 10,3 °C 56 % 1004,4 hPa 0,0 mm 2,1 km/h (1 Bft) W-NW 296 ° 0 min 0,000 mm 0,0 UV-I 0 W/m² 1,9 °C 10,3 °C 3,2 km/h (1 Bft)
04.04.2018 05:57 10,4 °C 56 % 1004,5 hPa 0,0 mm 1,8 km/h (1 Bft) W-NW 296 ° 0 min 0,000 mm 0,0 UV-I 0 W/m² 2,0 °C 10,4 °C 4,8 km/h (1 Bft)
04.04.2018 05:58 10,4 °C 56 % 1004,4 hPa 0,0 mm 0,0 km/h (0 Bft) W-NW 296 ° 0 min 0,000 mm 0,0 UV-I 0 W/m² 2,0 °C 10,4 °C 0,0 km/h (0 Bft)
04.04.2018 05:59 10,5 °C 57 % 1004,5 hPa 0,0 mm 0,3 km/h (0 Bft) W-NW 296 ° 0 min 0,000 mm 0,0 UV-I 0 W/m² 2,3 °C 10,5 °C 1,6 km/h (1 Bft)
04.04.2018 06:00 10,4 °C 56 % 1004,5 hPa 0,0 mm 0,0 km/h (0 Bft) W-NW 296 ° 0 min 0,000 mm 0,0 UV-I 0 W/m² 2,0 °C 10,4 °C 0,0 km/h (0 Bft)
04.04.2018 06:01 10,4 °C 56 % 1004,5 hPa 0,0 mm 0,0 km/h (0 Bft) W-NW 296 ° 0 min 0,026 mm 0,0 UV-I 0 W/m² 2,0 °C 10,4 °C 0,0 km/h (0 Bft)
04.04.2018 06:02 10,4 °C 56 % 1004,5 hPa 0,0 mm 0,1 km/h (0 Bft) W-NW 296 ° 0 min 0,000 mm 0,0 UV-I 0 W/m² 2,0 °C 10,4 °C 1,6 km/h (1 Bft)
04.04.2018 06:03 10,3 °C 57 % 1004,5 hPa 0,0 mm 0,0 km/h (0 Bft) W-NW 296 ° 0 min 0,000 mm 0,0 UV-I 0 W/m² 2,2 °C 10,3 °C 0,0 km/h (0 Bft)
04.04.2018 06:04 10,3 °C 57 % 1004,5 hPa 0,0 mm 0,0 km/h (0 Bft) W-NW 296 ° 0 min 0,000 mm 0,0 UV-I 0 W/m² 2,2 °C 10,3 °C 0,0 km/h (0 Bft)
04.04.2018 06:05 10,3 °C 57 % 1004,5 hPa 0,0 mm 0,0 km/h (0 Bft) W-NW 296 ° 0 min 0,000 mm 0,0 UV-I 0 W/m² 2,2 °C 10,3 °C 0,0 km/h (0 Bft)
04.04.2018 06:06 10,3 °C 58 % 1004,5 hPa 0,0 mm 0,0 km/h (0 Bft) W-NW 296 ° 0 min 0,000 mm 0,0 UV-I 0 W/m² 2,4 °C 10,3 °C 0,0 km/h (0 Bft)
04.04.2018 06:07 10,3 °C 58 % 1004,5 hPa 0,0 mm 1,3 km/h (1 Bft) W-NW 296 ° 0 min 0,000 mm 0,0 UV-I 0 W/m² 2,4 °C 10,3 °C 4,8 km/h (1 Bft)
04.04.2018 06:08 10,3 °C 58 % 1004,5 hPa 0,0 mm 2,3 km/h (1 Bft) W-SW 251 ° 0 min 0,000 mm 0,0 UV-I 0 W/m² 2,4 °C 10,3 °C 3,2 km/h (1 Bft)
04.04.2018 06:09 10,3 °C 58 % 1004,4 hPa 0,0 mm 1,8 km/h (1 Bft) W-SW 251 ° 0 min 0,000 mm 0,0 UV-I 0 W/m² 2,4 °C 10,3 °C 3,2 km/h (1 Bft)
04.04.2018 06:10 10,3 °C 57 % 1004,4 hPa 0,0 mm 0,0 km/h (0 Bft) W-SW 251 ° 0 min 0,000 mm 0,0 UV-I 0 W/m² 2,2 °C 10,3 °C 0,0 km/h (0 Bft)
04.04.2018 06:11 10,2 °C 58 % 1004,4 hPa 0,0 mm 1,1 km/h (1 Bft) W-SW 251 ° 0 min 0,000 mm 0,0 UV-I 0 W/m² 2,3 °C 10,2 °C 4,8 km/h (1 Bft)
04.04.2018 06:12 10,2 °C 59 % 1004,4 hPa 0,0 mm 2,6 km/h (1 Bft) S-SW 206 ° 0 min 0,000 mm 0,0 UV-I 0 W/m² 2,6 °C 10,2 °C 4,8 km/h (1 Bft)
04.04.2018 06:13 10,1 °C 58 % 1004,4 hPa 0,0 mm 0,0 km/h (0 Bft) S-SW 207 ° 0 min 0,000 mm 0,0 UV-I 0 W/m² 2,2 °C 10,1 °C 0,0 km/h (0 Bft)
04.04.2018 06:14 9,9 °C 59 % 1004,3 hPa 0,0 mm 1,4 km/h (1 Bft) S-SW 206 ° 0 min 0,000 mm 0,0 UV-I 0 W/m² 2,3 °C 9,9 °C 4,8 km/h (1 Bft)
04.04.2018 06:15 9,8 °C 60 % 1004,3 hPa 0,0 mm 2,7 km/h (1 Bft) S-SW 207 ° 0 min 0,000 mm 0,0 UV-I 0 W/m² 2,4 °C 9,8 °C 3,2 km/h (1 Bft)
04.04.2018 06:16 9,8 °C 60 % 1004,4 hPa 0,0 mm 2,2 km/h (1 Bft) S-SW 207 ° 0 min 0,000 mm 0,0 UV-I 0 W/m² 2,4 °C 9,8 °C 4,8 km/h (1 Bft)
04.04.2018 06:17 9,8 °C 59 % 1004,4 hPa 0,0 mm 2,6 km/h (1 Bft) S-SW 206 ° 0 min 0,000 mm 0,0 UV-I 0 W/m² 2,2 °C 9,8 °C 3,2 km/h (1 Bft)
04.04.2018 06:18 9,8 °C 59 % 1004,4 hPa 0,0 mm 2,3 km/h (1 Bft) S-SW 207 ° 0 min 0,000 mm 0,0 UV-I 0 W/m² 2,2 °C 9,8 °C 3,2 km/h (1 Bft)
04.04.2018 06:19 9,8 °C 61 % 1004,4 hPa 0,0 mm 0,8 km/h (0 Bft) S-SW 207 ° 0 min 0,000 mm 0,0 UV-I 0 W/m² 2,6 °C 9,8 °C 3,2 km/h (1 Bft)
04.04.2018 06:20 9,8 °C 59 % 1004,3 hPa 0,0 mm 1,8 km/h (1 Bft) S-SW 206 ° 0 min 0,000 mm 0,0 UV-I 0 W/m² 2,2 °C 9,8 °C 3,2 km/h (1 Bft)
04.04.2018 06:21 9,9 °C 59 % 1004,4 hPa 0,0 mm 1,1 km/h (1 Bft) S-SW 207 ° 0 min 0,000 mm 0,0 UV-I 0 W/m² 2,3 °C 9,9 °C 1,6 km/h (1 Bft)
04.04.2018 06:22 9,9 °C 60 % 1004,3 hPa 0,0 mm 0,0 km/h (0 Bft) S-SW 206 ° 0 min 0,000 mm 0,0 UV-I 0 W/m² 2,5 °C 9,9 °C 0,0 km/h (0 Bft)
04.04.2018 06:23 9,9 °C 59 % 1004,3 hPa 0,0 mm 0,0 km/h (0 Bft) S-SW 207 ° 0 min 0,000 mm 0,0 UV-I 0 W/m² 2,3 °C 9,9 °C 0,0 km/h (0 Bft)
04.04.2018 06:24 9,8 °C 61 % 1004,3 hPa 0,0 mm 2,0 km/h (1 Bft) S-SW 206 ° 0 min 0,000 mm 0,0 UV-I 0 W/m² 2,6 °C 9,8 °C 3,2 km/h (1 Bft)
04.04.2018 06:25 9,9 °C 58 % 1004,3 hPa 0,0 mm 1,3 km/h (1 Bft) S-SW 206 ° 0 min 0,000 mm 0,0 UV-I 0 W/m² 2,0 °C 9,9 °C 3,2 km/h (1 Bft)
04.04.2018 06:26 9,9 °C 58 % 1004,3 hPa 0,0 mm 2,3 km/h (1 Bft) S-SW 206 ° 0 min 0,000 mm 0,0 UV-I 0 W/m² 2,0 °C 9,9 °C 3,2 km/h (1 Bft)
04.04.2018 06:27 10,1 °C 58 % 1004,3 hPa 0,0 mm 1,1 km/h (1 Bft) S-SW 206 ° 0 min 0,000 mm 0,0 UV-I 0 W/m² 2,2 °C 10,1 °C 1,6 km/h (1 Bft)
04.04.2018 06:28 10,1 °C 58 % 1004,3 hPa 0,0 mm 2,9 km/h (1 Bft) S-SW 206 ° 0 min 0,000 mm 0,0 UV-I 0 W/m² 2,2 °C 10,1 °C 4,8 km/h (1 Bft)
04.04.2018 06:29 10,2 °C 58 % 1004,2 hPa 0,0 mm 3,2 km/h (1 Bft) S 187 ° 0 min 0,000 mm 0,0 UV-I 0 W/m² 2,3 °C 10,2 °C 4,8 km/h (1 Bft)
04.04.2018 06:30 10,1 °C 60 % 1004,3 hPa 0,0 mm 5,1 km/h (1 Bft) O-NO 74 ° 0 min 0,000 mm 0,0 UV-I 0 W/m² 2,7 °C 10,1 °C 8,0 km/h (2 Bft)
04.04.2018 06:31 9,9 °C 61 % 1004,2 hPa 0,0 mm 4,7 km/h (1 Bft) O 82 ° 0 min 0,000 mm 0,0 UV-I 0 W/m² 2,7 °C 9,7 °C 6,4 km/h (2 Bft)
04.04.2018 06:32 9,7 °C 63 % 1004,2 hPa 0,0 mm 5,0 km/h (1 Bft) O 85 ° 0 min 0,000 mm 0,0 UV-I 0 W/m² 3,0 °C 9,4 °C 6,4 km/h (2 Bft)
04.04.2018 06:33 9,4 °C 64 % 1004,3 hPa 0,0 mm 2,5 km/h (1 Bft) O 85 ° 0 min 0,000 mm 0,0 UV-I 0 W/m² 2,9 °C 9,4 °C 4,8 km/h (1 Bft)
04.04.2018 06:34 9,3 °C 64 % 1004,2 hPa 0,0 mm 1,3 km/h (1 Bft) O 85 ° 0 min 0,000 mm 0,0 UV-I 0 W/m² 2,8 °C 9,3 °C 3,2 km/h (1 Bft)
04.04.2018 06:35 9,2 °C 63 % 1004,2 hPa 0,0 mm 0,0 km/h (0 Bft) O 85 ° 0 min 0,000 mm 0,0 UV-I 0 W/m² 2,5 °C 9,2 °C 0,0 km/h (0 Bft)
04.04.2018 06:36 9,1 °C 63 % 1004,2 hPa 0,0 mm 0,0 km/h (0 Bft) O 85 ° 0 min 0,000 mm 0,0 UV-I 0 W/m² 2,4 °C 9,1 °C 0,0 km/h (0 Bft)
04.04.2018 06:37 9,1 °C 63 % 1004,3 hPa 0,0 mm 0,0 km/h (0 Bft) O 85 ° 0 min 0,000 mm 0,0 UV-I 0 W/m² 2,4 °C 9,1 °C 0,0 km/h (0 Bft)
04.04.2018 06:38 9,1 °C 63 % 1004,3 hPa 0,0 mm 0,0 km/h (0 Bft) O 85 ° 0 min 0,000 mm 0,0 UV-I 0 W/m² 2,4 °C 9,1 °C 0,0 km/h (0 Bft)
04.04.2018 06:39 9,1 °C 63 % 1004,3 hPa 0,0 mm 0,9 km/h (0 Bft) O 96 ° 0 min 0,000 mm 0,0 UV-I 0 W/m² 2,4 °C 9,1 °C 1,6 km/h (1 Bft)
04.04.2018 06:40 9,2 °C 62 % 1004,3 hPa 0,0 mm 0,0 km/h (0 Bft) O 96 ° 0 min 0,000 mm 0,0 UV-I 0 W/m² 2,3 °C 9,2 °C 0,0 km/h (0 Bft)
04.04.2018 06:41 9,3 °C 63 % 1004,3 hPa 0,0 mm 0,0 km/h (0 Bft) O 96 ° 0 min 0,000 mm 0,0 UV-I 0 W/m² 2,6 °C 9,3 °C 0,0 km/h (0 Bft)
04.04.2018 06:42 9,3 °C 63 % 1004,4 hPa 0,0 mm 0,0 km/h (0 Bft) O 96 ° 0 min 0,000 mm 0,0 UV-I 0 W/m² 2,6 °C 9,3 °C 0,0 km/h (0 Bft)
04.04.2018 06:43 9,3 °C 63 % 1004,4 hPa 0,0 mm 0,0 km/h (0 Bft) O 96 ° 0 min 0,000 mm 0,0 UV-I 0 W/m² 2,6 °C 9,3 °C 0,0 km/h (0 Bft)
04.04.2018 06:44 9,1 °C 64 % 1004,4 hPa 0,0 mm 0,0 km/h (0 Bft) O 96 ° 0 min 0,000 mm 0,0 UV-I 0 W/m² 2,7 °C 9,1 °C 0,0 km/h (0 Bft)
04.04.2018 06:45 9,0 °C 65 % 1004,3 hPa 0,0 mm 0,0 km/h (0 Bft) O 96 ° 0 min 0,000 mm 0,0 UV-I 0 W/m² 2,8 °C 9,0 °C 0,0 km/h (0 Bft)
04.04.2018 06:46 8,9 °C 67 % 1004,3 hPa 0,0 mm 0,0 km/h (0 Bft) O 96 ° 0 min 0,000 mm 0,0 UV-I 0 W/m² 3,1 °C 8,9 °C 0,0 km/h (0 Bft)
04.04.2018 06:47 8,8 °C 65 % 1004,3 hPa 0,0 mm 1,3 km/h (1 Bft) O-SO 102 ° 0 min 0,000 mm 0,0 UV-I 0 W/m² 2,6 °C 8,8 °C 4,8 km/h (1 Bft)
04.04.2018 06:48 8,9 °C 64 % 1004,3 hPa 0,0 mm 3,7 km/h (1 Bft) O-SO 120 ° 0 min 0,000 mm 0,0 UV-I 0 W/m² 2,5 °C 8,9 °C 4,8 km/h (1 Bft)
04.04.2018 06:49 9,1 °C 63 % 1004,2 hPa 0,0 mm 3,5 km/h (1 Bft) S-SO 159 ° 0 min 0,000 mm 0,0 UV-I 0 W/m² 2,4 °C 9,1 °C 6,4 km/h (2 Bft)
04.04.2018 06:50 9,3 °C 62 % 1004,3 hPa 0,0 mm 3,1 km/h (1 Bft) S-SO 159 ° 0 min 0,000 mm 0,0 UV-I 0 W/m² 2,4 °C 9,3 °C 6,4 km/h (2 Bft)
04.04.2018 06:51 9,6 °C 62 % 1004,3 hPa 0,0 mm 2,5 km/h (1 Bft) S-SO 159 ° 0 min 0,000 mm 0,0 UV-I 0 W/m² 2,7 °C 9,6 °C 6,4 km/h (2 Bft)
04.04.2018 06:52 9,6 °C 61 % 1004,3 hPa 0,0 mm 1,9 km/h (1 Bft) O-SO 123 ° 0 min 0,000 mm 0,0 UV-I 0 W/m² 2,5 °C 9,6 °C 8,0 km/h (2 Bft)
04.04.2018 06:53 9,7 °C 61 % 1004,3 hPa 0,0 mm 6,8 km/h (2 Bft) O 96 ° 0 min 0,000 mm 0,0 UV-I 0 W/m² 2,5 °C 8,9 °C 11,3 km/h (2 Bft)
04.04.2018 06:54 9,8 °C 61 % 1004,2 hPa 0,0 mm 7,0 km/h (2 Bft) O-SO 112 ° 0 min 0,000 mm 0,0 UV-I 0 W/m² 2,6 °C 9,0 °C 11,3 km/h (2 Bft)
04.04.2018 06:55 9,9 °C 60 % 1004,3 hPa 0,0 mm 3,9 km/h (1 Bft) SO 142 ° 0 min 0,000 mm 0,0 UV-I 0 W/m² 2,5 °C 9,9 °C 4,8 km/h (1 Bft)
04.04.2018 06:56 9,9 °C 60 % 1004,3 hPa 0,0 mm 3,6 km/h (1 Bft) SO 146 ° 0 min 0,000 mm 0,0 UV-I 0 W/m² 2,5 °C 9,9 °C 6,4 km/h (2 Bft)
04.04.2018 06:57 9,9 °C 60 % 1004,3 hPa 0,0 mm 2,0 km/h (1 Bft) SO 146 ° 0 min 0,000 mm 0,0 UV-I 5 W/m² 2,5 °C 9,9 °C 3,2 km/h (1 Bft)
04.04.2018 06:58 9,8 °C 61 % 1004,3 hPa 0,0 mm 3,0 km/h (1 Bft) O-SO 119 ° 0 min 0,000 mm 0,0 UV-I 5 W/m² 2,6 °C 9,8 °C 4,8 km/h (1 Bft)
04.04.2018 06:59 9,8 °C 60 % 1004,3 hPa 0,0 mm 4,9 km/h (1 Bft) SO 134 ° 0 min 0,000 mm 0,0 UV-I 5 W/m² 2,4 °C 9,6 °C 12,9 km/h (3 Bft)
04.04.2018 07:00 9,8 °C 61 % 1004,3 hPa 0,0 mm 2,5 km/h (1 Bft) SO 136 ° 0 min 0,000 mm 0,0 UV-I 7 W/m² 2,6 °C 9,8 °C 4,8 km/h (1 Bft)
04.04.2018 07:01 9,7 °C 61 % 1004,4 hPa 0,0 mm 3,7 km/h (1 Bft) SO 146 ° 0 min 0,025 mm 0,0 UV-I 7 W/m² 2,5 °C 9,7 °C 4,8 km/h (1 Bft)
04.04.2018 07:02 9,8 °C 60 % 1004,3 hPa 0,0 mm 2,4 km/h (1 Bft) S-SO 156 ° 0 min 0,000 mm 0,0 UV-I 7 W/m² 2,4 °C 9,8 °C 6,4 km/h (2 Bft)
04.04.2018 07:03 9,8 °C 60 % 1004,4 hPa 0,0 mm 3,8 km/h (1 Bft) O-SO 121 ° 0 min 0,000 mm 0,0 UV-I 9 W/m² 2,4 °C 9,8 °C 4,8 km/h (1 Bft)
04.04.2018 07:04 9,8 °C 60 % 1004,3 hPa 0,0 mm 2,9 km/h (1 Bft) O-SO 121 ° 0 min 0,000 mm 0,0 UV-I 11 W/m² 2,4 °C 9,8 °C 3,2 km/h (1 Bft)
04.04.2018 07:05 9,8 °C 61 % 1004,3 hPa 0,0 mm 0,3 km/h (0 Bft) O-SO 121 ° 0 min 0,000 mm 0,0 UV-I 11 W/m² 2,6 °C 9,8 °C 1,6 km/h (1 Bft)
04.04.2018 07:06 9,7 °C 61 % 1004,3 hPa 0,0 mm 0,0 km/h (0 Bft) O-SO 121 ° 0 min 0,000 mm 0,0 UV-I 11 W/m² 2,5 °C 9,7 °C 0,0 km/h (0 Bft)
04.04.2018 07:07 9,7 °C 60 % 1004,3 hPa 0,0 mm 1,4 km/h (1 Bft) O-SO 121 ° 0 min 0,000 mm 0,0 UV-I 12 W/m² 2,3 °C 9,7 °C 3,2 km/h (1 Bft)
04.04.2018 07:08 9,7 °C 61 % 1004,3 hPa 0,0 mm 0,1 km/h (0 Bft) O-SO 121 ° 0 min 0,000 mm 0,0 UV-I 12 W/m² 2,5 °C 9,7 °C 1,6 km/h (1 Bft)
04.04.2018 07:09 9,5 °C 62 % 1004,3 hPa 0,0 mm 0,0 km/h (0 Bft) O-SO 121 ° 0 min 0,000 mm 0,0 UV-I 12 W/m² 2,6 °C 9,5 °C 0,0 km/h (0 Bft)
04.04.2018 07:10 9,2 °C 63 % 1004,3 hPa 0,0 mm 0,0 km/h (0 Bft) O-SO 121 ° 0 min 0,000 mm 0,0 UV-I 14 W/m² 2,5 °C 9,2 °C 0,0 km/h (0 Bft)
04.04.2018 07:11 8,8 °C 64 % 1004,3 hPa 0,0 mm 0,7 km/h (0 Bft) O-SO 121 ° 0 min 0,000 mm 0,0 UV-I 16 W/m² 2,4 °C 8,8 °C 1,6 km/h (1 Bft)
04.04.2018 07:12 8,6 °C 64 % 1004,3 hPa 0,0 mm 1,3 km/h (1 Bft) O-SO 121 ° 0 min 0,000 mm 0,0 UV-I 16 W/m² 2,2 °C 8,6 °C 3,2 km/h (1 Bft)
04.04.2018 07:13 8,4 °C 65 % 1004,3 hPa 0,0 mm 1,3 km/h (1 Bft) O-SO 121 ° 0 min 0,000 mm 0,0 UV-I 16 W/m² 2,2 °C 8,4 °C 1,6 km/h (1 Bft)
04.04.2018 07:14 8,3 °C 66 % 1004,4 hPa 0,0 mm 1,7 km/h (1 Bft) SO 126 ° 0 min 0,000 mm 0,0 UV-I 18 W/m² 2,3 °C 8,3 °C 3,2 km/h (1 Bft)
04.04.2018 07:15 8,3 °C 66 % 1004,3 hPa 0,0 mm 2,0 km/h (1 Bft) SO 126 ° 0 min 0,000 mm 0,0 UV-I 18 W/m² 2,3 °C 8,3 °C 3,2 km/h (1 Bft)
04.04.2018 07:16 8,4 °C 66 % 1004,3 hPa 0,0 mm 2,1 km/h (1 Bft) SO 126 ° 0 min 0,000 mm 0,0 UV-I 19 W/m² 2,4 °C 8,4 °C 3,2 km/h (1 Bft)
04.04.2018 07:17 8,4 °C 67 % 1004,3 hPa 0,0 mm 3,9 km/h (1 Bft) SO 126 ° 0 min 0,000 mm 0,0 UV-I 19 W/m² 2,6 °C 8,4 °C 4,8 km/h (1 Bft)
04.04.2018 07:18 8,4 °C 67 % 1004,3 hPa 0,0 mm 2,8 km/h (1 Bft) SO 126 ° 0 min 0,000 mm 0,0 UV-I 19 W/m² 2,6 °C 8,4 °C 4,8 km/h (1 Bft)
04.04.2018 07:19 8,4 °C 66 % 1004,3 hPa 0,0 mm 0,6 km/h (0 Bft) SO 126 ° 0 min 0,000 mm 0,0 UV-I 21 W/m² 2,4 °C 8,4 °C 1,6 km/h (1 Bft)
04.04.2018 07:20 8,4 °C 66 % 1004,3 hPa 0,0 mm 0,0 km/h (0 Bft) SO 126 ° 0 min 0,000 mm 0,0 UV-I 21 W/m² 2,4 °C 8,4 °C 0,0 km/h (0 Bft)
04.04.2018 07:21 8,2 °C 67 % 1004,3 hPa 0,0 mm 0,0 km/h (0 Bft) SO 126 ° 0 min 0,000 mm 0,0 UV-I 23 W/m² 2,4 °C 8,2 °C 0,0 km/h (0 Bft)
04.04.2018 07:22 8,2 °C 66 % 1004,4 hPa 0,0 mm 2,7 km/h (1 Bft) SO 126 ° 0 min 0,000 mm 0,0 UV-I 23 W/m² 2,2 °C 8,2 °C 4,8 km/h (1 Bft)
04.04.2018 07:23 8,4 °C 66 % 1004,4 hPa 0,0 mm 2,3 km/h (1 Bft) SO 126 ° 0 min 0,000 mm 0,0 UV-I 25 W/m² 2,4 °C 8,4 °C 4,8 km/h (1 Bft)
04.04.2018 07:24 8,6 °C 65 % 1004,4 hPa 0,0 mm 2,4 km/h (1 Bft) SO 126 ° 0 min 0,000 mm 0,0 UV-I 25 W/m² 2,4 °C 8,6 °C 3,2 km/h (1 Bft)
04.04.2018 07:25 8,8 °C 65 % 1004,4 hPa 0,0 mm 1,3 km/h (1 Bft) SO 126 ° 0 min 0,000 mm 0,0 UV-I 25 W/m² 2,6 °C 8,8 °C 1,6 km/h (1 Bft)
04.04.2018 07:26 9,0 °C 64 % 1004,4 hPa 0,0 mm 1,8 km/h (1 Bft) SO 126 ° 0 min 0,000 mm 0,0 UV-I 26 W/m² 2,6 °C 9,0 °C 3,2 km/h (1 Bft)
04.04.2018 07:27 9,1 °C 64 % 1004,3 hPa 0,0 mm 1,5 km/h (1 Bft) SO 126 ° 0 min 0,000 mm 0,0 UV-I 26 W/m² 2,7 °C 9,1 °C 3,2 km/h (1 Bft)
04.04.2018 07:28 9,2 °C 63 % 1004,3 hPa 0,0 mm 3,0 km/h (1 Bft) SO 126 ° 0 min 0,000 mm 0,0 UV-I 28 W/m² 2,5 °C 9,2 °C 4,8 km/h (1 Bft)
04.04.2018 07:29 9,3 °C 63 % 1004,3 hPa 0,0 mm 3,3 km/h (1 Bft) SO 126 ° 0 min 0,000 mm 0,0 UV-I 28 W/m² 2,6 °C 9,3 °C 4,8 km/h (1 Bft)
04.04.2018 07:30 9,4 °C 62 % 1004,3 hPa 0,0 mm 3,3 km/h (1 Bft) SO 126 ° 0 min 0,000 mm 0,0 UV-I 30 W/m² 2,5 °C 9,4 °C 4,8 km/h (1 Bft)
04.04.2018 07:31 9,6 °C 62 % 1004,3 hPa 0,0 mm 3,6 km/h (1 Bft) SO 126 ° 0 min 0,000 mm 0,0 UV-I 30 W/m² 2,7 °C 9,6 °C 4,8 km/h (1 Bft)
04.04.2018 07:32 9,6 °C 62 % 1004,2 hPa 0,0 mm 3,0 km/h (1 Bft) SO 126 ° 0 min 0,000 mm 0,0 UV-I 32 W/m² 2,7 °C 9,6 °C 4,8 km/h (1 Bft)
04.04.2018 07:33 9,7 °C 62 % 1004,2 hPa 0,0 mm 4,3 km/h (1 Bft) SO 142 ° 0 min 0,000 mm 0,0 UV-I 33 W/m² 2,8 °C 9,7 °C 6,4 km/h (2 Bft)
04.04.2018 07:34 9,7 °C 62 % 1004,2 hPa 0,0 mm 4,6 km/h (1 Bft) SO 146 ° 0 min 0,000 mm 0,0 UV-I 33 W/m² 2,8 °C 9,5 °C 6,4 km/h (2 Bft)
04.04.2018 07:35 9,7 °C 61 % 1004,2 hPa 0,0 mm 4,1 km/h (1 Bft) SO 146 ° 0 min 0,000 mm 0,0 UV-I 35 W/m² 2,5 °C 9,7 °C 6,4 km/h (2 Bft)
04.04.2018 07:36 9,7 °C 61 % 1004,2 hPa 0,0 mm 3,6 km/h (1 Bft) SO 146 ° 0 min 0,000 mm 0,0 UV-I 35 W/m² 2,5 °C 9,7 °C 4,8 km/h (1 Bft)
04.04.2018 07:37 9,8 °C 61 % 1004,2 hPa 0,0 mm 3,6 km/h (1 Bft) SO 146 ° 0 min 0,000 mm 0,0 UV-I 35 W/m² 2,6 °C 9,8 °C 6,4 km/h (2 Bft)
04.04.2018 07:38 9,9 °C 61 % 1004,2 hPa 0,0 mm 2,2 km/h (1 Bft) SO 146 ° 0 min 0,000 mm 0,0 UV-I 35 W/m² 2,7 °C 9,9 °C 3,2 km/h (1 Bft)
04.04.2018 07:39 9,9 °C 61 % 1004,2 hPa 0,0 mm 3,1 km/h (1 Bft) SO 146 ° 0 min 0,000 mm 0,0 UV-I 37 W/m² 2,7 °C 9,9 °C 4,8 km/h (1 Bft)
04.04.2018 07:40 9,9 °C 61 % 1004,1 hPa 0,0 mm 3,4 km/h (1 Bft) SO 146 ° 0 min 0,000 mm 0,0 UV-I 37 W/m² 2,7 °C 9,9 °C 4,8 km/h (1 Bft)
04.04.2018 07:41 9,9 °C 61 % 1004,1 hPa 0,0 mm 2,5 km/h (1 Bft) SO 146 ° 0 min 0,000 mm 0,0 UV-I 39 W/m² 2,7 °C 9,9 °C 3,2 km/h (1 Bft)
04.04.2018 07:42 9,9 °C 62 % 1004,1 hPa 0,0 mm 1,7 km/h (1 Bft) SO 146 ° 0 min 0,000 mm 0,0 UV-I 39 W/m² 3,0 °C 9,9 °C 4,8 km/h (1 Bft)
04.04.2018 07:43 9,9 °C 61 % 1004,2 hPa 0,0 mm 2,3 km/h (1 Bft) SO 146 ° 0 min 0,000 mm 0,0 UV-I 39 W/m² 2,7 °C 9,9 °C 3,2 km/h (1 Bft)
04.04.2018 07:44 9,9 °C 62 % 1004,2 hPa 0,0 mm 2,0 km/h (1 Bft) SO 146 ° 0 min 0,000 mm 0,0 UV-I 40 W/m² 3,0 °C 9,9 °C 4,8 km/h (1 Bft)
04.04.2018 07:45 9,8 °C 62 % 1004,2 hPa 0,0 mm 1,4 km/h (1 Bft) SO 146 ° 0 min 0,000 mm 0,0 UV-I 40 W/m² 2,9 °C 9,8 °C 3,2 km/h (1 Bft)
04.04.2018 07:46 9,8 °C 61 % 1004,2 hPa 0,0 mm 0,0 km/h (0 Bft) SO 146 ° 0 min 0,000 mm 0,0 UV-I 42 W/m² 2,6 °C 9,8 °C 0,0 km/h (0 Bft)
04.04.2018 07:47 9,8 °C 61 % 1004,2 hPa 0,0 mm 0,5 km/h (0 Bft) SO 146 ° 0 min 0,000 mm 0,0 UV-I 42 W/m² 2,6 °C 9,8 °C 3,2 km/h (1 Bft)
04.04.2018 07:48 9,8 °C 63 % 1004,2 hPa 0,0 mm 0,4 km/h (0 Bft) O-SO 123 ° 0 min 0,000 mm 0,0 UV-I 42 W/m² 3,1 °C 9,8 °C 1,6 km/h (1 Bft)
04.04.2018 07:49 9,5 °C 64 % 1004,3 hPa 0,0 mm 0,1 km/h (0 Bft) O-SO 123 ° 0 min 0,000 mm 0,0 UV-I 42 W/m² 3,0 °C 9,5 °C 1,6 km/h (1 Bft)
04.04.2018 07:50 9,2 °C 64 % 1004,3 hPa 0,0 mm 1,0 km/h (0 Bft) O-SO 114 ° 0 min 0,000 mm 0,0 UV-I 42 W/m² 2,8 °C 9,2 °C 3,2 km/h (1 Bft)
04.04.2018 07:51 8,8 °C 65 % 1004,3 hPa 0,0 mm 0,8 km/h (0 Bft) O-SO 113 ° 0 min 0,000 mm 0,0 UV-I 46 W/m² 2,6 °C 8,8 °C 3,2 km/h (1 Bft)
04.04.2018 07:52 8,5 °C 66 % 1004,2 hPa 0,0 mm 0,0 km/h (0 Bft) O-SO 113 ° 0 min 0,000 mm 0,0 UV-I 47 W/m² 2,5 °C 8,5 °C 0,0 km/h (0 Bft)
04.04.2018 07:53 8,2 °C 67 % 1004,3 hPa 0,0 mm 0,0 km/h (0 Bft) O-SO 113 ° 0 min 0,000 mm 0,0 UV-I 49 W/m² 2,4 °C 8,2 °C 0,0 km/h (0 Bft)
04.04.2018 07:54 7,9 °C 69 % 1004,2 hPa 0,0 mm 0,0 km/h (0 Bft) O-SO 113 ° 0 min 0,000 mm 0,0 UV-I 49 W/m² 2,6 °C 7,9 °C 0,0 km/h (0 Bft)
04.04.2018 07:55 7,7 °C 69 % 1004,3 hPa 0,0 mm 0,0 km/h (0 Bft) O-SO 113 ° 0 min 0,000 mm 0,0 UV-I 49 W/m² 2,4 °C 7,7 °C 0,0 km/h (0 Bft)
04.04.2018 07:56 7,7 °C 69 % 1004,4 hPa 0,0 mm 0,0 km/h (0 Bft) O-SO 113 ° 0 min 0,000 mm 0,0 UV-I 51 W/m² 2,4 °C 7,7 °C 0,0 km/h (0 Bft)
04.04.2018 07:57 7,8 °C 69 % 1004,4 hPa 0,0 mm 0,0 km/h (0 Bft) O-SO 113 ° 0 min 0,000 mm 0,0 UV-I 54 W/m² 2,5 °C 7,8 °C 0,0 km/h (0 Bft)
04.04.2018 07:58 7,8 °C 69 % 1004,3 hPa 0,0 mm 0,0 km/h (0 Bft) O-SO 113 ° 0 min 0,000 mm 0,5 UV-I 56 W/m² 2,5 °C 7,8 °C 0,0 km/h (0 Bft)
04.04.2018 07:59 7,9 °C 69 % 1004,3 hPa 0,0 mm 0,0 km/h (0 Bft) O-SO 113 ° 0 min 0,000 mm 0,5 UV-I 56 W/m² 2,6 °C 7,9 °C 0,0 km/h (0 Bft)
04.04.2018 08:00 8,0 °C 70 % 1004,3 hPa 0,0 mm 0,0 km/h (0 Bft) O-SO 113 ° 0 min 0,026 mm 0,5 UV-I 58 W/m² 2,9 °C 8,0 °C 0,0 km/h (0 Bft)
04.04.2018 08:01 8,1 °C 70 % 1004,3 hPa 0,0 mm 3,9 km/h (1 Bft) SW 225 ° 0 min 0,000 mm 0,5 UV-I 60 W/m² 3,0 °C 8,1 °C 4,8 km/h (1 Bft)
04.04.2018 08:02 8,0 °C 71 % 1004,3 hPa 0,0 mm 5,3 km/h (1 Bft) W-SW 253 ° 0 min 0,000 mm 0,5 UV-I 60 W/m² 3,1 °C 7,4 °C 6,4 km/h (2 Bft)
04.04.2018 08:03 8,1 °C 71 % 1004,3 hPa 0,0 mm 6,0 km/h (2 Bft) W-SW 257 ° 0 min 0,000 mm 0,5 UV-I 60 W/m² 3,2 °C 7,3 °C 8,0 km/h (2 Bft)
04.04.2018 08:04 8,1 °C 71 % 1004,3 hPa 0,0 mm 4,7 km/h (1 Bft) W-SW 257 ° 0 min 0,000 mm 0,5 UV-I 60 W/m² 3,2 °C 7,7 °C 6,4 km/h (2 Bft)
04.04.2018 08:05 8,1 °C 71 % 1004,3 hPa 0,0 mm 2,6 km/h (1 Bft) W-SW 257 ° 0 min 0,000 mm 0,5 UV-I 60 W/m² 3,2 °C 8,1 °C 3,2 km/h (1 Bft)
04.04.2018 08:06 8,1 °C 70 % 1004,3 hPa 0,0 mm 0,5 km/h (0 Bft) W-SW 257 ° 0 min 0,000 mm 0,5 UV-I 62 W/m² 3,0 °C 8,1 °C 1,6 km/h (1 Bft)
04.04.2018 08:07 8,1 °C 70 % 1004,3 hPa 0,0 mm 0,0 km/h (0 Bft) W-SW 257 ° 0 min 0,000 mm 0,5 UV-I 65 W/m² 3,0 °C 8,1 °C 0,0 km/h (0 Bft)
04.04.2018 08:08 8,2 °C 69 % 1004,3 hPa 0,0 mm 0,0 km/h (0 Bft) W-SW 257 ° 0 min 0,000 mm 0,6 UV-I 74 W/m² 2,9 °C 8,2 °C 0,0 km/h (0 Bft)
04.04.2018 08:09 8,3 °C 68 % 1004,3 hPa 0,0 mm 0,0 km/h (0 Bft) W-SW 257 ° 0 min 0,000 mm 0,6 UV-I 84 W/m² 2,7 °C 8,3 °C 0,0 km/h (0 Bft)
04.04.2018 08:10 8,5 °C 69 % 1004,3 hPa 0,0 mm 0,0 km/h (0 Bft) W-SW 257 ° 0 min 0,000 mm 0,6 UV-I 93 W/m² 3,1 °C 8,5 °C 0,0 km/h (0 Bft)
04.04.2018 08:11 8,6 °C 68 % 1004,3 hPa 0,0 mm 0,0 km/h (0 Bft) W-SW 257 ° 0 min 0,000 mm 0,6 UV-I 109 W/m² 3,0 °C 8,6 °C 0,0 km/h (0 Bft)
04.04.2018 08:12 8,7 °C 68 % 1004,3 hPa 0,0 mm 0,0 km/h (0 Bft) W-SW 257 ° 0 min 0,000 mm 0,6 UV-I 125 W/m² 3,1 °C 8,7 °C 0,0 km/h (0 Bft)
04.04.2018 08:13 8,9 °C 68 % 1004,2 hPa 0,0 mm 1,3 km/h (1 Bft) W-SW 257 ° 0 min 0,000 mm 0,6 UV-I 146 W/m² 3,3 °C 8,9 °C 3,2 km/h (1 Bft)
04.04.2018 08:14 9,0 °C 69 % 1004,2 hPa 0,0 mm 3,3 km/h (1 Bft) W-SW 257 ° 0 min 0,000 mm 0,6 UV-I 146 W/m² 3,6 °C 9,0 °C 4,8 km/h (1 Bft)
04.04.2018 08:15 9,1 °C 69 % 1004,2 hPa 0,0 mm 2,9 km/h (1 Bft) W-SW 257 ° 0 min 0,000 mm 0,7 UV-I 151 W/m² 3,7 °C 9,1 °C 3,2 km/h (1 Bft)
04.04.2018 08:16 9,2 °C 69 % 1004,2 hPa 0,0 mm 3,9 km/h (1 Bft) S-SO 167 ° 0 min 0,000 mm 0,7 UV-I 132 W/m² 3,8 °C 9,2 °C 6,4 km/h (2 Bft)
04.04.2018 08:17 9,2 °C 69 % 1004,1 hPa 0,0 mm 0,7 km/h (0 Bft) S-SO 167 ° 0 min 0,000 mm 0,7 UV-I 151 W/m² 3,8 °C 9,2 °C 1,6 km/h (1 Bft)
04.04.2018 08:18 9,3 °C 66 % 1004,1 hPa 0,0 mm 3,2 km/h (1 Bft) S-SO 167 ° 0 min 0,000 mm 0,7 UV-I 160 W/m² 3,3 °C 9,3 °C 6,4 km/h (2 Bft)
04.04.2018 08:19 9,4 °C 68 % 1004,1 hPa 0,0 mm 0,7 km/h (0 Bft) S-SO 167 ° 0 min 0,000 mm 0,7 UV-I 183 W/m² 3,8 °C 9,4 °C 4,8 km/h (1 Bft)
04.04.2018 08:20 9,4 °C 67 % 1004,1 hPa 0,0 mm 0,0 km/h (0 Bft) S-SO 167 ° 0 min 0,000 mm 0,7 UV-I 174 W/m² 3,6 °C 9,4 °C 0,0 km/h (0 Bft)
04.04.2018 08:21 9,4 °C 67 % 1004,0 hPa 0,0 mm 0,4 km/h (0 Bft) S-SO 167 ° 0 min 0,000 mm 0,7 UV-I 142 W/m² 3,6 °C 9,4 °C 1,6 km/h (1 Bft)
04.04.2018 08:22 9,7 °C 65 % 1004,1 hPa 0,0 mm 0,0 km/h (0 Bft) S-SO 167 ° 0 min 0,000 mm 0,7 UV-I 165 W/m² 3,4 °C 9,7 °C 0,0 km/h (0 Bft)
04.04.2018 08:23 9,7 °C 66 % 1004,1 hPa 0,0 mm 0,0 km/h (0 Bft) S-SO 167 ° 0 min 0,000 mm 0,7 UV-I 144 W/m² 3,7 °C 9,7 °C 0,0 km/h (0 Bft)
04.04.2018 08:24 9,6 °C 68 % 1004,1 hPa 0,0 mm 0,7 km/h (0 Bft) S-SO 167 ° 0 min 0,000 mm 0,7 UV-I 144 W/m² 4,0 °C 9,6 °C 1,6 km/h (1 Bft)
04.04.2018 08:25 9,5 °C 68 % 1004,0 hPa 0,0 mm 0,1 km/h (0 Bft) S-SO 167 ° 0 min 0,000 mm 0,8 UV-I 169 W/m² 3,9 °C 9,5 °C 1,6 km/h (1 Bft)
04.04.2018 08:26 9,5 °C 69 % 1004,0 hPa 0,0 mm 0,0 km/h (0 Bft) S-SO 167 ° 0 min 0,000 mm 0,8 UV-I 162 W/m² 4,1 °C 9,5 °C 0,0 km/h (0 Bft)
04.04.2018 08:27 9,6 °C 68 % 1004,0 hPa 0,0 mm 0,0 km/h (0 Bft) S-SO 167 ° 0 min 0,000 mm 0,8 UV-I 167 W/m² 4,0 °C 9,6 °C 0,0 km/h (0 Bft)
04.04.2018 08:28 9,8 °C 68 % 1004,0 hPa 0,0 mm 0,0 km/h (0 Bft) S-SO 167 ° 0 min 0,000 mm 0,8 UV-I 178 W/m² 4,2 °C 9,8 °C 0,0 km/h (0 Bft)
04.04.2018 08:29 9,9 °C 69 % 1004,1 hPa 0,0 mm 0,0 km/h (0 Bft) S-SO 167 ° 0 min 0,000 mm 0,9 UV-I 188 W/m² 4,5 °C 9,9 °C 0,0 km/h (0 Bft)
04.04.2018 08:30 10,1 °C 68 % 1004,0 hPa 0,0 mm 0,0 km/h (0 Bft) S-SO 167 ° 0 min 0,000 mm 0,8 UV-I 158 W/m² 4,5 °C 10,1 °C 0,0 km/h (0 Bft)
04.04.2018 08:31 10,3 °C 69 % 1004,0 hPa 0,0 mm 0,0 km/h (0 Bft) S-SO 167 ° 0 min 0,000 mm 0,9 UV-I 199 W/m² 4,9 °C 10,3 °C 0,0 km/h (0 Bft)
04.04.2018 08:32 10,3 °C 69 % 1004,0 hPa 0,0 mm 0,0 km/h (0 Bft) S-SO 167 ° 0 min 0,000 mm 0,9 UV-I 190 W/m² 4,9 °C 10,3 °C 0,0 km/h (0 Bft)
04.04.2018 08:33 10,3 °C 69 % 1004,0 hPa 0,0 mm 0,0 km/h (0 Bft) S-SO 167 ° 0 min 0,000 mm 0,9 UV-I 213 W/m² 4,9 °C 10,3 °C 0,0 km/h (0 Bft)
04.04.2018 08:34 10,2 °C 68 % 1004,0 hPa 0,0 mm 0,0 km/h (0 Bft) S-SO 167 ° 0 min 0,000 mm 0,9 UV-I 167 W/m² 4,6 °C 10,2 °C 0,0 km/h (0 Bft)
04.04.2018 08:35 10,1 °C 69 % 1004,0 hPa 0,0 mm 0,0 km/h (0 Bft) S-SO 167 ° 0 min 0,000 mm 1,0 UV-I 192 W/m² 4,7 °C 10,1 °C 0,0 km/h (0 Bft)
04.04.2018 08:36 10,2 °C 68 % 1004,0 hPa 0,0 mm 0,0 km/h (0 Bft) S-SO 167 ° 0 min 0,000 mm 1,0 UV-I 229 W/m² 4,6 °C 10,2 °C 0,0 km/h (0 Bft)
04.04.2018 08:37 10,2 °C 69 % 1004,0 hPa 0,0 mm 1,5 km/h (1 Bft) S-SO 167 ° 0 min 0,000 mm 1,0 UV-I 251 W/m² 4,8 °C 10,2 °C 4,8 km/h (1 Bft)
04.04.2018 08:38 10,2 °C 68 % 1003,9 hPa 0,0 mm 0,0 km/h (0 Bft) S-SO 167 ° 0 min 0,000 mm 1,0 UV-I 241 W/m² 4,6 °C 10,2 °C 0,0 km/h (0 Bft)
04.04.2018 08:39 10,2 °C 68 % 1003,9 hPa 0,0 mm 0,0 km/h (0 Bft) S-SO 167 ° 0 min 0,000 mm 1,0 UV-I 220 W/m² 4,6 °C 10,2 °C 0,0 km/h (0 Bft)
04.04.2018 08:40 10,2 °C 68 % 1003,9 hPa 0,0 mm 0,0 km/h (0 Bft) S-SO 167 ° 0 min 0,000 mm 1,0 UV-I 192 W/m² 4,6 °C 10,2 °C 0,0 km/h (0 Bft)
04.04.2018 08:41 10,3 °C 68 % 1003,9 hPa 0,0 mm 0,0 km/h (0 Bft) S-SO 167 ° 0 min 0,000 mm 1,0 UV-I 185 W/m² 4,7 °C 10,3 °C 0,0 km/h (0 Bft)
04.04.2018 08:42 10,3 °C 67 % 1003,9 hPa 0,0 mm 0,0 km/h (0 Bft) S-SO 167 ° 0 min 0,000 mm 1,0 UV-I 158 W/m² 4,4 °C 10,3 °C 0,0 km/h (0 Bft)
04.04.2018 08:43 10,4 °C 66 % 1003,9 hPa 0,0 mm 0,0 km/h (0 Bft) S-SO 167 ° 0 min 0,000 mm 0,9 UV-I 128 W/m² 4,3 °C 10,4 °C 0,0 km/h (0 Bft)
04.04.2018 08:44 10,7 °C 67 % 1003,9 hPa 0,0 mm 0,9 km/h (0 Bft) S-SO 167 ° 0 min 0,000 mm 0,9 UV-I 118 W/m² 4,8 °C 10,7 °C 4,8 km/h (1 Bft)
04.04.2018 08:45 10,8 °C 66 % 1003,9 hPa 0,0 mm 3,4 km/h (1 Bft) S-SO 167 ° 0 min 0,000 mm 0,9 UV-I 128 W/m² 4,7 °C 10,8 °C 4,8 km/h (1 Bft)
04.04.2018 08:46 11,1 °C 67 % 1003,9 hPa 0,0 mm 2,5 km/h (1 Bft) S-SO 167 ° 0 min 0,000 mm 1,0 UV-I 146 W/m² 5,2 °C 11,1 °C 4,8 km/h (1 Bft)
04.04.2018 08:47 11,2 °C 66 % 1003,9 hPa 0,0 mm 3,2 km/h (1 Bft) W 263 ° 0 min 0,000 mm 1,1 UV-I 197 W/m² 5,1 °C 11,2 °C 6,4 km/h (2 Bft)
04.04.2018 08:48 11,3 °C 68 % 1003,9 hPa 0,0 mm 0,8 km/h (0 Bft) W 263 ° 0 min 0,000 mm 1,1 UV-I 216 W/m² 5,6 °C 11,3 °C 3,2 km/h (1 Bft)
04.04.2018 08:49 11,4 °C 68 % 1003,8 hPa 0,0 mm 0,0 km/h (0 Bft) W 263 ° 0 min 0,000 mm 1,1 UV-I 241 W/m² 5,7 °C 11,4 °C 0,0 km/h (0 Bft)
04.04.2018 08:50 11,4 °C 66 % 1003,8 hPa 0,0 mm 0,0 km/h (0 Bft) W 263 ° 0 min 0,000 mm 1,2 UV-I 269 W/m² 5,3 °C 11,4 °C 0,0 km/h (0 Bft)
04.04.2018 08:51 11,6 °C 66 % 1003,7 hPa 0,0 mm 0,0 km/h (0 Bft) W 263 ° 0 min 0,000 mm 1,2 UV-I 218 W/m² 5,5 °C 11,6 °C 0,0 km/h (0 Bft)
04.04.2018 08:52 11,7 °C 66 % 1003,7 hPa 0,0 mm 0,0 km/h (0 Bft) W 263 ° 0 min 0,000 mm 1,3 UV-I 274 W/m² 5,6 °C 11,7 °C 0,0 km/h (0 Bft)
04.04.2018 08:53 11,5 °C 66 % 1003,7 hPa 0,0 mm 0,0 km/h (0 Bft) W 263 ° 1 min 0,000 mm 1,3 UV-I 292 W/m² 5,4 °C 11,5 °C 0,0 km/h (0 Bft)
04.04.2018 08:54 11,6 °C 64 % 1003,7 hPa 0,0 mm 0,0 km/h (0 Bft) W 263 ° 0 min 0,000 mm 1,3 UV-I 269 W/m² 5,0 °C 11,6 °C 0,0 km/h (0 Bft)
04.04.2018 08:55 11,6 °C 65 % 1003,7 hPa 0,0 mm 0,0 km/h (0 Bft) W 263 ° 0 min 0,000 mm 1,3 UV-I 276 W/m² 5,2 °C 11,6 °C 0,0 km/h (0 Bft)
04.04.2018 08:56 11,6 °C 64 % 1003,7 hPa 0,0 mm 0,0 km/h (0 Bft) W 263 ° 0 min 0,000 mm 1,1 UV-I 276 W/m² 5,0 °C 11,6 °C 0,0 km/h (0 Bft)
04.04.2018 08:57 11,7 °C 68 % 1003,7 hPa 0,0 mm 0,0 km/h (0 Bft) W 263 ° 1 min 0,000 mm 1,2 UV-I 302 W/m² 6,0 °C 11,7 °C 0,0 km/h (0 Bft)
04.04.2018 08:58 11,8 °C 63 % 1003,7 hPa 0,0 mm 0,6 km/h (0 Bft) W 263 ° 1 min 0,000 mm 1,4 UV-I 309 W/m² 5,0 °C 11,8 °C 1,6 km/h (1 Bft)
04.04.2018 08:59 12,1 °C 63 % 1003,7 hPa 0,0 mm 0,0 km/h (0 Bft) W 263 ° 1 min 0,000 mm 1,4 UV-I 302 W/m² 5,3 °C 12,1 °C 0,0 km/h (0 Bft)
04.04.2018 09:00 12,3 °C 63 % 1003,7 hPa 0,0 mm 0,0 km/h (0 Bft) W 263 ° 1 min 0,000 mm 1,4 UV-I 311 W/m² 5,5 °C 12,3 °C 0,0 km/h (0 Bft)
04.04.2018 09:01 12,6 °C 59 % 1003,7 hPa 0,0 mm 0,0 km/h (0 Bft) W 263 ° 1 min 0,076 mm 1,4 UV-I 313 W/m² 4,8 °C 12,6 °C 0,0 km/h (0 Bft)
04.04.2018 09:02 12,8 °C 60 % 1003,7 hPa 0,0 mm 0,4 km/h (0 Bft) W 263 ° 1 min 0,000 mm 1,5 UV-I 299 W/m² 5,2 °C 12,8 °C 1,6 km/h (1 Bft)
04.04.2018 09:03 13,0 °C 58 % 1003,7 hPa 0,0 mm 1,0 km/h (0 Bft) W 263 ° 0 min 0,000 mm 1,5 UV-I 288 W/m² 4,9 °C 13,0 °C 3,2 km/h (1 Bft)
04.04.2018 09:04 13,2 °C 58 % 1003,7 hPa 0,0 mm 1,3 km/h (1 Bft) W 263 ° 1 min 0,000 mm 1,6 UV-I 313 W/m² 5,1 °C 13,2 °C 1,6 km/h (1 Bft)
04.04.2018 09:05 13,5 °C 52 % 1003,7 hPa 0,0 mm 0,5 km/h (0 Bft) W 263 ° 1 min 0,000 mm 1,6 UV-I 336 W/m² 3,8 °C 13,5 °C 1,6 km/h (1 Bft)
04.04.2018 09:06 13,6 °C 56 % 1003,6 hPa 0,0 mm 0,8 km/h (0 Bft) W 263 ° 1 min 0,000 mm 1,6 UV-I 338 W/m² 5,0 °C 13,6 °C 1,6 km/h (1 Bft)
04.04.2018 09:07 13,8 °C 54 % 1003,7 hPa 0,0 mm 0,2 km/h (0 Bft) W 263 ° 1 min 0,000 mm 1,7 UV-I 338 W/m² 4,7 °C 13,8 °C 1,6 km/h (1 Bft)
04.04.2018 09:08 13,8 °C 52 % 1003,6 hPa 0,0 mm 3,0 km/h (1 Bft) SO 146 ° 1 min 0,000 mm 1,8 UV-I 366 W/m² 4,1 °C 13,8 °C 4,8 km/h (1 Bft)
04.04.2018 09:09 13,9 °C 49 % 1003,6 hPa 0,0 mm 1,7 km/h (1 Bft) SO 146 ° 1 min 0,000 mm 1,8 UV-I 369 W/m² 3,4 °C 13,9 °C 3,2 km/h (1 Bft)
04.04.2018 09:10 14,1 °C 48 % 1003,6 hPa 0,0 mm 0,1 km/h (0 Bft) SO 146 ° 1 min 0,000 mm 1,8 UV-I 362 W/m² 3,3 °C 14,1 °C 1,6 km/h (1 Bft)
04.04.2018 09:11 14,3 °C 46 % 1003,6 hPa 0,0 mm 0,0 km/h (0 Bft) SO 146 ° 1 min 0,000 mm 1,8 UV-I 350 W/m² 2,8 °C 14,3 °C 0,0 km/h (0 Bft)
04.04.2018 09:12 14,6 °C 52 % 1003,6 hPa 0,0 mm 0,0 km/h (0 Bft) SO 146 ° 1 min 0,000 mm 1,7 UV-I 338 W/m² 4,9 °C 14,6 °C 0,0 km/h (0 Bft)
04.04.2018 09:13 14,7 °C 48 % 1003,6 hPa 0,0 mm 0,0 km/h (0 Bft) SO 146 ° 1 min 0,000 mm 1,8 UV-I 366 W/m² 3,8 °C 14,7 °C 0,0 km/h (0 Bft)
04.04.2018 09:14 14,8 °C 48 % 1003,6 hPa 0,0 mm 0,2 km/h (0 Bft) SO 146 ° 1 min 0,000 mm 1,8 UV-I 339 W/m² 3,9 °C 14,8 °C 1,6 km/h (1 Bft)
04.04.2018 09:15 15,0 °C 48 % 1003,6 hPa 0,0 mm 1,9 km/h (1 Bft) SO 146 ° 1 min 0,000 mm 1,8 UV-I 357 W/m² 4,1 °C 15,0 °C 4,8 km/h (1 Bft)
04.04.2018 09:16 14,9 °C 46 % 1003,6 hPa 0,0 mm 3,8 km/h (1 Bft) O 88 ° 1 min 0,000 mm 1,8 UV-I 350 W/m² 3,4 °C 14,9 °C 6,4 km/h (2 Bft)
04.04.2018 09:17 14,9 °C 43 % 1003,6 hPa 0,0 mm 4,1 km/h (1 Bft) O-SO 105 ° 1 min 0,000 mm 1,8 UV-I 341 W/m² 2,4 °C 14,9 °C 6,4 km/h (2 Bft)
04.04.2018 09:18 14,9 °C 46 % 1003,6 hPa 0,0 mm 1,4 km/h (1 Bft) O-SO 105 ° 1 min 0,000 mm 1,9 UV-I 322 W/m² 3,4 °C 14,9 °C 4,8 km/h (1 Bft)
04.04.2018 09:19 14,8 °C 46 % 1003,5 hPa 0,0 mm 2,4 km/h (1 Bft) O-SO 105 ° 1 min 0,000 mm 1,7 UV-I 330 W/m² 3,3 °C 14,8 °C 3,2 km/h (1 Bft)
04.04.2018 09:20 14,8 °C 44 % 1003,6 hPa 0,0 mm 2,5 km/h (1 Bft) O-SO 115 ° 1 min 0,000 mm 1,8 UV-I 327 W/m² 2,7 °C 14,8 °C 4,8 km/h (1 Bft)
04.04.2018 09:21 14,8 °C 43 % 1003,6 hPa 0,0 mm 0,2 km/h (0 Bft) O-SO 115 ° 1 min 0,000 mm 2,0 UV-I 378 W/m² 2,3 °C 14,8 °C 1,6 km/h (1 Bft)
04.04.2018 09:22 14,9 °C 46 % 1003,5 hPa 0,0 mm 0,0 km/h (0 Bft) O-SO 115 ° 1 min 0,000 mm 1,8 UV-I 292 W/m² 3,4 °C 14,9 °C 0,0 km/h (0 Bft)
04.04.2018 09:23 14,8 °C 49 % 1003,6 hPa 0,0 mm 0,0 km/h (0 Bft) O-SO 115 ° 1 min 0,000 mm 1,8 UV-I 364 W/m² 4,2 °C 14,8 °C 0,0 km/h (0 Bft)
04.04.2018 09:24 14,8 °C 50 % 1003,6 hPa 0,0 mm 0,1 km/h (0 Bft) O-SO 115 ° 1 min 0,000 mm 1,8 UV-I 369 W/m² 4,5 °C 14,8 °C 1,6 km/h (1 Bft)
04.04.2018 09:25 14,7 °C 47 % 1003,5 hPa 0,0 mm 0,7 km/h (0 Bft) O-SO 115 ° 1 min 0,000 mm 1,9 UV-I 320 W/m² 3,5 °C 14,7 °C 3,2 km/h (1 Bft)
04.04.2018 09:26 14,7 °C 51 % 1003,5 hPa 0,0 mm 1,4 km/h (1 Bft) O-SO 115 ° 1 min 0,000 mm 1,9 UV-I 418 W/m² 4,7 °C 14,7 °C 4,8 km/h (1 Bft)
04.04.2018 09:27 14,7 °C 51 % 1003,5 hPa 0,0 mm 4,2 km/h (1 Bft) O-SO 114 ° 1 min 0,000 mm 2,1 UV-I 403 W/m² 4,7 °C 14,7 °C 4,8 km/h (1 Bft)
04.04.2018 09:28 14,8 °C 43 % 1003,5 hPa 0,0 mm 2,7 km/h (1 Bft) SO 126 ° 1 min 0,000 mm 2,2 UV-I 452 W/m² 2,3 °C 14,8 °C 4,8 km/h (1 Bft)
04.04.2018 09:29 15,1 °C 43 % 1003,5 hPa 0,0 mm 0,3 km/h (0 Bft) SO 126 ° 1 min 0,000 mm 2,2 UV-I 462 W/m² 2,6 °C 15,1 °C 1,6 km/h (1 Bft)
04.04.2018 09:30 15,2 °C 44 % 1003,5 hPa 0,0 mm 3,9 km/h (1 Bft) O-NO 70 ° 1 min 0,000 mm 2,2 UV-I 480 W/m² 3,0 °C 15,2 °C 8,0 km/h (2 Bft)
04.04.2018 09:31 15,3 °C 47 % 1003,5 hPa 0,0 mm 5,4 km/h (1 Bft) O-NO 62 ° 1 min 0,000 mm 2,2 UV-I 459 W/m² 4,1 °C 15,3 °C 8,0 km/h (2 Bft)
04.04.2018 09:32 15,4 °C 47 % 1003,4 hPa 0,0 mm 6,4 km/h (2 Bft) O-NO 66 ° 1 min 0,000 mm 2,2 UV-I 439 W/m² 4,1 °C 15,4 °C 8,0 km/h (2 Bft)
04.04.2018 09:33 15,5 °C 43 % 1003,4 hPa 0,0 mm 4,3 km/h (1 Bft) O 80 ° 1 min 0,000 mm 2,1 UV-I 413 W/m² 3,0 °C 15,5 °C 8,0 km/h (2 Bft)
04.04.2018 09:34 15,6 °C 42 % 1003,5 hPa 0,0 mm 4,0 km/h (1 Bft) O 96 ° 1 min 0,000 mm 1,9 UV-I 355 W/m² 2,7 °C 15,6 °C 4,8 km/h (1 Bft)
04.04.2018 09:35 15,6 °C 41 % 1003,4 hPa 0,0 mm 2,1 km/h (1 Bft) O 96 ° 1 min 0,000 mm 1,8 UV-I 309 W/m² 2,4 °C 15,6 °C 3,2 km/h (1 Bft)
04.04.2018 09:36 15,7 °C 41 % 1003,4 hPa 0,0 mm 3,8 km/h (1 Bft) NO 36 ° 0 min 0,000 mm 1,8 UV-I 264 W/m² 2,5 °C 15,7 °C 6,4 km/h (2 Bft)
04.04.2018 09:37 15,6 °C 44 % 1003,4 hPa 0,0 mm 6,1 km/h (2 Bft) O-SO 122 ° 0 min 0,000 mm 1,7 UV-I 237 W/m² 3,4 °C 15,6 °C 12,9 km/h (3 Bft)
04.04.2018 09:38 15,5 °C 47 % 1003,4 hPa 0,0 mm 3,8 km/h (1 Bft) NO 34 ° 0 min 0,000 mm 1,7 UV-I 255 W/m² 4,2 °C 15,5 °C 11,3 km/h (2 Bft)
04.04.2018 09:39 15,4 °C 44 % 1003,4 hPa 0,0 mm 3,8 km/h (1 Bft) O-SO 123 ° 0 min 0,000 mm 1,8 UV-I 276 W/m² 3,2 °C 15,4 °C 4,8 km/h (1 Bft)
04.04.2018 09:40 15,4 °C 42 % 1003,4 hPa 0,0 mm 4,9 km/h (1 Bft) O 86 ° 1 min 0,000 mm 1,9 UV-I 292 W/m² 2,6 °C 15,4 °C 9,7 km/h (2 Bft)
04.04.2018 09:41 15,5 °C 43 % 1003,4 hPa 0,0 mm 2,3 km/h (1 Bft) NO 34 ° 1 min 0,000 mm 2,0 UV-I 315 W/m² 3,0 °C 15,5 °C 6,4 km/h (2 Bft)
04.04.2018 09:42 15,4 °C 47 % 1003,3 hPa 0,0 mm 5,4 km/h (1 Bft) O-SO 123 ° 1 min 0,000 mm 2,0 UV-I 357 W/m² 4,1 °C 15,4 °C 8,0 km/h (2 Bft)
04.04.2018 09:43 15,5 °C 41 % 1003,4 hPa 0,0 mm 0,8 km/h (0 Bft) O-SO 107 ° 1 min 0,000 mm 2,2 UV-I 378 W/m² 2,3 °C 15,5 °C 4,8 km/h (1 Bft)
04.04.2018 09:44 15,6 °C 43 % 1003,4 hPa 0,0 mm 2,9 km/h (1 Bft) N-NO 26 ° 1 min 0,000 mm 2,2 UV-I 403 W/m² 3,1 °C 15,6 °C 4,8 km/h (1 Bft)
04.04.2018 09:45 15,6 °C 43 % 1003,4 hPa 0,0 mm 1,1 km/h (1 Bft) N-NO 26 ° 1 min 0,000 mm 2,2 UV-I 385 W/m² 3,1 °C 15,6 °C 3,2 km/h (1 Bft)
04.04.2018 09:46 15,6 °C 47 % 1003,4 hPa 0,0 mm 0,9 km/h (0 Bft) N-NO 26 ° 1 min 0,000 mm 2,3 UV-I 417 W/m² 4,3 °C 15,6 °C 1,6 km/h (1 Bft)
04.04.2018 09:47 15,8 °C 43 % 1003,4 hPa 0,0 mm 1,1 km/h (1 Bft) N-NO 26 ° 1 min 0,000 mm 2,3 UV-I 417 W/m² 3,3 °C 15,8 °C 3,2 km/h (1 Bft)
04.04.2018 09:48 15,8 °C 41 % 1003,4 hPa 0,0 mm 1,8 km/h (1 Bft) O-SO 103 ° 1 min 0,000 mm 2,3 UV-I 403 W/m² 2,6 °C 15,8 °C 4,8 km/h (1 Bft)
04.04.2018 09:49 15,9 °C 43 % 1003,4 hPa 0,0 mm 6,6 km/h (2 Bft) O 81 ° 1 min 0,000 mm 2,3 UV-I 404 W/m² 3,3 °C 15,9 °C 11,3 km/h (2 Bft)
04.04.2018 09:50 15,9 °C 41 % 1003,4 hPa 0,0 mm 5,3 km/h (1 Bft) SO 143 ° 1 min 0,000 mm 2,3 UV-I 413 W/m² 2,7 °C 15,9 °C 9,7 km/h (2 Bft)
04.04.2018 09:51 15,8 °C 45 % 1003,4 hPa 0,0 mm 1,5 km/h (1 Bft) SO 143 ° 1 min 0,000 mm 2,3 UV-I 406 W/m² 3,9 °C 15,8 °C 4,8 km/h (1 Bft)
04.04.2018 09:52 15,8 °C 45 % 1003,3 hPa 0,0 mm 1,3 km/h (1 Bft) O 101 ° 1 min 0,000 mm 2,3 UV-I 390 W/m² 3,9 °C 15,8 °C 3,2 km/h (1 Bft)
04.04.2018 09:53 15,8 °C 45 % 1003,4 hPa 0,0 mm 3,5 km/h (1 Bft) O 101 ° 1 min 0,000 mm 2,4 UV-I 434 W/m² 3,9 °C 15,8 °C 6,4 km/h (2 Bft)
04.04.2018 09:54 15,9 °C 45 % 1003,3 hPa 0,0 mm 1,8 km/h (1 Bft) SW 234 ° 1 min 0,000 mm 2,4 UV-I 434 W/m² 4,0 °C 15,9 °C 4,8 km/h (1 Bft)
04.04.2018 09:55 16,1 °C 39 % 1003,4 hPa 0,0 mm 2,9 km/h (1 Bft) W 273 ° 1 min 0,000 mm 2,5 UV-I 429 W/m² 2,1 °C 16,1 °C 4,8 km/h (1 Bft)
04.04.2018 09:56 16,2 °C 37 % 1003,3 hPa 0,0 mm 0,0 km/h (0 Bft) W 273 ° 1 min 0,000 mm 2,5 UV-I 434 W/m² 1,5 °C 16,2 °C 0,0 km/h (0 Bft)
04.04.2018 09:57 16,3 °C 40 % 1003,3 hPa 0,0 mm 1,4 km/h (1 Bft) W 280 ° 1 min 0,000 mm 2,5 UV-I 434 W/m² 2,7 °C 16,3 °C 3,2 km/h (1 Bft)
04.04.2018 09:58 16,4 °C 41 % 1003,3 hPa 0,0 mm 3,5 km/h (1 Bft) S-SW 210 ° 1 min 0,000 mm 2,6 UV-I 455 W/m² 3,1 °C 16,4 °C 4,8 km/h (1 Bft)
04.04.2018 09:59 16,5 °C 39 % 1003,4 hPa 0,0 mm 4,6 km/h (1 Bft) SW 229 ° 1 min 0,000 mm 2,5 UV-I 439 W/m² 2,5 °C 16,5 °C 8,0 km/h (2 Bft)
04.04.2018 10:00 16,6 °C 36 % 1003,4 hPa 0,0 mm 0,7 km/h (0 Bft) S-SW 199 ° 1 min 0,000 mm 2,5 UV-I 448 W/m² 1,5 °C 16,6 °C 1,6 km/h (1 Bft)
04.04.2018 10:01 16,7 °C 41 % 1003,4 hPa 0,0 mm 6,4 km/h (2 Bft) W 261 ° 1 min 0,203 mm 2,6 UV-I 446 W/m² 3,4 °C 16,7 °C 11,3 km/h (2 Bft)
04.04.2018 10:02 16,8 °C 40 % 1003,3 hPa 0,0 mm 4,0 km/h (1 Bft) W-SW 252 ° 1 min 0,000 mm 2,6 UV-I 457 W/m² 3,1 °C 16,8 °C 6,4 km/h (2 Bft)
04.04.2018 10:03 16,8 °C 36 % 1003,3 hPa 0,0 mm 2,4 km/h (1 Bft) W 259 ° 1 min 0,000 mm 2,6 UV-I 450 W/m² 1,7 °C 16,8 °C 4,8 km/h (1 Bft)
04.04.2018 10:04 16,9 °C 35 % 1003,4 hPa 0,0 mm 4,3 km/h (1 Bft) SW 218 ° 1 min 0,000 mm 2,7 UV-I 446 W/m² 1,3 °C 16,9 °C 6,4 km/h (2 Bft)
04.04.2018 10:05 16,8 °C 36 % 1003,3 hPa 0,0 mm 3,9 km/h (1 Bft) SW 223 ° 1 min 0,000 mm 2,7 UV-I 499 W/m² 1,7 °C 16,8 °C 9,7 km/h (2 Bft)
04.04.2018 10:06 16,8 °C 38 % 1003,3 hPa 0,0 mm 0,5 km/h (0 Bft) SW 223 ° 1 min 0,000 mm 2,8 UV-I 497 W/m² 2,4 °C 16,8 °C 1,6 km/h (1 Bft)
04.04.2018 10:07 16,8 °C 38 % 1003,3 hPa 0,0 mm 0,9 km/h (0 Bft) S 183 ° 1 min 0,000 mm 2,8 UV-I 503 W/m² 2,4 °C 16,8 °C 3,2 km/h (1 Bft)
04.04.2018 10:08 16,8 °C 40 % 1003,3 hPa 0,0 mm 1,2 km/h (1 Bft) S 181 ° 1 min 0,000 mm 2,9 UV-I 520 W/m² 3,1 °C 16,8 °C 1,6 km/h (1 Bft)
04.04.2018 10:09 16,9 °C 42 % 1003,3 hPa 0,0 mm 1,7 km/h (1 Bft) SW 225 ° 1 min 0,000 mm 2,8 UV-I 476 W/m² 3,9 °C 16,9 °C 3,2 km/h (1 Bft)
04.04.2018 10:10 17,1 °C 38 % 1003,3 hPa 0,0 mm 3,7 km/h (1 Bft) W-NW 284 ° 1 min 0,000 mm 3,0 UV-I 529 W/m² 2,7 °C 17,1 °C 9,7 km/h (2 Bft)
04.04.2018 10:11 17,2 °C 36 % 1003,2 hPa 0,0 mm 4,8 km/h (1 Bft) SW 236 ° 1 min 0,000 mm 2,9 UV-I 483 W/m² 2,0 °C 17,2 °C 6,4 km/h (2 Bft)
04.04.2018 10:12 17,2 °C 36 % 1003,2 hPa 0,0 mm 4,5 km/h (1 Bft) SW 214 ° 1 min 0,000 mm 2,7 UV-I 466 W/m² 2,0 °C 17,2 °C 14,5 km/h (3 Bft)
04.04.2018 10:13 17,1 °C 37 % 1003,3 hPa 0,0 mm 6,3 km/h (2 Bft) W 266 ° 1 min 0,000 mm 2,7 UV-I 439 W/m² 2,3 °C 17,1 °C 9,7 km/h (2 Bft)
04.04.2018 10:14 17,2 °C 35 % 1003,3 hPa 0,0 mm 3,9 km/h (1 Bft) S-SW 208 ° 1 min 0,000 mm 2,8 UV-I 452 W/m² 1,6 °C 17,2 °C 9,7 km/h (2 Bft)
04.04.2018 10:15 17,2 °C 36 % 1003,3 hPa 0,0 mm 2,3 km/h (1 Bft) W-SW 243 ° 1 min 0,000 mm 2,6 UV-I 422 W/m² 2,0 °C 17,2 °C 6,4 km/h (2 Bft)
04.04.2018 10:16 17,1 °C 34 % 1003,2 hPa 0,0 mm 7,2 km/h (2 Bft) SW 229 ° 1 min 0,000 mm 2,6 UV-I 410 W/m² 1,1 °C 17,1 °C 11,3 km/h (2 Bft)
04.04.2018 10:17 17,1 °C 34 % 1003,2 hPa 0,0 mm 3,2 km/h (1 Bft) SW 223 ° 1 min 0,000 mm 2,6 UV-I 452 W/m² 1,1 °C 17,1 °C 6,4 km/h (2 Bft)
04.04.2018 10:18 17,1 °C 40 % 1003,2 hPa 0,0 mm 2,1 km/h (1 Bft) W 264 ° 1 min 0,000 mm 2,9 UV-I 483 W/m² 3,4 °C 17,1 °C 4,8 km/h (1 Bft)
04.04.2018 10:19 17,1 °C 37 % 1003,2 hPa 0,0 mm 0,5 km/h (0 Bft) W 264 ° 1 min 0,000 mm 3,0 UV-I 487 W/m² 2,3 °C 17,1 °C 1,6 km/h (1 Bft)
04.04.2018 10:20 17,2 °C 37 % 1003,1 hPa 0,0 mm 2,9 km/h (1 Bft) W-NW 292 ° 1 min 0,000 mm 3,2 UV-I 547 W/m² 2,4 °C 17,2 °C 4,8 km/h (1 Bft)
04.04.2018 10:21 17,2 °C 37 % 1003,1 hPa 0,0 mm 6,4 km/h (2 Bft) W-SW 242 ° 1 min 0,000 mm 3,1 UV-I 480 W/m² 2,4 °C 17,2 °C 9,7 km/h (2 Bft)
04.04.2018 10:22 17,3 °C 38 % 1003,1 hPa 0,0 mm 2,8 km/h (1 Bft) W-SW 246 ° 1 min 0,000 mm 3,1 UV-I 501 W/m² 2,9 °C 17,3 °C 4,8 km/h (1 Bft)
04.04.2018 10:23 17,3 °C 39 % 1003,1 hPa 0,0 mm 2,4 km/h (1 Bft) W-SW 244 ° 1 min 0,000 mm 3,1 UV-I 499 W/m² 3,2 °C 17,3 °C 4,8 km/h (1 Bft)
04.04.2018 10:24 17,4 °C 35 % 1003,1 hPa 0,0 mm 3,2 km/h (1 Bft) N-NO 24 ° 1 min 0,000 mm 3,0 UV-I 547 W/m² 1,8 °C 17,4 °C 4,8 km/h (1 Bft)
04.04.2018 10:25 17,4 °C 36 % 1003,0 hPa 0,0 mm 0,0 km/h (0 Bft) N-NO 19 ° 1 min 0,000 mm 3,2 UV-I 555 W/m² 2,2 °C 17,4 °C 0,0 km/h (0 Bft)
04.04.2018 10:26 17,3 °C 39 % 1003,1 hPa 0,0 mm 2,6 km/h (1 Bft) NW 311 ° 1 min 0,000 mm 3,2 UV-I 552 W/m² 3,2 °C 17,3 °C 4,8 km/h (1 Bft)
04.04.2018 10:27 17,3 °C 36 % 1003,1 hPa 0,0 mm 1,2 km/h (1 Bft) SW 229 ° 1 min 0,000 mm 3,1 UV-I 519 W/m² 2,1 °C 17,3 °C 3,2 km/h (1 Bft)
04.04.2018 10:28 17,3 °C 36 % 1003,1 hPa 0,0 mm 2,6 km/h (1 Bft) S 183 ° 1 min 0,000 mm 3,1 UV-I 506 W/m² 2,1 °C 17,3 °C 8,0 km/h (2 Bft)
04.04.2018 10:29 17,4 °C 42 % 1003,1 hPa 0,0 mm 3,7 km/h (1 Bft) SW 223 ° 1 min 0,000 mm 3,0 UV-I 455 W/m² 4,4 °C 17,4 °C 8,0 km/h (2 Bft)
04.04.2018 10:30 17,4 °C 37 % 1003,1 hPa 0,0 mm 4,7 km/h (1 Bft) S-SW 196 ° 1 min 0,000 mm 2,9 UV-I 461 W/m² 2,6 °C 17,4 °C 9,7 km/h (2 Bft)
04.04.2018 10:31 17,3 °C 38 % 1003,1 hPa 0,0 mm 3,0 km/h (1 Bft) S-SW 196 ° 1 min 0,000 mm 3,0 UV-I 452 W/m² 2,9 °C 17,3 °C 6,4 km/h (2 Bft)
04.04.2018 10:32 17,3 °C 34 % 1003,1 hPa 0,0 mm 3,6 km/h (1 Bft) S 184 ° 1 min 0,000 mm 3,0 UV-I 475 W/m² 1,3 °C 17,3 °C 6,4 km/h (2 Bft)
04.04.2018 10:33 17,2 °C 38 % 1003,1 hPa 0,0 mm 1,9 km/h (1 Bft) S 184 ° 1 min 0,000 mm 2,9 UV-I 454 W/m² 2,8 °C 17,2 °C 3,2 km/h (1 Bft)
04.04.2018 10:34 17,2 °C 36 % 1003,1 hPa 0,0 mm 1,1 km/h (1 Bft) W 277 ° 1 min 0,000 mm 3,0 UV-I 480 W/m² 2,0 °C 17,2 °C 9,7 km/h (2 Bft)
04.04.2018 10:35 17,3 °C 37 % 1003,1 hPa 0,0 mm 6,4 km/h (2 Bft) N 355 ° 1 min 0,000 mm 3,0 UV-I 482 W/m² 2,5 °C 17,3 °C 9,7 km/h (2 Bft)
04.04.2018 10:36 17,2 °C 36 % 1003,0 hPa 0,0 mm 4,1 km/h (1 Bft) NW 325 ° 1 min 0,000 mm 3,1 UV-I 504 W/m² 2,0 °C 17,2 °C 6,4 km/h (2 Bft)
04.04.2018 10:37 17,2 °C 34 % 1003,0 hPa 0,0 mm 2,8 km/h (1 Bft) W-SW 243 ° 1 min 0,000 mm 3,2 UV-I 517 W/m² 1,2 °C 17,2 °C 6,4 km/h (2 Bft)
04.04.2018 10:38 17,0 °C 34 % 1003,0 hPa 0,0 mm 3,1 km/h (1 Bft) SW 230 ° 1 min 0,000 mm 3,2 UV-I 508 W/m² 1,0 °C 17,0 °C 11,3 km/h (2 Bft)
04.04.2018 10:39 17,0 °C 38 % 1003,1 hPa 0,0 mm 3,0 km/h (1 Bft) W-SW 257 ° 1 min 0,000 mm 3,2 UV-I 490 W/m² 2,6 °C 17,0 °C 9,7 km/h (2 Bft)
04.04.2018 10:40 17,1 °C 37 % 1003,1 hPa 0,0 mm 4,4 km/h (1 Bft) W 271 ° 1 min 0,000 mm 3,2 UV-I 497 W/m² 2,3 °C 17,1 °C 8,0 km/h (2 Bft)
04.04.2018 10:41 17,1 °C 39 % 1003,0 hPa 0,0 mm 2,0 km/h (1 Bft) W-SW 255 ° 1 min 0,000 mm 3,3 UV-I 557 W/m² 3,0 °C 17,1 °C 4,8 km/h (1 Bft)
04.04.2018 10:42 17,1 °C 38 % 1003,0 hPa 0,0 mm 3,5 km/h (1 Bft) N 349 ° 1 min 0,000 mm 3,5 UV-I 568 W/m² 2,7 °C 17,1 °C 4,8 km/h (1 Bft)
04.04.2018 10:43 17,2 °C 36 % 1003,0 hPa 0,0 mm 2,6 km/h (1 Bft) N 360 ° 1 min 0,000 mm 3,5 UV-I 571 W/m² 2,0 °C 17,2 °C 4,8 km/h (1 Bft)
04.04.2018 10:44 17,4 °C 35 % 1003,0 hPa 0,0 mm 3,4 km/h (1 Bft) W-SW 248 ° 1 min 0,000 mm 3,5 UV-I 561 W/m² 1,8 °C 17,4 °C 6,4 km/h (2 Bft)
04.04.2018 10:45 17,4 °C 36 % 1003,0 hPa 0,0 mm 3,4 km/h (1 Bft) W 263 ° 1 min 0,000 mm 3,4 UV-I 534 W/m² 2,2 °C 17,4 °C 6,4 km/h (2 Bft)
04.04.2018 10:46 17,4 °C 37 % 1003,0 hPa 0,0 mm 5,1 km/h (1 Bft) NO 49 ° 1 min 0,000 mm 3,8 UV-I 624 W/m² 2,6 °C 17,4 °C 9,7 km/h (2 Bft)
04.04.2018 10:47 17,4 °C 34 % 1003,0 hPa 0,0 mm 2,7 km/h (1 Bft) S-SO 149 ° 1 min 0,000 mm 3,9 UV-I 610 W/m² 1,4 °C 17,4 °C 8,0 km/h (2 Bft)
04.04.2018 10:48 17,4 °C 35 % 1003,0 hPa 0,0 mm 2,7 km/h (1 Bft) O 96 ° 1 min 0,000 mm 3,7 UV-I 642 W/m² 1,8 °C 17,4 °C 6,4 km/h (2 Bft)
04.04.2018 10:49 17,6 °C 37 % 1002,9 hPa 0,0 mm 4,0 km/h (1 Bft) W-SW 248 ° 1 min 0,000 mm 3,5 UV-I 606 W/m² 2,7 °C 17,6 °C 6,4 km/h (2 Bft)
04.04.2018 10:50 17,7 °C 38 % 1002,8 hPa 0,0 mm 2,4 km/h (1 Bft) W 265 ° 1 min 0,000 mm 3,6 UV-I 587 W/m² 3,2 °C 17,7 °C 9,7 km/h (2 Bft)
04.04.2018 10:51 17,8 °C 39 % 1002,8 hPa 0,0 mm 3,8 km/h (1 Bft) S 189 ° 1 min 0,000 mm 3,7 UV-I 619 W/m² 3,7 °C 17,8 °C 6,4 km/h (2 Bft)
04.04.2018 10:52 17,9 °C 37 % 1002,9 hPa 0,0 mm 1,8 km/h (1 Bft) NW 321 ° 1 min 0,000 mm 3,7 UV-I 582 W/m² 3,0 °C 17,9 °C 4,8 km/h (1 Bft)
04.04.2018 10:53 17,8 °C 32 % 1002,9 hPa 0,0 mm 6,1 km/h (2 Bft) W 281 ° 1 min 0,000 mm 3,5 UV-I 550 W/m² 0,9 °C 17,8 °C 11,3 km/h (2 Bft)
04.04.2018 10:54 17,7 °C 34 % 1002,9 hPa 0,0 mm 5,7 km/h (1 Bft) SO 144 ° 1 min 0,000 mm 3,4 UV-I 527 W/m² 1,6 °C 17,7 °C 8,0 km/h (2 Bft)
04.04.2018 10:55 17,6 °C 32 % 1002,8 hPa 0,0 mm 4,7 km/h (1 Bft) O-SO 115 ° 1 min 0,000 mm 3,1 UV-I 487 W/m² 0,7 °C 17,6 °C 6,4 km/h (2 Bft)
04.04.2018 10:56 17,6 °C 36 % 1002,8 hPa 0,0 mm 3,2 km/h (1 Bft) O-NO 77 ° 1 min 0,000 mm 3,0 UV-I 454 W/m² 2,4 °C 17,6 °C 6,4 km/h (2 Bft)
04.04.2018 10:57 17,6 °C 37 % 1002,8 hPa 0,0 mm 0,7 km/h (0 Bft) O-NO 76 ° 1 min 0,000 mm 3,0 UV-I 459 W/m² 2,7 °C 17,6 °C 1,6 km/h (1 Bft)
04.04.2018 10:58 17,6 °C 38 % 1002,9 hPa 0,0 mm 5,6 km/h (1 Bft) W-NW 301 ° 1 min 0,000 mm 2,8 UV-I 364 W/m² 3,1 °C 17,6 °C 14,5 km/h (3 Bft)
04.04.2018 10:59 17,7 °C 35 % 1002,8 hPa 0,0 mm 1,4 km/h (1 Bft) W-NW 291 ° 1 min 0,000 mm 2,6 UV-I 357 W/m² 2,1 °C 17,7 °C 6,4 km/h (2 Bft)
04.04.2018 11:00 17,5 °C 40 % 1002,8 hPa 0,0 mm 4,0 km/h (1 Bft) O 92 ° 1 min 0,305 mm 2,5 UV-I 352 W/m² 3,8 °C 17,5 °C 9,7 km/h (2 Bft)
04.04.2018 11:01 17,4 °C 34 % 1002,8 hPa 0,0 mm 4,0 km/h (1 Bft) NW 305 ° 1 min 0,000 mm 2,5 UV-I 345 W/m² 1,4 °C 17,4 °C 8,0 km/h (2 Bft)
04.04.2018 11:02 17,3 °C 35 % 1002,9 hPa 0,0 mm 3,3 km/h (1 Bft) W 262 ° 1 min 0,000 mm 2,5 UV-I 346 W/m² 1,7 °C 17,3 °C 6,4 km/h (2 Bft)
04.04.2018 11:03 17,3 °C 34 % 1002,8 hPa 0,0 mm 1,9 km/h (1 Bft) SW 228 ° 1 min 0,000 mm 2,7 UV-I 396 W/m² 1,3 °C 17,3 °C 4,8 km/h (1 Bft)
04.04.2018 11:04 17,2 °C 35 % 1002,8 hPa 0,0 mm 2,1 km/h (1 Bft) SW 233 ° 1 min 0,000 mm 2,8 UV-I 404 W/m² 1,6 °C 17,2 °C 4,8 km/h (1 Bft)
04.04.2018 11:05 17,3 °C 37 % 1002,8 hPa 0,0 mm 2,8 km/h (1 Bft) W 273 ° 1 min 0,000 mm 2,6 UV-I 376 W/m² 2,5 °C 17,3 °C 4,8 km/h (1 Bft)
04.04.2018 11:06 17,3 °C 37 % 1002,8 hPa 0,0 mm 0,8 km/h (0 Bft) W 273 ° 1 min 0,000 mm 2,6 UV-I 362 W/m² 2,5 °C 17,3 °C 3,2 km/h (1 Bft)
04.04.2018 11:07 17,3 °C 35 % 1002,8 hPa 0,0 mm 1,8 km/h (1 Bft) W 273 ° 1 min 0,000 mm 2,6 UV-I 360 W/m² 1,7 °C 17,3 °C 3,2 km/h (1 Bft)
04.04.2018 11:08 17,3 °C 36 % 1002,8 hPa 0,0 mm 2,8 km/h (1 Bft) W-SW 238 ° 1 min 0,000 mm 2,5 UV-I 355 W/m² 2,1 °C 17,3 °C 4,8 km/h (1 Bft)
04.04.2018 11:09 17,3 °C 35 % 1002,8 hPa 0,0 mm 6,2 km/h (2 Bft) SW 234 ° 1 min 0,000 mm 2,5 UV-I 353 W/m² 1,7 °C 17,3 °C 9,7 km/h (2 Bft)
04.04.2018 11:10 17,2 °C 36 % 1002,8 hPa 0,0 mm 5,4 km/h (1 Bft) SW 227 ° 1 min 0,000 mm 2,5 UV-I 352 W/m² 2,0 °C 17,2 °C 6,4 km/h (2 Bft)
04.04.2018 11:11 17,2 °C 37 % 1002,8 hPa 0,0 mm 0,7 km/h (0 Bft) SW 223 ° 1 min 0,000 mm 2,6 UV-I 348 W/m² 2,4 °C 17,2 °C 3,2 km/h (1 Bft)
04.04.2018 11:12 17,2 °C 36 % 1002,8 hPa 0,0 mm 1,3 km/h (1 Bft) SW 229 ° 1 min 0,000 mm 2,5 UV-I 336 W/m² 2,0 °C 17,2 °C 3,2 km/h (1 Bft)
04.04.2018 11:13 17,3 °C 39 % 1002,8 hPa 0,0 mm 2,3 km/h (1 Bft) W 279 ° 1 min 0,000 mm 2,6 UV-I 341 W/m² 3,2 °C 17,3 °C 4,8 km/h (1 Bft)
04.04.2018 11:14 17,3 °C 35 % 1002,8 hPa 0,0 mm 2,7 km/h (1 Bft) SW 221 ° 1 min 0,000 mm 2,7 UV-I 367 W/m² 1,7 °C 17,3 °C 3,2 km/h (1 Bft)
04.04.2018 11:15 17,2 °C 35 % 1002,8 hPa 0,0 mm 1,6 km/h (1 Bft) SW 221 ° 1 min 0,000 mm 2,8 UV-I 388 W/m² 1,6 °C 17,2 °C 4,8 km/h (1 Bft)
04.04.2018 11:16 17,3 °C 34 % 1002,8 hPa 0,0 mm 0,9 km/h (0 Bft) SW 221 ° 1 min 0,000 mm 2,9 UV-I 417 W/m² 1,3 °C 17,3 °C 3,2 km/h (1 Bft)
04.04.2018 11:17 17,3 °C 34 % 1002,8 hPa 0,0 mm 1,3 km/h (1 Bft) SW 221 ° 1 min 0,000 mm 3,0 UV-I 450 W/m² 1,3 °C 17,3 °C 3,2 km/h (1 Bft)
04.04.2018 11:18 17,3 °C 34 % 1002,9 hPa 0,0 mm 2,7 km/h (1 Bft) W-SW 256 ° 1 min 0,000 mm 3,1 UV-I 436 W/m² 1,3 °C 17,3 °C 4,8 km/h (1 Bft)
04.04.2018 11:19 17,3 °C 34 % 1002,8 hPa 0,0 mm 3,3 km/h (1 Bft) W-SW 248 ° 1 min 0,000 mm 3,1 UV-I 441 W/m² 1,3 °C 17,3 °C 4,8 km/h (1 Bft)
04.04.2018 11:20 17,4 °C 37 % 1002,8 hPa 0,0 mm 3,9 km/h (1 Bft) W 275 ° 1 min 0,000 mm 3,2 UV-I 455 W/m² 2,6 °C 17,4 °C 4,8 km/h (1 Bft)
04.04.2018 11:21 17,5 °C 34 % 1002,8 hPa 0,0 mm 2,4 km/h (1 Bft) SW 236 ° 1 min 0,000 mm 3,0 UV-I 429 W/m² 1,5 °C 17,5 °C 4,8 km/h (1 Bft)
04.04.2018 11:22 17,6 °C 35 % 1002,8 hPa 0,0 mm 3,4 km/h (1 Bft) W 268 ° 1 min 0,000 mm 2,9 UV-I 401 W/m² 2,0 °C 17,6 °C 4,8 km/h (1 Bft)
04.04.2018 11:23 17,6 °C 36 % 1002,8 hPa 0,0 mm 3,1 km/h (1 Bft) SW 227 ° 1 min 0,000 mm 3,0 UV-I 410 W/m² 2,4 °C 17,6 °C 6,4 km/h (2 Bft)
04.04.2018 11:24 17,7 °C 34 % 1002,8 hPa 0,0 mm 3,3 km/h (1 Bft) SW 227 ° 1 min 0,000 mm 2,9 UV-I 392 W/m² 1,6 °C 17,7 °C 6,4 km/h (2 Bft)
04.04.2018 11:25 17,7 °C 34 % 1002,8 hPa 0,0 mm 2,9 km/h (1 Bft) N-NW 330 ° 1 min 0,000 mm 2,8 UV-I 378 W/m² 1,6 °C 17,7 °C 4,8 km/h (1 Bft)
04.04.2018 11:26 17,7 °C 36 % 1002,8 hPa 0,0 mm 3,1 km/h (1 Bft) N-NW 331 ° 1 min 0,000 mm 2,7 UV-I 355 W/m² 2,4 °C 17,7 °C 4,8 km/h (1 Bft)
04.04.2018 11:27 17,7 °C 35 % 1002,7 hPa 0,0 mm 0,6 km/h (0 Bft) NW 323 ° 1 min 0,000 mm 2,7 UV-I 339 W/m² 2,1 °C 17,7 °C 1,6 km/h (1 Bft)
04.04.2018 11:28 17,7 °C 36 % 1002,8 hPa 0,0 mm 3,8 km/h (1 Bft) O 88 ° 1 min 0,000 mm 2,6 UV-I 336 W/m² 2,4 °C 17,7 °C 11,3 km/h (2 Bft)
04.04.2018 11:29 17,7 °C 38 % 1002,8 hPa 0,0 mm 3,9 km/h (1 Bft) S 176 ° 1 min 0,000 mm 2,6 UV-I 329 W/m² 3,2 °C 17,7 °C 8,0 km/h (2 Bft)
04.04.2018 11:30 17,7 °C 36 % 1002,8 hPa 0,0 mm 7,2 km/h (2 Bft) W-NW 283 ° 1 min 0,000 mm 2,6 UV-I 325 W/m² 2,4 °C 17,7 °C 11,3 km/h (2 Bft)
04.04.2018 11:31 17,7 °C 34 % 1002,8 hPa 0,0 mm 8,7 km/h (2 Bft) W-NW 283 ° 1 min 0,000 mm 2,6 UV-I 318 W/m² 1,6 °C 17,7 °C 12,9 km/h (3 Bft)
04.04.2018 11:32 17,6 °C 36 % 1002,8 hPa 0,0 mm 7,8 km/h (2 Bft) W-NW 288 ° 1 min 0,000 mm 2,6 UV-I 320 W/m² 2,4 °C 17,6 °C 11,3 km/h (2 Bft)
04.04.2018 11:33 17,6 °C 37 % 1002,8 hPa 0,0 mm 3,8 km/h (1 Bft) SW 236 ° 1 min 0,000 mm 2,6 UV-I 327 W/m² 2,7 °C 17,6 °C 9,7 km/h (2 Bft)
04.04.2018 11:34 17,6 °C 37 % 1002,8 hPa 0,0 mm 6,4 km/h (2 Bft) W 272 ° 1 min 0,000 mm 2,8 UV-I 357 W/m² 2,7 °C 17,6 °C 11,3 km/h (2 Bft)
04.04.2018 11:35 17,4 °C 36 % 1002,8 hPa 0,0 mm 5,8 km/h (2 Bft) W 270 ° 1 min 0,000 mm 3,4 UV-I 357 W/m² 2,2 °C 17,4 °C 9,7 km/h (2 Bft)
04.04.2018 11:36 17,4 °C 37 % 1002,7 hPa 0,0 mm 2,4 km/h (1 Bft) W 270 ° 1 min 0,000 mm 3,5 UV-I 504 W/m² 2,6 °C 17,4 °C 4,8 km/h (1 Bft)
04.04.2018 11:37 17,4 °C 42 % 1002,7 hPa 0,0 mm 2,5 km/h (1 Bft) NW 305 ° 1 min 0,000 mm 3,5 UV-I 526 W/m² 4,4 °C 17,4 °C 6,4 km/h (2 Bft)
04.04.2018 11:38 17,5 °C 39 % 1002,7 hPa 0,0 mm 1,1 km/h (1 Bft) NW 305 ° 1 min 0,000 mm 3,1 UV-I 432 W/m² 3,4 °C 17,5 °C 3,2 km/h (1 Bft)
04.04.2018 11:39 17,6 °C 37 % 1002,7 hPa 0,0 mm 2,3 km/h (1 Bft) NW 305 ° 1 min 0,000 mm 3,1 UV-I 411 W/m² 2,7 °C 17,6 °C 4,8 km/h (1 Bft)
04.04.2018 11:40 17,6 °C 37 % 1002,7 hPa 0,0 mm 1,7 km/h (1 Bft) W-SW 257 ° 1 min 0,000 mm 3,3 UV-I 445 W/m² 2,7 °C 17,6 °C 3,2 km/h (1 Bft)
04.04.2018 11:41 17,4 °C 35 % 1002,8 hPa 0,0 mm 0,0 km/h (0 Bft) W-SW 257 ° 1 min 0,000 mm 3,6 UV-I 487 W/m² 1,8 °C 17,4 °C 0,0 km/h (0 Bft)
04.04.2018 11:42 17,3 °C 35 % 1002,8 hPa 0,0 mm 3,5 km/h (1 Bft) S-SW 205 ° 1 min 0,000 mm 3,7 UV-I 533 W/m² 1,7 °C 17,3 °C 6,4 km/h (2 Bft)
04.04.2018 11:43 17,4 °C 36 % 1002,8 hPa 0,0 mm 5,0 km/h (1 Bft) NW 315 ° 1 min 0,000 mm 3,7 UV-I 533 W/m² 2,2 °C 17,4 °C 8,0 km/h (2 Bft)
04.04.2018 11:44 17,6 °C 34 % 1002,7 hPa 0,0 mm 9,7 km/h (2 Bft) SW 230 ° 1 min 0,000 mm 3,8 UV-I 552 W/m² 1,6 °C 17,6 °C 12,9 km/h (3 Bft)
04.04.2018 11:45 17,7 °C 32 % 1002,8 hPa 0,0 mm 5,5 km/h (1 Bft) S-SW 211 ° 1 min 0,000 mm 3,7 UV-I 628 W/m² 0,8 °C 17,7 °C 6,4 km/h (2 Bft)
04.04.2018 11:46 17,7 °C 31 % 1002,8 hPa 0,0 mm 5,8 km/h (2 Bft) W 260 ° 1 min 0,000 mm 4,1 UV-I 628 W/m² 0,4 °C 17,7 °C 6,4 km/h (2 Bft)
04.04.2018 11:47 17,8 °C 35 % 1002,8 hPa 0,0 mm 6,2 km/h (2 Bft) W 260 ° 1 min 0,000 mm 4,3 UV-I 645 W/m² 2,1 °C 17,8 °C 11,3 km/h (2 Bft)
04.04.2018 11:48 17,9 °C 32 % 1002,7 hPa 0,0 mm 9,5 km/h (2 Bft) SW 224 ° 1 min 0,000 mm 4,4 UV-I 661 W/m² 1,0 °C 17,9 °C 14,5 km/h (3 Bft)
04.04.2018 11:49 18,1 °C 34 % 1002,8 hPa 0,0 mm 5,2 km/h (1 Bft) W 276 ° 1 min 0,000 mm 4,2 UV-I 615 W/m² 2,0 °C 18,1 °C 9,7 km/h (2 Bft)
04.04.2018 11:50 18,1 °C 32 % 1002,7 hPa 0,0 mm 3,5 km/h (1 Bft) W 272 ° 1 min 0,000 mm 4,4 UV-I 677 W/m² 1,2 °C 18,1 °C 6,4 km/h (2 Bft)
04.04.2018 11:51 18,2 °C 32 % 1002,7 hPa 0,0 mm 2,8 km/h (1 Bft) W 268 ° 1 min 0,000 mm 4,4 UV-I 621 W/m² 1,2 °C 18,2 °C 6,4 km/h (2 Bft)
04.04.2018 11:52 18,2 °C 32 % 1002,7 hPa 0,0 mm 5,6 km/h (1 Bft) SW 227 ° 1 min 0,000 mm 3,8 UV-I 621 W/m² 1,2 °C 18,2 °C 11,3 km/h (2 Bft)
04.04.2018 11:53 18,2 °C 30 % 1002,6 hPa 0,0 mm 5,6 km/h (1 Bft) W-SW 252 ° 1 min 0,000 mm 3,7 UV-I 469 W/m² 0,3 °C 18,2 °C 14,5 km/h (3 Bft)
04.04.2018 11:54 18,2 °C 31 % 1002,6 hPa 0,0 mm 9,6 km/h (2 Bft) W 262 ° 1 min 0,000 mm 3,3 UV-I 452 W/m² 0,8 °C 18,2 °C 14,5 km/h (3 Bft)
04.04.2018 11:55 18,1 °C 34 % 1002,6 hPa 0,0 mm 7,7 km/h (2 Bft) W-SW 251 ° 1 min 0,000 mm 3,2 UV-I 429 W/m² 2,0 °C 18,1 °C 12,9 km/h (3 Bft)
04.04.2018 11:56 18,1 °C 33 % 1002,6 hPa 0,0 mm 5,7 km/h (1 Bft) W-SW 248 ° 1 min 0,000 mm 3,1 UV-I 376 W/m² 1,6 °C 18,1 °C 8,0 km/h (2 Bft)
04.04.2018 11:57 18,1 °C 32 % 1002,7 hPa 0,0 mm 6,4 km/h (2 Bft) SW 215 ° 1 min 0,000 mm 3,3 UV-I 469 W/m² 1,2 °C 18,1 °C 8,0 km/h (2 Bft)
04.04.2018 11:58 17,9 °C 30 % 1002,7 hPa 0,0 mm 8,7 km/h (2 Bft) SW 236 ° 1 min 0,000 mm 3,6 UV-I 497 W/m² 0,1 °C 17,9 °C 12,9 km/h (3 Bft)
04.04.2018 11:59 17,9 °C 31 % 1002,7 hPa 0,0 mm 4,9 km/h (1 Bft) W 281 ° 1 min 0,000 mm 3,9 UV-I 526 W/m² 0,5 °C 17,9 °C 6,4 km/h (2 Bft)
04.04.2018 12:00 18,1 °C 35 % 1002,7 hPa 0,0 mm 4,8 km/h (1 Bft) N-NW 338 ° 1 min 0,279 mm 4,0 UV-I 570 W/m² 2,4 °C 18,1 °C 9,7 km/h (2 Bft)
04.04.2018 12:01 18,1 °C 36 % 1002,7 hPa 0,0 mm 6,9 km/h (2 Bft) SW 235 ° 1 min 0,000 mm 4,2 UV-I 649 W/m² 2,8 °C 18,1 °C 9,7 km/h (2 Bft)
04.04.2018 12:02 18,2 °C 34 % 1002,6 hPa 0,0 mm 7,4 km/h (2 Bft) NO 50 ° 1 min 0,000 mm 4,5 UV-I 647 W/m² 2,1 °C 18,2 °C 14,5 km/h (3 Bft)
04.04.2018 12:03 18,2 °C 34 % 1002,6 hPa 0,0 mm 3,7 km/h (1 Bft) W-SW 248 ° 1 min 0,000 mm 4,2 UV-I 621 W/m² 2,1 °C 18,2 °C 6,4 km/h (2 Bft)
04.04.2018 12:04 18,3 °C 36 % 1002,7 hPa 0,0 mm 4,7 km/h (1 Bft) W-SW 245 ° 1 min 0,000 mm 3,9 UV-I 547 W/m² 3,0 °C 18,3 °C 8,0 km/h (2 Bft)
04.04.2018 12:05 18,4 °C 32 % 1002,6 hPa 0,0 mm 4,9 km/h (1 Bft) S-SW 213 ° 1 min 0,000 mm 4,0 UV-I 527 W/m² 1,4 °C 18,4 °C 8,0 km/h (2 Bft)
04.04.2018 12:06 18,3 °C 33 % 1002,6 hPa 0,0 mm 2,1 km/h (1 Bft) W-SW 238 ° 1 min 0,000 mm 4,3 UV-I 527 W/m² 1,8 °C 18,3 °C 4,8 km/h (1 Bft)
04.04.2018 12:07 18,4 °C 34 % 1002,6 hPa 0,0 mm 2,9 km/h (1 Bft) N-NW 342 ° 1 min 0,000 mm 4,2 UV-I 613 W/m² 2,3 °C 18,4 °C 4,8 km/h (1 Bft)
04.04.2018 12:08 18,5 °C 33 % 1002,6 hPa 0,0 mm 4,7 km/h (1 Bft) S-SW 198 ° 1 min 0,000 mm 4,5 UV-I 714 W/m² 1,9 °C 18,5 °C 9,7 km/h (2 Bft)
04.04.2018 12:09 18,6 °C 34 % 1002,6 hPa 0,0 mm 1,9 km/h (1 Bft) W 278 ° 1 min 0,000 mm 4,7 UV-I 700 W/m² 2,4 °C 18,6 °C 6,4 km/h (2 Bft)
04.04.2018 12:10 18,6 °C 32 % 1002,6 hPa 0,0 mm 6,6 km/h (2 Bft) S 189 ° 1 min 0,000 mm 4,9 UV-I 728 W/m² 1,6 °C 18,6 °C 14,5 km/h (3 Bft)
04.04.2018 12:11 18,6 °C 30 % 1002,6 hPa 0,0 mm 0,2 km/h (0 Bft) S 189 ° 1 min 0,000 mm 5,0 UV-I 765 W/m² 0,7 °C 18,6 °C 1,6 km/h (1 Bft)
04.04.2018 12:12 18,6 °C 32 % 1002,6 hPa 0,0 mm 2,1 km/h (1 Bft) W 273 ° 1 min 0,000 mm 4,8 UV-I 731 W/m² 1,6 °C 18,6 °C 3,2 km/h (1 Bft)
04.04.2018 12:13 18,8 °C 31 % 1002,5 hPa 0,0 mm 3,1 km/h (1 Bft) W 276 ° 1 min 0,000 mm 5,2 UV-I 731 W/m² 1,3 °C 18,8 °C 4,8 km/h (1 Bft)
04.04.2018 12:14 18,8 °C 34 % 1002,5 hPa 0,0 mm 2,1 km/h (1 Bft) NW 304 ° 1 min 0,000 mm 5,3 UV-I 786 W/m² 2,6 °C 18,8 °C 4,8 km/h (1 Bft)
04.04.2018 12:15 19,0 °C 33 % 1002,5 hPa 0,0 mm 4,8 km/h (1 Bft) S-SW 196 ° 1 min 0,000 mm 5,3 UV-I 835 W/m² 2,4 °C 19,0 °C 12,9 km/h (3 Bft)
04.04.2018 12:16 19,1 °C 29 % 1002,5 hPa 0,0 mm 8,5 km/h (2 Bft) S-SW 200 ° 1 min 0,000 mm 5,2 UV-I 807 W/m² 0,7 °C 19,1 °C 12,9 km/h (3 Bft)
04.04.2018 12:17 19,1 °C 31 % 1002,5 hPa 0,0 mm 5,3 km/h (1 Bft) W 275 ° 1 min 0,000 mm 4,9 UV-I 751 W/m² 1,6 °C 19,1 °C 8,0 km/h (2 Bft)
04.04.2018 12:18 19,2 °C 31 % 1002,4 hPa 0,0 mm 6,1 km/h (2 Bft) S-SW 209 ° 1 min 0,000 mm 5,0 UV-I 759 W/m² 1,7 °C 19,2 °C 14,5 km/h (3 Bft)
04.04.2018 12:19 19,3 °C 33 % 1002,4 hPa 0,0 mm 4,6 km/h (1 Bft) W-SW 248 ° 1 min 0,000 mm 4,9 UV-I 729 W/m² 2,6 °C 19,3 °C 12,9 km/h (3 Bft)
04.04.2018 12:20 19,2 °C 29 % 1002,4 hPa 0,0 mm 4,5 km/h (1 Bft) W-SW 250 ° 1 min 0,000 mm 5,0 UV-I 700 W/m² 0,7 °C 19,2 °C 9,7 km/h (2 Bft)
04.04.2018 12:21 19,1 °C 27 % 1002,4 hPa 0,0 mm 1,0 km/h (0 Bft) S 183 ° 1 min 0,000 mm 5,1 UV-I 773 W/m² -0,3 °C 19,1 °C 1,6 km/h (1 Bft)
04.04.2018 12:22 18,8 °C 28 % 1002,4 hPa 0,0 mm 2,9 km/h (1 Bft) NO 46 ° 1 min 0,000 mm 5,3 UV-I 773 W/m² -0,1 °C 18,8 °C 6,4 km/h (2 Bft)
04.04.2018 12:23 18,7 °C 32 % 1002,3 hPa 0,0 mm 1,9 km/h (1 Bft) O-NO 75 ° 1 min 0,000 mm 5,3 UV-I 816 W/m² 1,7 °C 18,7 °C 4,8 km/h (1 Bft)
04.04.2018 12:24 18,8 °C 30 % 1002,3 hPa 0,0 mm 1,4 km/h (1 Bft) W-SW 242 ° 1 min 0,000 mm 5,0 UV-I 816 W/m² 0,9 °C 18,8 °C 6,4 km/h (2 Bft)
04.04.2018 12:25 18,7 °C 28 % 1002,3 hPa 0,0 mm 3,1 km/h (1 Bft) W 262 ° 1 min 0,000 mm 5,1 UV-I 758 W/m² -0,2 °C 18,7 °C 6,4 km/h (2 Bft)
04.04.2018 12:26 18,8 °C 32 % 1002,3 hPa 0,0 mm 3,5 km/h (1 Bft) SW 226 ° 1 min 0,000 mm 5,0 UV-I 758 W/m² 1,8 °C 18,8 °C 8,0 km/h (2 Bft)
04.04.2018 12:27 18,9 °C 31 % 1002,3 hPa 0,0 mm 4,6 km/h (1 Bft) SW 232 ° 1 min 0,000 mm 5,2 UV-I 766 W/m² 1,4 °C 18,9 °C 8,0 km/h (2 Bft)
04.04.2018 12:28 19,0 °C 29 % 1002,3 hPa 0,0 mm 6,9 km/h (2 Bft) W-SW 248 ° 1 min 0,000 mm 5,2 UV-I 766 W/m² 0,6 °C 19,0 °C 11,3 km/h (2 Bft)
04.04.2018 12:29 19,0 °C 29 % 1002,3 hPa 0,0 mm 3,9 km/h (1 Bft) SW 223 ° 1 min 0,000 mm 5,2 UV-I 782 W/m² 0,6 °C 19,0 °C 4,8 km/h (1 Bft)
04.04.2018 12:30 19,0 °C 28 % 1002,3 hPa 0,0 mm 3,0 km/h (1 Bft) N-NW 327 ° 1 min 0,000 mm 5,3 UV-I 812 W/m² 0,1 °C 19,0 °C 4,8 km/h (1 Bft)
04.04.2018 12:31 19,0 °C 28 % 1002,2 hPa 0,0 mm 2,4 km/h (1 Bft) NW 304 ° 1 min 0,000 mm 5,1 UV-I 765 W/m² 0,1 °C 19,0 °C 3,2 km/h (1 Bft)
04.04.2018 12:32 19,1 °C 32 % 1002,2 hPa 0,0 mm 3,8 km/h (1 Bft) O 83 ° 1 min 0,000 mm 4,9 UV-I 735 W/m² 2,0 °C 19,1 °C 11,3 km/h (2 Bft)
04.04.2018 12:33 19,2 °C 31 % 1002,2 hPa 0,0 mm 5,5 km/h (1 Bft) O-SO 121 ° 1 min 0,000 mm 5,0 UV-I 768 W/m² 1,7 °C 19,2 °C 8,0 km/h (2 Bft)
04.04.2018 12:34 19,0 °C 28 % 1002,2 hPa 0,0 mm 6,9 km/h (2 Bft) O-NO 68 ° 1 min 0,000 mm 5,1 UV-I 763 W/m² 0,1 °C 19,0 °C 11,3 km/h (2 Bft)
04.04.2018 12:35 18,8 °C 27 % 1002,2 hPa 0,0 mm 4,2 km/h (1 Bft) O 92 ° 1 min 0,000 mm 5,1 UV-I 763 W/m² -0,6 °C 18,8 °C 9,7 km/h (2 Bft)
04.04.2018 12:36 18,7 °C 28 % 1002,2 hPa 0,0 mm 3,6 km/h (1 Bft) O-NO 57 ° 1 min 0,000 mm 5,0 UV-I 759 W/m² -0,2 °C 18,7 °C 6,4 km/h (2 Bft)
04.04.2018 12:37 18,6 °C 28 % 1002,2 hPa 0,0 mm 4,6 km/h (1 Bft) NO 48 ° 1 min 0,000 mm 5,1 UV-I 770 W/m² -0,3 °C 18,6 °C 6,4 km/h (2 Bft)
04.04.2018 12:38 18,6 °C 27 % 1002,2 hPa 0,0 mm 3,2 km/h (1 Bft) S 189 ° 1 min 0,000 mm 5,1 UV-I 747 W/m² -0,8 °C 18,6 °C 4,8 km/h (1 Bft)
04.04.2018 12:39 18,6 °C 30 % 1002,1 hPa 0,0 mm 1,2 km/h (1 Bft) S-SW 213 ° 1 min 0,000 mm 4,6 UV-I 663 W/m² 0,7 °C 18,6 °C 1,6 km/h (1 Bft)
04.04.2018 12:40 18,6 °C 27 % 1002,1 hPa 0,0 mm 1,7 km/h (1 Bft) NO 42 ° 1 min 0,000 mm 4,7 UV-I 701 W/m² -0,8 °C 18,6 °C 3,2 km/h (1 Bft)
04.04.2018 12:41 18,7 °C 31 % 1002,1 hPa 0,0 mm 3,1 km/h (1 Bft) O-NO 68 ° 1 min 0,000 mm 4,9 UV-I 714 W/m² 1,2 °C 18,7 °C 4,8 km/h (1 Bft)
04.04.2018 12:42 18,8 °C 28 % 1002,1 hPa 0,0 mm 1,8 km/h (1 Bft) O-NO 59 ° 1 min 0,000 mm 4,8 UV-I 707 W/m² -0,1 °C 18,8 °C 3,2 km/h (1 Bft)
04.04.2018 12:43 18,8 °C 31 % 1002,1 hPa 0,0 mm 4,2 km/h (1 Bft) NO 52 ° 1 min 0,000 mm 4,6 UV-I 656 W/m² 1,3 °C 18,8 °C 6,4 km/h (2 Bft)
04.04.2018 12:44 18,9 °C 28 % 1002,1 hPa 0,0 mm 5,5 km/h (1 Bft) NO 37 ° 1 min 0,000 mm 4,8 UV-I 700 W/m² -0,0 °C 18,9 °C 8,0 km/h (2 Bft)
04.04.2018 12:45 18,9 °C 28 % 1002,1 hPa 0,0 mm 3,4 km/h (1 Bft) NO 55 ° 1 min 0,000 mm 4,6 UV-I 673 W/m² -0,0 °C 18,9 °C 4,8 km/h (1 Bft)
04.04.2018 12:46 18,9 °C 28 % 1002,1 hPa 0,0 mm 5,7 km/h (1 Bft) N-NO 22 ° 1 min 0,000 mm 4,6 UV-I 622 W/m² -0,0 °C 18,9 °C 11,3 km/h (2 Bft)
04.04.2018 12:47 19,1 °C 27 % 1002,0 hPa 0,0 mm 6,0 km/h (2 Bft) N 5 ° 1 min 0,000 mm 4,5 UV-I 621 W/m² -0,3 °C 19,1 °C 8,0 km/h (2 Bft)
04.04.2018 12:48 19,1 °C 30 % 1002,0 hPa 0,0 mm 4,0 km/h (1 Bft) N-NO 14 ° 1 min 0,000 mm 4,4 UV-I 615 W/m² 1,1 °C 19,1 °C 4,8 km/h (1 Bft)
04.04.2018 12:49 19,2 °C 29 % 1002,1 hPa 0,0 mm 1,3 km/h (1 Bft) N 355 ° 1 min 0,000 mm 4,6 UV-I 668 W/m² 0,7 °C 19,2 °C 4,8 km/h (1 Bft)
04.04.2018 12:50 19,2 °C 28 % 1002,1 hPa 0,0 mm 0,1 km/h (0 Bft) N 355 ° 1 min 0,000 mm 4,7 UV-I 626 W/m² 0,3 °C 19,2 °C 1,6 km/h (1 Bft)
04.04.2018 12:51 19,2 °C 30 % 1002,1 hPa 0,0 mm 4,7 km/h (1 Bft) N 355 ° 1 min 0,000 mm 4,5 UV-I 631 W/m² 1,2 °C 19,2 °C 6,4 km/h (2 Bft)
04.04.2018 12:52 19,2 °C 27 % 1002,1 hPa 0,0 mm 3,6 km/h (1 Bft) NO 40 ° 1 min 0,000 mm 4,6 UV-I 643 W/m² -0,2 °C 19,2 °C 4,8 km/h (1 Bft)
04.04.2018 12:53 19,3 °C 29 % 1002,1 hPa 0,0 mm 3,1 km/h (1 Bft) W-NW 284 ° 1 min 0,000 mm 4,9 UV-I 708 W/m² 0,8 °C 19,3 °C 4,8 km/h (1 Bft)
04.04.2018 12:54 19,3 °C 29 % 1002,0 hPa 0,0 mm 3,8 km/h (1 Bft) W-NW 287 ° 1 min 0,000 mm 4,6 UV-I 661 W/m² 0,8 °C 19,3 °C 4,8 km/h (1 Bft)
04.04.2018 12:55 19,3 °C 31 % 1002,1 hPa 0,0 mm 3,1 km/h (1 Bft) W-NW 292 ° 1 min 0,000 mm 4,5 UV-I 605 W/m² 1,8 °C 19,3 °C 6,4 km/h (2 Bft)
04.04.2018 12:56 19,3 °C 28 % 1002,0 hPa 0,0 mm 2,1 km/h (1 Bft) W-NW 292 ° 1 min 0,000 mm 4,4 UV-I 615 W/m² 0,3 °C 19,3 °C 3,2 km/h (1 Bft)
04.04.2018 12:57 19,2 °C 30 % 1002,0 hPa 0,0 mm 4,0 km/h (1 Bft) NW 309 ° 1 min 0,000 mm 4,7 UV-I 668 W/m² 1,2 °C 19,2 °C 6,4 km/h (2 Bft)
04.04.2018 12:58 19,2 °C 29 % 1002,0 hPa 0,0 mm 3,1 km/h (1 Bft) W-SW 248 ° 1 min 0,000 mm 4,4 UV-I 603 W/m² 0,7 °C 19,2 °C 6,4 km/h (2 Bft)
04.04.2018 12:59 19,2 °C 30 % 1002,0 hPa 0,0 mm 3,6 km/h (1 Bft) W-SW 242 ° 1 min 0,000 mm 4,4 UV-I 606 W/m² 1,2 °C 19,2 °C 6,4 km/h (2 Bft)
04.04.2018 13:00 19,3 °C 29 % 1002,1 hPa 0,0 mm 1,4 km/h (1 Bft) SW 236 ° 1 min 0,000 mm 4,1 UV-I 568 W/m² 0,8 °C 19,3 °C 4,8 km/h (1 Bft)
04.04.2018 13:01 19,3 °C 30 % 1002,1 hPa 0,0 mm 4,8 km/h (1 Bft) S 190 ° 1 min 0,432 mm 4,2 UV-I 548 W/m² 1,3 °C 19,3 °C 11,3 km/h (2 Bft)
04.04.2018 13:02 19,3 °C 31 % 1002,0 hPa 0,0 mm 10,0 km/h (2 Bft) W-SW 251 ° 1 min 0,000 mm 4,0 UV-I 515 W/m² 1,8 °C 19,3 °C 14,5 km/h (3 Bft)
04.04.2018 13:03 19,3 °C 30 % 1002,1 hPa 0,0 mm 10,0 km/h (2 Bft) W 267 ° 1 min 0,000 mm 4,0 UV-I 531 W/m² 1,3 °C 19,3 °C 14,5 km/h (3 Bft)
04.04.2018 13:04 19,2 °C 29 % 1002,0 hPa 0,0 mm 2,7 km/h (1 Bft) W-NW 288 ° 1 min 0,000 mm 4,3 UV-I 592 W/m² 0,7 °C 19,2 °C 4,8 km/h (1 Bft)
04.04.2018 13:05 19,2 °C 32 % 1001,9 hPa 0,0 mm 8,3 km/h (2 Bft) NW 305 ° 1 min 0,000 mm 4,8 UV-I 592 W/m² 2,1 °C 19,2 °C 14,5 km/h (3 Bft)
04.04.2018 13:06 19,3 °C 28 % 1001,9 hPa 0,0 mm 10,5 km/h (2 Bft) W 277 ° 1 min 0,000 mm 4,7 UV-I 605 W/m² 0,3 °C 19,3 °C 25,7 km/h (4 Bft)
04.04.2018 13:07 19,4 °C 28 % 1001,9 hPa 0,0 mm 16,4 km/h (3 Bft) W 273 ° 1 min 0,000 mm 4,9 UV-I 670 W/m² 0,4 °C 19,4 °C 25,7 km/h (4 Bft)
04.04.2018 13:08 19,4 °C 28 % 1001,8 hPa 0,0 mm 12,9 km/h (3 Bft) W-NW 300 ° 1 min 0,000 mm 4,3 UV-I 635 W/m² 0,4 °C 19,4 °C 16,1 km/h (3 Bft)
04.04.2018 13:09 19,5 °C 32 % 1001,8 hPa 0,0 mm 10,9 km/h (2 Bft) W-SW 257 ° 1 min 0,000 mm 3,9 UV-I 550 W/m² 2,4 °C 19,5 °C 16,1 km/h (3 Bft)
04.04.2018 13:10 19,6 °C 29 % 1001,8 hPa 0,0 mm 2,4 km/h (1 Bft) W-SW 245 ° 1 min 0,000 mm 4,0 UV-I 510 W/m² 1,1 °C 19,6 °C 6,4 km/h (2 Bft)
04.04.2018 13:11 19,6 °C 29 % 1001,7 hPa 0,0 mm 0,4 km/h (0 Bft) W-NW 296 ° 1 min 0,000 mm 4,2 UV-I 559 W/m² 1,1 °C 19,6 °C 6,4 km/h (2 Bft)
04.04.2018 13:12 19,7 °C 32 % 1001,7 hPa 0,0 mm 14,5 km/h (3 Bft) W-SW 252 ° 1 min 0,000 mm 4,4 UV-I 561 W/m² 2,5 °C 19,7 °C 22,5 km/h (4 Bft)
04.04.2018 13:13 19,8 °C 31 % 1001,8 hPa 0,0 mm 12,1 km/h (2 Bft) W-SW 242 ° 1 min 0,000 mm 4,5 UV-I 686 W/m² 2,2 °C 19,8 °C 17,7 km/h (3 Bft)
04.04.2018 13:14 19,8 °C 29 % 1001,8 hPa 0,0 mm 7,9 km/h (2 Bft) S-SW 201 ° 1 min 0,000 mm 4,5 UV-I 686 W/m² 1,3 °C 19,8 °C 14,5 km/h (3 Bft)
04.04.2018 13:15 19,7 °C 31 % 1001,8 hPa 0,0 mm 3,4 km/h (1 Bft) W-SW 254 ° 1 min 0,000 mm 4,4 UV-I 589 W/m² 2,1 °C 19,7 °C 6,4 km/h (2 Bft)
04.04.2018 13:16 19,7 °C 28 % 1001,8 hPa 0,0 mm 3,8 km/h (1 Bft) W-NW 288 ° 1 min 0,000 mm 4,5 UV-I 591 W/m² 0,7 °C 19,7 °C 6,4 km/h (2 Bft)
04.04.2018 13:17 19,5 °C 27 % 1001,7 hPa 0,0 mm 6,8 km/h (2 Bft) W-SW 252 ° 1 min 0,000 mm 4,4 UV-I 577 W/m² 0,0 °C 19,5 °C 9,7 km/h (2 Bft)
04.04.2018 13:18 19,5 °C 34 % 1001,7 hPa 0,0 mm 4,8 km/h (1 Bft) W 277 ° 1 min 0,000 mm 4,6 UV-I 615 W/m² 3,2 °C 19,5 °C 6,4 km/h (2 Bft)
04.04.2018 13:19 19,6 °C 32 % 1001,7 hPa 0,0 mm 1,8 km/h (1 Bft) W 277 ° 1 min 0,000 mm 4,5 UV-I 657 W/m² 2,5 °C 19,6 °C 4,8 km/h (1 Bft)
04.04.2018 13:20 19,7 °C 31 % 1001,7 hPa 0,0 mm 7,3 km/h (2 Bft) SW 232 ° 1 min 0,000 mm 5,0 UV-I 700 W/m² 2,1 °C 19,7 °C 11,3 km/h (2 Bft)
04.04.2018 13:21 19,6 °C 31 % 1001,6 hPa 0,0 mm 5,6 km/h (1 Bft) S-SW 207 ° 1 min 0,000 mm 4,9 UV-I 749 W/m² 2,0 °C 19,6 °C 8,0 km/h (2 Bft)
04.04.2018 13:22 19,6 °C 29 % 1001,7 hPa 0,0 mm 3,0 km/h (1 Bft) W-NW 284 ° 1 min 0,000 mm 4,6 UV-I 673 W/m² 1,1 °C 19,6 °C 9,7 km/h (2 Bft)
04.04.2018 13:23 19,6 °C 30 % 1001,6 hPa 0,0 mm 5,4 km/h (1 Bft) W-SW 255 ° 1 min 0,000 mm 4,8 UV-I 675 W/m² 1,6 °C 19,6 °C 9,7 km/h (2 Bft)
04.04.2018 13:24 19,5 °C 29 % 1001,6 hPa 0,0 mm 3,1 km/h (1 Bft) W 267 ° 1 min 0,000 mm 4,5 UV-I 673 W/m² 1,0 °C 19,5 °C 6,4 km/h (2 Bft)
04.04.2018 13:25 19,4 °C 30 % 1001,5 hPa 0,0 mm 2,5 km/h (1 Bft) NW 317 ° 1 min 0,000 mm 4,5 UV-I 673 W/m² 1,4 °C 19,4 °C 4,8 km/h (1 Bft)
04.04.2018 13:26 19,5 °C 29 % 1001,6 hPa 0,0 mm 0,9 km/h (0 Bft) NW 317 ° 1 min 0,000 mm 4,5 UV-I 663 W/m² 1,0 °C 19,5 °C 1,6 km/h (1 Bft)
04.04.2018 13:27 19,7 °C 32 % 1001,6 hPa 0,0 mm 2,6 km/h (1 Bft) W-SW 244 ° 1 min 0,000 mm 4,3 UV-I 568 W/m² 2,5 °C 19,7 °C 4,8 km/h (1 Bft)
04.04.2018 13:28 19,7 °C 29 % 1001,6 hPa 0,0 mm 9,4 km/h (2 Bft) S 188 ° 1 min 0,000 mm 5,3 UV-I 568 W/m² 1,2 °C 19,7 °C 12,9 km/h (3 Bft)
04.04.2018 13:29 19,6 °C 27 % 1001,6 hPa 0,0 mm 5,0 km/h (1 Bft) S-SW 207 ° 1 min 0,000 mm 4,8 UV-I 568 W/m² 0,1 °C 19,6 °C 8,0 km/h (2 Bft)
04.04.2018 13:30 19,4 °C 28 % 1001,6 hPa 0,0 mm 2,3 km/h (1 Bft) S 190 ° 1 min 0,000 mm 5,5 UV-I 823 W/m² 0,4 °C 19,4 °C 6,4 km/h (2 Bft)
04.04.2018 13:31 19,4 °C 29 % 1001,6 hPa 0,0 mm 0,3 km/h (0 Bft) S 190 ° 1 min 0,000 mm 5,5 UV-I 853 W/m² 0,9 °C 19,4 °C 1,6 km/h (1 Bft)
04.04.2018 13:32 19,5 °C 29 % 1001,6 hPa 0,0 mm 5,7 km/h (1 Bft) W-SW 250 ° 1 min 0,000 mm 5,4 UV-I 817 W/m² 1,0 °C 19,5 °C 9,7 km/h (2 Bft)
04.04.2018 13:33 19,8 °C 29 % 1001,6 hPa 0,0 mm 5,2 km/h (1 Bft) S-SW 198 ° 1 min 0,000 mm 5,4 UV-I 844 W/m² 1,3 °C 19,8 °C 8,0 km/h (2 Bft)
04.04.2018 13:34 19,8 °C 29 % 1001,6 hPa 0,0 mm 3,8 km/h (1 Bft) S-SW 198 ° 1 min 0,000 mm 5,4 UV-I 758 W/m² 1,3 °C 19,8 °C 8,0 km/h (2 Bft)
04.04.2018 13:35 19,8 °C 30 % 1001,6 hPa 0,0 mm 3,7 km/h (1 Bft) W-SW 242 ° 1 min 0,000 mm 5,2 UV-I 758 W/m² 1,7 °C 19,8 °C 11,3 km/h (2 Bft)
04.04.2018 13:36 19,8 °C 31 % 1001,6 hPa 0,0 mm 7,9 km/h (2 Bft) S-SW 196 ° 0 min 0,000 mm 2,7 UV-I 253 W/m² 2,2 °C 19,8 °C 14,5 km/h (3 Bft)
04.04.2018 13:37 19,8 °C 27 % 1001,6 hPa 0,0 mm 9,1 km/h (2 Bft) S-SW 196 ° 0 min 0,000 mm 5,0 UV-I 253 W/m² 0,3 °C 19,8 °C 14,5 km/h (3 Bft)
04.04.2018 13:38 19,6 °C 28 % 1001,5 hPa 0,0 mm 2,8 km/h (1 Bft) S-SW 197 ° 0 min 0,000 mm 5,0 UV-I 253 W/m² 0,6 °C 19,6 °C 4,8 km/h (1 Bft)
04.04.2018 13:39 19,6 °C 29 % 1001,6 hPa 0,0 mm 6,7 km/h (2 Bft) W-SW 243 ° 1 min 0,000 mm 5,2 UV-I 788 W/m² 1,1 °C 19,6 °C 12,9 km/h (3 Bft)
04.04.2018 13:40 19,6 °C 29 % 1001,6 hPa 0,0 mm 6,2 km/h (2 Bft) W-NW 292 ° 1 min 0,000 mm 5,4 UV-I 809 W/m² 1,1 °C 19,6 °C 11,3 km/h (2 Bft)
04.04.2018 13:41 19,6 °C 28 % 1001,5 hPa 0,0 mm 1,8 km/h (1 Bft) S-SW 209 ° 1 min 0,000 mm 5,3 UV-I 802 W/m² 0,6 °C 19,6 °C 4,8 km/h (1 Bft)
04.04.2018 13:42 19,6 °C 28 % 1001,5 hPa 0,0 mm 3,3 km/h (1 Bft) W-SW 244 ° 1 min 0,000 mm 5,3 UV-I 751 W/m² 0,6 °C 19,6 °C 9,7 km/h (2 Bft)
04.04.2018 13:43 19,8 °C 32 % 1001,5 hPa 0,0 mm 3,7 km/h (1 Bft) W-NW 292 ° 1 min 0,000 mm 5,1 UV-I 751 W/m² 2,6 °C 19,8 °C 6,4 km/h (2 Bft)
04.04.2018 13:44 19,9 °C 30 % 1001,5 hPa 0,0 mm 0,7 km/h (0 Bft) NW 313 ° 1 min 0,000 mm 5,3 UV-I 789 W/m² 1,8 °C 19,9 °C 3,2 km/h (1 Bft)
04.04.2018 13:45 19,8 °C 27 % 1001,5 hPa 0,0 mm 2,2 km/h (1 Bft) N-NW 327 ° 1 min 0,000 mm 5,3 UV-I 789 W/m² 0,3 °C 19,8 °C 6,4 km/h (2 Bft)
04.04.2018 13:46 19,8 °C 28 % 1001,4 hPa 0,0 mm 3,9 km/h (1 Bft) NW 325 ° 1 min 0,000 mm 5,3 UV-I 784 W/m² 0,8 °C 19,8 °C 6,4 km/h (2 Bft)
04.04.2018 13:47 19,8 °C 28 % 1001,4 hPa 0,0 mm 2,7 km/h (1 Bft) NW 325 ° 1 min 0,000 mm 5,3 UV-I 784 W/m² 0,8 °C 19,8 °C 4,8 km/h (1 Bft)
04.04.2018 13:48 20,0 °C 29 % 1001,3 hPa 0,0 mm 1,4 km/h (1 Bft) N-NW 327 ° 1 min 0,000 mm 5,3 UV-I 788 W/m² 1,4 °C 20,0 °C 3,2 km/h (1 Bft)
04.04.2018 13:49 20,1 °C 29 % 1001,3 hPa 0,0 mm 5,6 km/h (1 Bft) N 360 ° 1 min 0,000 mm 5,3 UV-I 786 W/m² 1,5 °C 20,1 °C 8,0 km/h (2 Bft)
04.04.2018 13:50 20,2 °C 28 % 1001,4 hPa 0,0 mm 4,6 km/h (1 Bft) N 355 ° 1 min 0,000 mm 5,3 UV-I 789 W/m² 1,1 °C 20,2 °C 6,4 km/h (2 Bft)
04.04.2018 13:51 20,2 °C 27 % 1001,3 hPa 0,0 mm 5,9 km/h (2 Bft) W 265 ° 1 min 0,000 mm 5,3 UV-I 780 W/m² 0,6 °C 20,2 °C 9,7 km/h (2 Bft)
04.04.2018 13:52 20,1 °C 29 % 1001,4 hPa 0,0 mm 7,2 km/h (2 Bft) W-SW 253 ° 1 min 0,000 mm 5,3 UV-I 780 W/m² 1,5 °C 20,1 °C 11,3 km/h (2 Bft)
04.04.2018 13:53 20,0 °C 28 % 1001,4 hPa 0,0 mm 5,1 km/h (1 Bft) S-SW 194 ° 1 min 0,000 mm 5,2 UV-I 772 W/m² 0,9 °C 20,0 °C 8,0 km/h (2 Bft)
04.04.2018 13:54 20,0 °C 28 % 1001,4 hPa 0,0 mm 3,1 km/h (1 Bft) W-SW 246 ° 1 min 0,000 mm 5,2 UV-I 777 W/m² 0,9 °C 20,0 °C 6,4 km/h (2 Bft)
04.04.2018 13:55 20,1 °C 31 % 1001,4 hPa 0,0 mm 8,1 km/h (2 Bft) S-SW 212 ° 1 min 0,000 mm 5,2 UV-I 780 W/m² 2,4 °C 20,1 °C 12,9 km/h (3 Bft)
04.04.2018 13:56 20,1 °C 28 % 1001,4 hPa 0,0 mm 4,3 km/h (1 Bft) W 277 ° 1 min 0,000 mm 5,2 UV-I 775 W/m² 1,0 °C 20,1 °C 8,0 km/h (2 Bft)
04.04.2018 13:57 20,2 °C 31 % 1001,4 hPa 0,0 mm 5,4 km/h (1 Bft) N-NO 12 ° 1 min 0,000 mm 5,2 UV-I 777 W/m² 2,5 °C 20,2 °C 11,3 km/h (2 Bft)
04.04.2018 13:58 20,3 °C 32 % 1001,4 hPa 0,0 mm 5,9 km/h (2 Bft) N 355 ° 1 min 0,000 mm 5,2 UV-I 777 W/m² 3,1 °C 20,3 °C 8,0 km/h (2 Bft)
04.04.2018 13:59 20,6 °C 31 % 1001,4 hPa 0,0 mm 4,4 km/h (1 Bft) N-NO 17 ° 1 min 0,000 mm 5,2 UV-I 775 W/m² 2,9 °C 20,6 °C 6,4 km/h (2 Bft)
04.04.2018 14:00 20,6 °C 30 % 1001,3 hPa 0,0 mm 1,6 km/h (1 Bft) W 263 ° 1 min 0,000 mm 5,2 UV-I 772 W/m² 2,4 °C 20,6 °C 3,2 km/h (1 Bft)
04.04.2018 14:01 20,4 °C 30 % 1001,3 hPa 0,0 mm 2,8 km/h (1 Bft) W 260 ° 1 min 0,457 mm 5,2 UV-I 773 W/m² 2,2 °C 20,4 °C 4,8 km/h (1 Bft)
04.04.2018 14:02 20,4 °C 29 % 1001,2 hPa 0,0 mm 0,9 km/h (0 Bft) W 261 ° 1 min 0,000 mm 5,2 UV-I 772 W/m² 1,8 °C 20,4 °C 3,2 km/h (1 Bft)
04.04.2018 14:03 20,3 °C 29 % 1001,2 hPa 0,0 mm 1,6 km/h (1 Bft) N-NW 334 ° 1 min 0,000 mm 5,2 UV-I 770 W/m² 1,7 °C 20,3 °C 4,8 km/h (1 Bft)
04.04.2018 14:04 20,2 °C 28 % 1001,2 hPa 0,0 mm 2,1 km/h (1 Bft) NW 313 ° 1 min 0,000 mm 5,2 UV-I 768 W/m² 1,1 °C 20,2 °C 3,2 km/h (1 Bft)
04.04.2018 14:05 20,1 °C 27 % 1001,2 hPa 0,0 mm 4,1 km/h (1 Bft) SW 222 ° 1 min 0,000 mm 5,2 UV-I 770 W/m² 0,5 °C 20,1 °C 6,4 km/h (2 Bft)
04.04.2018 14:06 20,1 °C 26 % 1001,3 hPa 0,0 mm 9,9 km/h (2 Bft) S-SW 198 ° 1 min 0,000 mm 5,2 UV-I 768 W/m² 0,0 °C 20,1 °C 14,5 km/h (3 Bft)
04.04.2018 14:07 19,9 °C 27 % 1001,4 hPa 0,0 mm 6,5 km/h (2 Bft) W-SW 257 ° 1 min 0,000 mm 5,1 UV-I 766 W/m² 0,4 °C 19,9 °C 16,1 km/h (3 Bft)
04.04.2018 14:08 19,8 °C 29 % 1001,2 hPa 0,0 mm 4,6 km/h (1 Bft) SW 234 ° 1 min 0,000 mm 5,1 UV-I 766 W/m² 1,3 °C 19,8 °C 8,0 km/h (2 Bft)
04.04.2018 14:09 19,8 °C 28 % 1001,2 hPa 0,0 mm 7,7 km/h (2 Bft) W-NW 290 ° 1 min 0,000 mm 5,1 UV-I 765 W/m² 0,8 °C 19,8 °C 12,9 km/h (3 Bft)
04.04.2018 14:10 19,8 °C 29 % 1001,1 hPa 0,0 mm 4,2 km/h (1 Bft) SW 235 ° 1 min 0,000 mm 5,1 UV-I 765 W/m² 1,3 °C 19,8 °C 6,4 km/h (2 Bft)
04.04.2018 14:11 19,9 °C 28 % 1001,2 hPa 0,0 mm 6,7 km/h (2 Bft) SW 232 ° 1 min 0,000 mm 5,1 UV-I 763 W/m² 0,9 °C 19,9 °C 9,7 km/h (2 Bft)
04.04.2018 14:12 20,0 °C 30 % 1001,2 hPa 0,0 mm 5,1 km/h (1 Bft) S-SW 207 ° 1 min 0,000 mm 5,1 UV-I 763 W/m² 1,9 °C 20,0 °C 9,7 km/h (2 Bft)
04.04.2018 14:13 20,0 °C 30 % 1001,2 hPa 0,0 mm 7,3 km/h (2 Bft) W-NW 283 ° 1 min 0,000 mm 5,1 UV-I 761 W/m² 1,9 °C 20,0 °C 14,5 km/h (3 Bft)
04.04.2018 14:14 20,1 °C 31 % 1001,2 hPa 0,0 mm 10,2 km/h (2 Bft) W-SW 250 ° 1 min 0,000 mm 5,1 UV-I 761 W/m² 2,4 °C 20,1 °C 12,9 km/h (3 Bft)
04.04.2018 14:15 20,1 °C 28 % 1001,2 hPa 0,0 mm 4,7 km/h (1 Bft) W 273 ° 1 min 0,000 mm 5,1 UV-I 761 W/m² 1,0 °C 20,1 °C 9,7 km/h (2 Bft)
04.04.2018 14:16 20,1 °C 27 % 1001,1 hPa 0,0 mm 8,3 km/h (2 Bft) W 259 ° 1 min 0,000 mm 5,1 UV-I 759 W/m² 0,5 °C 20,1 °C 11,3 km/h (2 Bft)
04.04.2018 14:17 20,1 °C 27 % 1001,2 hPa 0,0 mm 5,8 km/h (2 Bft) W 264 ° 1 min 0,000 mm 5,1 UV-I 759 W/m² 0,5 °C 20,1 °C 14,5 km/h (3 Bft)
04.04.2018 14:18 20,3 °C 32 % 1001,0 hPa 0,0 mm 6,6 km/h (2 Bft) W 270 ° 1 min 0,000 mm 5,0 UV-I 756 W/m² 3,1 °C 20,3 °C 16,1 km/h (3 Bft)
04.04.2018 14:19 20,2 °C 27 % 1001,0 hPa 0,0 mm 8,8 km/h (2 Bft) N-NW 331 ° 1 min 0,000 mm 5,0 UV-I 761 W/m² 0,6 °C 20,2 °C 14,5 km/h (3 Bft)
04.04.2018 14:20 20,3 °C 28 % 1000,9 hPa 0,0 mm 15,0 km/h (3 Bft) W 279 ° 1 min 0,000 mm 4,8 UV-I 694 W/m² 1,2 °C 20,3 °C 22,5 km/h (4 Bft)
04.04.2018 14:21 20,3 °C 30 % 1000,9 hPa 0,0 mm 11,5 km/h (2 Bft) W 259 ° 1 min 0,000 mm 5,0 UV-I 763 W/m² 2,2 °C 20,3 °C 16,1 km/h (3 Bft)
04.04.2018 14:22 20,4 °C 28 % 1000,9 hPa 0,0 mm 10,8 km/h (2 Bft) W-NW 286 ° 1 min 0,000 mm 5,0 UV-I 761 W/m² 1,3 °C 20,4 °C 17,7 km/h (3 Bft)
04.04.2018 14:23 20,4 °C 28 % 1001,0 hPa 0,0 mm 3,4 km/h (1 Bft) W-SW 246 ° 1 min 0,000 mm 5,0 UV-I 761 W/m² 1,3 °C 20,4 °C 6,4 km/h (2 Bft)
04.04.2018 14:24 20,6 °C 30 % 1000,9 hPa 0,0 mm 1,1 km/h (1 Bft) W-SW 244 ° 1 min 0,000 mm 5,0 UV-I 761 W/m² 2,4 °C 20,6 °C 3,2 km/h (1 Bft)
04.04.2018 14:25 20,7 °C 32 % 1000,9 hPa 0,0 mm 7,7 km/h (2 Bft) W 263 ° 1 min 0,000 mm 5,0 UV-I 761 W/m² 3,4 °C 20,7 °C 14,5 km/h (3 Bft)
04.04.2018 14:26 20,7 °C 29 % 1000,9 hPa 0,0 mm 10,7 km/h (2 Bft) W 280 ° 1 min 0,000 mm 5,0 UV-I 765 W/m² 2,0 °C 20,7 °C 12,9 km/h (3 Bft)
04.04.2018 14:27 20,7 °C 28 % 1000,9 hPa 0,0 mm 7,7 km/h (2 Bft) SW 233 ° 1 min 0,000 mm 5,0 UV-I 765 W/m² 1,5 °C 20,7 °C 12,9 km/h (3 Bft)
04.04.2018 14:28 20,7 °C 29 % 1000,8 hPa 0,0 mm 3,8 km/h (1 Bft) S 179 ° 1 min 0,000 mm 5,0 UV-I 766 W/m² 2,0 °C 20,7 °C 8,0 km/h (2 Bft)
04.04.2018 14:29 20,7 °C 28 % 1000,8 hPa 0,0 mm 3,4 km/h (1 Bft) O-SO 122 ° 1 min 0,000 mm 5,0 UV-I 766 W/m² 1,5 °C 20,7 °C 6,4 km/h (2 Bft)
04.04.2018 14:30 20,6 °C 28 % 1000,8 hPa 0,0 mm 4,1 km/h (1 Bft) W 267 ° 1 min 0,000 mm 5,0 UV-I 772 W/m² 1,5 °C 20,6 °C 8,0 km/h (2 Bft)
04.04.2018 14:31 20,4 °C 26 % 1000,8 hPa 0,0 mm 5,6 km/h (1 Bft) W 281 ° 1 min 0,000 mm 5,0 UV-I 772 W/m² 0,3 °C 20,4 °C 9,7 km/h (2 Bft)
04.04.2018 14:32 20,3 °C 25 % 1000,8 hPa 0,0 mm 6,4 km/h (2 Bft) S-SW 213 ° 1 min 0,000 mm 5,0 UV-I 775 W/m² -0,4 °C 20,3 °C 12,9 km/h (3 Bft)
04.04.2018 14:33 20,3 °C 27 % 1000,8 hPa 0,0 mm 10,3 km/h (2 Bft) W-SW 244 ° 1 min 0,000 mm 4,9 UV-I 751 W/m² 0,7 °C 20,3 °C 16,1 km/h (3 Bft)
04.04.2018 14:34 20,2 °C 27 % 1000,9 hPa 0,0 mm 6,5 km/h (2 Bft) W-NW 294 ° 1 min 0,000 mm 4,8 UV-I 708 W/m² 0,6 °C 20,2 °C 12,9 km/h (3 Bft)
04.04.2018 14:35 20,2 °C 28 % 1000,8 hPa 0,0 mm 8,4 km/h (2 Bft) SW 223 ° 1 min 0,000 mm 4,5 UV-I 679 W/m² 1,1 °C 20,2 °C 12,9 km/h (3 Bft)
04.04.2018 14:36 20,2 °C 27 % 1000,8 hPa 0,0 mm 4,4 km/h (1 Bft) SW 232 ° 1 min 0,000 mm 4,6 UV-I 705 W/m² 0,6 °C 20,2 °C 6,4 km/h (2 Bft)
04.04.2018 14:37 20,2 °C 28 % 1000,8 hPa 0,0 mm 10,7 km/h (2 Bft) S-SW 213 ° 1 min 0,000 mm 4,7 UV-I 712 W/m² 1,1 °C 20,2 °C 16,1 km/h (3 Bft)
04.04.2018 14:38 20,2 °C 28 % 1000,9 hPa 0,0 mm 9,8 km/h (2 Bft) SW 227 ° 1 min 0,000 mm 4,6 UV-I 708 W/m² 1,1 °C 20,2 °C 12,9 km/h (3 Bft)
04.04.2018 14:39 20,2 °C 26 % 1000,9 hPa 0,0 mm 9,1 km/h (2 Bft) W-SW 244 ° 1 min 0,000 mm 4,7 UV-I 710 W/m² 0,1 °C 20,2 °C 12,9 km/h (3 Bft)
04.04.2018 14:40 20,1 °C 26 % 1000,8 hPa 0,0 mm 6,0 km/h (2 Bft) NW 309 ° 1 min 0,000 mm 4,6 UV-I 733 W/m² 0,0 °C 20,1 °C 9,7 km/h (2 Bft)
04.04.2018 14:41 20,1 °C 28 % 1000,8 hPa 0,0 mm 6,9 km/h (2 Bft) SW 224 ° 1 min 0,000 mm 4,7 UV-I 691 W/m² 1,0 °C 20,1 °C 9,7 km/h (2 Bft)
04.04.2018 14:42 20,2 °C 27 % 1000,8 hPa 0,0 mm 11,3 km/h (2 Bft) W 267 ° 1 min 0,000 mm 4,8 UV-I 738 W/m² 0,6 °C 20,2 °C 22,5 km/h (4 Bft)
04.04.2018 14:43 20,3 °C 27 % 1000,9 hPa 0,0 mm 12,7 km/h (3 Bft) S 190 ° 1 min 0,000 mm 4,8 UV-I 751 W/m² 0,7 °C 20,3 °C 19,3 km/h (3 Bft)
04.04.2018 14:44 20,2 °C 27 % 1001,0 hPa 0,0 mm 8,7 km/h (2 Bft) SW 225 ° 1 min 0,000 mm 4,8 UV-I 751 W/m² 0,6 °C 20,2 °C 16,1 km/h (3 Bft)
04.04.2018 14:45 20,1 °C 25 % 1001,0 hPa 0,0 mm 11,5 km/h (2 Bft) S-SW 213 ° 1 min 0,000 mm 4,8 UV-I 744 W/m² -0,5 °C 20,1 °C 17,7 km/h (3 Bft)
04.04.2018 14:46 20,0 °C 26 % 1000,9 hPa 0,0 mm 4,3 km/h (1 Bft) S-SW 197 ° 1 min 0,000 mm 4,7 UV-I 738 W/m² -0,1 °C 20,0 °C 11,3 km/h (2 Bft)
04.04.2018 14:47 19,9 °C 26 % 1000,9 hPa 0,0 mm 8,1 km/h (2 Bft) SW 215 ° 1 min 0,000 mm 4,7 UV-I 735 W/m² -0,2 °C 19,9 °C 12,9 km/h (3 Bft)
04.04.2018 14:48 19,9 °C 27 % 1000,9 hPa 0,0 mm 5,9 km/h (2 Bft) NW 307 ° 1 min 0,000 mm 4,7 UV-I 733 W/m² 0,4 °C 19,9 °C 9,7 km/h (2 Bft)
04.04.2018 14:49 20,1 °C 27 % 1000,8 hPa 0,0 mm 7,3 km/h (2 Bft) S-SW 213 ° 1 min 0,000 mm 4,7 UV-I 729 W/m² 0,5 °C 20,1 °C 14,5 km/h (3 Bft)
04.04.2018 14:50 20,2 °C 28 % 1000,9 hPa 0,0 mm 3,5 km/h (1 Bft) N-NW 328 ° 1 min 0,000 mm 4,6 UV-I 728 W/m² 1,1 °C 20,2 °C 4,8 km/h (1 Bft)
04.04.2018 14:51 20,3 °C 28 % 1000,9 hPa 0,0 mm 8,1 km/h (2 Bft) S 173 ° 1 min 0,000 mm 4,6 UV-I 726 W/m² 1,2 °C 20,3 °C 14,5 km/h (3 Bft)
04.04.2018 14:52 20,3 °C 27 % 1001,0 hPa 0,0 mm 15,2 km/h (3 Bft) S-SW 210 ° 1 min 0,000 mm 4,6 UV-I 724 W/m² 0,7 °C 20,3 °C 22,5 km/h (4 Bft)
04.04.2018 14:53 20,2 °C 26 % 1000,9 hPa 0,0 mm 12,2 km/h (2 Bft) W 267 ° 1 min 0,000 mm 4,6 UV-I 722 W/m² 0,1 °C 20,2 °C 14,5 km/h (3 Bft)
04.04.2018 14:54 20,1 °C 28 % 1000,8 hPa 0,0 mm 21,1 km/h (4 Bft) W-SW 258 ° 1 min 0,000 mm 4,6 UV-I 721 W/m² 1,0 °C 20,1 °C 27,4 km/h (4 Bft)
04.04.2018 14:55 20,0 °C 25 % 1000,8 hPa 0,0 mm 20,2 km/h (4 Bft) S-SW 204 ° 1 min 0,000 mm 4,5 UV-I 719 W/m² -0,6 °C 20,0 °C 30,6 km/h (5 Bft)
04.04.2018 14:56 19,9 °C 28 % 1000,9 hPa 0,0 mm 11,7 km/h (2 Bft) W-NW 286 ° 1 min 0,000 mm 4,5 UV-I 719 W/m² 0,9 °C 19,9 °C 17,7 km/h (3 Bft)
04.04.2018 14:57 20,0 °C 29 % 1000,8 hPa 0,0 mm 11,1 km/h (2 Bft) W 267 ° 1 min 0,000 mm 4,5 UV-I 719 W/m² 1,4 °C 20,0 °C 20,9 km/h (4 Bft)
04.04.2018 14:58 20,1 °C 27 % 1000,9 hPa 0,0 mm 13,4 km/h (3 Bft) S-SW 203 ° 1 min 0,000 mm 4,5 UV-I 717 W/m² 0,5 °C 20,1 °C 25,7 km/h (4 Bft)
04.04.2018 14:59 20,1 °C 25 % 1001,0 hPa 0,0 mm 10,0 km/h (2 Bft) SW 230 ° 1 min 0,000 mm 4,5 UV-I 717 W/m² -0,5 °C 20,1 °C 17,7 km/h (3 Bft)
04.04.2018 15:00 19,9 °C 25 % 1000,8 hPa 0,0 mm 6,2 km/h (2 Bft) W 277 ° 1 min 0,000 mm 4,5 UV-I 715 W/m² -0,7 °C 19,9 °C 12,9 km/h (3 Bft)
04.04.2018 15:01 20,0 °C 29 % 1000,8 hPa 0,0 mm 8,1 km/h (2 Bft) W 259 ° 1 min 0,508 mm 4,5 UV-I 714 W/m² 1,4 °C 20,0 °C 16,1 km/h (3 Bft)
04.04.2018 15:02 19,9 °C 25 % 1000,8 hPa 0,0 mm 11,4 km/h (2 Bft) W-SW 250 ° 1 min 0,000 mm 4,5 UV-I 715 W/m² -0,7 °C 19,9 °C 17,7 km/h (3 Bft)
04.04.2018 15:03 19,9 °C 26 % 1000,9 hPa 0,0 mm 9,8 km/h (2 Bft) W-SW 254 ° 1 min 0,000 mm 4,4 UV-I 708 W/m² -0,2 °C 19,9 °C 16,1 km/h (3 Bft)
04.04.2018 15:04 19,8 °C 27 % 1000,8 hPa 0,0 mm 6,5 km/h (2 Bft) W 271 ° 1 min 0,000 mm 4,3 UV-I 624 W/m² 0,3 °C 19,8 °C 11,3 km/h (2 Bft)
04.04.2018 15:05 19,8 °C 27 % 1000,9 hPa 0,0 mm 15,4 km/h (3 Bft) S 175 ° 1 min 0,000 mm 4,2 UV-I 663 W/m² 0,3 °C 19,8 °C 20,9 km/h (4 Bft)
04.04.2018 15:06 19,8 °C 26 % 1000,9 hPa 0,0 mm 11,1 km/h (2 Bft) W-SW 254 ° 1 min 0,000 mm 4,2 UV-I 666 W/m² -0,3 °C 19,8 °C 16,1 km/h (3 Bft)
04.04.2018 15:07 19,7 °C 26 % 1000,8 hPa 0,0 mm 9,3 km/h (2 Bft) SW 228 ° 1 min 0,000 mm 4,2 UV-I 664 W/m² -0,3 °C 19,7 °C 14,5 km/h (3 Bft)
04.04.2018 15:08 19,7 °C 28 % 1000,8 hPa 0,0 mm 9,4 km/h (2 Bft) S-SW 207 ° 1 min 0,000 mm 4,2 UV-I 682 W/m² 0,7 °C 19,7 °C 14,5 km/h (3 Bft)
04.04.2018 15:09 19,6 °C 29 % 1000,8 hPa 0,0 mm 9,0 km/h (2 Bft) W-NW 290 ° 1 min 0,000 mm 4,2 UV-I 680 W/m² 1,1 °C 19,6 °C 14,5 km/h (3 Bft)
04.04.2018 15:10 19,7 °C 27 % 1000,9 hPa 0,0 mm 13,3 km/h (3 Bft) W-SW 254 ° 1 min 0,000 mm 4,3 UV-I 680 W/m² 0,2 °C 19,7 °C 19,3 km/h (3 Bft)
04.04.2018 15:11 19,8 °C 29 % 1000,9 hPa 0,0 mm 7,4 km/h (2 Bft) SW 227 ° 1 min 0,000 mm 4,1 UV-I 649 W/m² 1,3 °C 19,8 °C 11,3 km/h (2 Bft)
04.04.2018 15:12 19,8 °C 28 % 1000,9 hPa 0,0 mm 5,6 km/h (1 Bft) S-SW 206 ° 1 min 0,000 mm 4,0 UV-I 642 W/m² 0,8 °C 19,8 °C 9,7 km/h (2 Bft)
04.04.2018 15:13 19,8 °C 27 % 1000,8 hPa 0,0 mm 7,1 km/h (2 Bft) W-SW 258 ° 1 min 0,000 mm 3,9 UV-I 603 W/m² 0,3 °C 19,8 °C 11,3 km/h (2 Bft)
04.04.2018 15:14 19,8 °C 26 % 1000,8 hPa 0,0 mm 7,8 km/h (2 Bft) NW 317 ° 1 min 0,000 mm 3,6 UV-I 580 W/m² -0,3 °C 19,8 °C 12,9 km/h (3 Bft)
04.04.2018 15:15 19,7 °C 27 % 1000,6 hPa 0,0 mm 4,2 km/h (1 Bft) W-NW 294 ° 1 min 0,000 mm 3,9 UV-I 529 W/m² 0,2 °C 19,7 °C 6,4 km/h (2 Bft)
04.04.2018 15:16 19,7 °C 27 % 1000,8 hPa 0,0 mm 10,7 km/h (2 Bft) SW 228 ° 1 min 0,000 mm 3,6 UV-I 603 W/m² 0,2 °C 19,7 °C 19,3 km/h (3 Bft)
04.04.2018 15:17 19,7 °C 26 % 1000,8 hPa 0,0 mm 10,1 km/h (2 Bft) S-SW 209 ° 1 min 0,000 mm 3,7 UV-I 503 W/m² -0,3 °C 19,7 °C 17,7 km/h (3 Bft)
04.04.2018 15:18 19,5 °C 25 % 1000,8 hPa 0,0 mm 13,7 km/h (3 Bft) S-SW 213 ° 1 min 0,000 mm 3,8 UV-I 503 W/m² -1,0 °C 19,5 °C 19,3 km/h (3 Bft)
04.04.2018 15:19 19,5 °C 25 % 1000,8 hPa 0,0 mm 7,0 km/h (2 Bft) NW 318 ° 1 min 0,000 mm 3,6 UV-I 570 W/m² -1,0 °C 19,5 °C 11,3 km/h (2 Bft)
04.04.2018 15:20 19,4 °C 26 % 1000,6 hPa 0,0 mm 14,5 km/h (3 Bft) SW 231 ° 1 min 0,000 mm 3,7 UV-I 512 W/m² -0,6 °C 19,4 °C 19,3 km/h (3 Bft)
04.04.2018 15:21 19,3 °C 26 % 1000,8 hPa 0,0 mm 10,1 km/h (2 Bft) S-SO 148 ° 1 min 0,000 mm 3,2 UV-I 512 W/m² -0,7 °C 19,3 °C 17,7 km/h (3 Bft)
04.04.2018 15:22 19,3 °C 27 % 1000,7 hPa 0,0 mm 6,2 km/h (2 Bft) S 177 ° 1 min 0,000 mm 3,6 UV-I 512 W/m² -0,2 °C 19,3 °C 12,9 km/h (3 Bft)
04.04.2018 15:23 19,3 °C 26 % 1000,7 hPa 0,0 mm 9,5 km/h (2 Bft) SW 217 ° 1 min 0,000 mm 3,8 UV-I 512 W/m² -0,7 °C 19,3 °C 14,5 km/h (3 Bft)
04.04.2018 15:24 19,3 °C 28 % 1000,8 hPa 0,0 mm 7,4 km/h (2 Bft) S-SW 211 ° 1 min 0,000 mm 3,8 UV-I 512 W/m² 0,3 °C 19,3 °C 12,9 km/h (3 Bft)
04.04.2018 15:25 19,3 °C 27 % 1000,8 hPa 0,0 mm 7,4 km/h (2 Bft) W-SW 238 ° 1 min 0,000 mm 3,9 UV-I 673 W/m² -0,2 °C 19,3 °C 14,5 km/h (3 Bft)
04.04.2018 15:26 19,4 °C 30 % 1000,8 hPa 0,0 mm 10,1 km/h (2 Bft) W 263 ° 1 min 0,000 mm 4,0 UV-I 659 W/m² 1,4 °C 19,4 °C 14,5 km/h (3 Bft)
04.04.2018 15:27 19,5 °C 28 % 1000,9 hPa 0,0 mm 9,5 km/h (2 Bft) SW 231 ° 1 min 0,000 mm 4,1 UV-I 680 W/m² 0,5 °C 19,5 °C 17,7 km/h (3 Bft)
04.04.2018 15:28 19,6 °C 26 % 1000,8 hPa 0,0 mm 8,7 km/h (2 Bft) W 279 ° 1 min 0,000 mm 4,1 UV-I 671 W/m² -0,4 °C 19,6 °C 14,5 km/h (3 Bft)
04.04.2018 15:29 19,7 °C 28 % 1000,7 hPa 0,0 mm 10,3 km/h (2 Bft) W 263 ° 1 min 0,000 mm 3,7 UV-I 578 W/m² 0,7 °C 19,7 °C 12,9 km/h (3 Bft)
04.04.2018 15:30 19,7 °C 29 % 1000,8 hPa 0,0 mm 15,0 km/h (3 Bft) W 265 ° 1 min 0,000 mm 3,6 UV-I 585 W/m² 1,2 °C 19,7 °C 24,1 km/h (4 Bft)
04.04.2018 15:31 19,7 °C 26 % 1000,8 hPa 0,0 mm 10,7 km/h (2 Bft) W-NW 287 ° 1 min 0,000 mm 3,5 UV-I 548 W/m² -0,3 °C 19,7 °C 19,3 km/h (3 Bft)
04.04.2018 15:32 19,6 °C 26 % 1000,8 hPa 0,0 mm 9,3 km/h (2 Bft) W 266 ° 1 min 0,000 mm 3,7 UV-I 606 W/m² -0,4 °C 19,6 °C 19,3 km/h (3 Bft)
04.04.2018 15:33 19,6 °C 27 % 1000,8 hPa 0,0 mm 1,5 km/h (1 Bft) W-SW 257 ° 1 min 0,000 mm 3,6 UV-I 603 W/m² 0,1 °C 19,6 °C 3,2 km/h (1 Bft)
04.04.2018 15:34 19,6 °C 26 % 1000,8 hPa 0,0 mm 2,1 km/h (1 Bft) W 259 ° 1 min 0,000 mm 3,8 UV-I 656 W/m² -0,4 °C 19,6 °C 6,4 km/h (2 Bft)
04.04.2018 15:35 19,7 °C 26 % 1000,8 hPa 0,0 mm 4,7 km/h (1 Bft) W-SW 237 ° 1 min 0,000 mm 3,9 UV-I 671 W/m² -0,3 °C 19,7 °C 11,3 km/h (2 Bft)
04.04.2018 15:36 19,8 °C 28 % 1000,8 hPa 0,0 mm 6,4 km/h (2 Bft) S-SW 192 ° 1 min 0,000 mm 3,9 UV-I 671 W/m² 0,8 °C 19,8 °C 8,0 km/h (2 Bft)
04.04.2018 15:37 19,8 °C 25 % 1000,8 hPa 0,0 mm 9,9 km/h (2 Bft) W-SW 242 ° 1 min 0,000 mm 3,9 UV-I 656 W/m² -0,8 °C 19,8 °C 17,7 km/h (3 Bft)
04.04.2018 15:38 19,8 °C 27 % 1000,7 hPa 0,0 mm 10,0 km/h (2 Bft) W 280 ° 1 min 0,000 mm 3,6 UV-I 656 W/m² 0,3 °C 19,8 °C 19,3 km/h (3 Bft)
04.04.2018 15:39 19,7 °C 26 % 1000,8 hPa 0,0 mm 12,0 km/h (2 Bft) W 279 ° 1 min 0,000 mm 3,4 UV-I 468 W/m² -0,3 °C 19,7 °C 25,7 km/h (4 Bft)
04.04.2018 15:40 19,7 °C 28 % 1000,8 hPa 0,0 mm 9,4 km/h (2 Bft) SW 234 ° 1 min 0,000 mm 3,4 UV-I 468 W/m² 0,7 °C 19,7 °C 16,1 km/h (3 Bft)
04.04.2018 15:41 19,6 °C 26 % 1000,8 hPa 0,0 mm 12,1 km/h (2 Bft) S-SW 205 ° 1 min 0,000 mm 3,5 UV-I 529 W/m² -0,4 °C 19,6 °C 16,1 km/h (3 Bft)
04.04.2018 15:42 19,5 °C 27 % 1000,8 hPa 0,0 mm 11,7 km/h (2 Bft) W-NW 282 ° 1 min 0,000 mm 3,7 UV-I 619 W/m² 0,0 °C 19,5 °C 17,7 km/h (3 Bft)
04.04.2018 15:43 19,4 °C 28 % 1000,7 hPa 0,0 mm 9,2 km/h (2 Bft) W-SW 257 ° 1 min 0,000 mm 3,8 UV-I 621 W/m² 0,4 °C 19,4 °C 17,7 km/h (3 Bft)
04.04.2018 15:44 19,5 °C 28 % 1000,8 hPa 0,0 mm 8,6 km/h (2 Bft) W 279 ° 1 min 0,000 mm 3,8 UV-I 649 W/m² 0,5 °C 19,5 °C 12,9 km/h (3 Bft)
04.04.2018 15:45 19,5 °C 26 % 1000,7 hPa 0,0 mm 8,7 km/h (2 Bft) NW 305 ° 1 min 0,000 mm 3,6 UV-I 638 W/m² -0,5 °C 19,5 °C 16,1 km/h (3 Bft)
04.04.2018 15:46 19,6 °C 27 % 1000,7 hPa 0,0 mm 7,0 km/h (2 Bft) W-SW 249 ° 1 min 0,000 mm 3,7 UV-I 650 W/m² 0,1 °C 19,6 °C 11,3 km/h (2 Bft)
04.04.2018 15:47 19,5 °C 27 % 1000,7 hPa 0,0 mm 8,9 km/h (2 Bft) S-SW 207 ° 1 min 0,000 mm 3,7 UV-I 621 W/m² 0,0 °C 19,5 °C 14,5 km/h (3 Bft)
04.04.2018 15:48 19,6 °C 27 % 1000,7 hPa 0,0 mm 5,5 km/h (1 Bft) W 259 ° 1 min 0,000 mm 3,7 UV-I 631 W/m² 0,1 °C 19,6 °C 11,3 km/h (2 Bft)
04.04.2018 15:49 19,6 °C 28 % 1000,7 hPa 0,0 mm 6,2 km/h (2 Bft) SW 229 ° 1 min 0,000 mm 3,7 UV-I 636 W/m² 0,6 °C 19,6 °C 8,0 km/h (2 Bft)
04.04.2018 15:50 19,6 °C 28 % 1000,8 hPa 0,0 mm 10,0 km/h (2 Bft) W 281 ° 1 min 0,000 mm 3,6 UV-I 621 W/m² 0,6 °C 19,6 °C 16,1 km/h (3 Bft)
04.04.2018 15:51 19,6 °C 25 % 1000,7 hPa 0,0 mm 9,2 km/h (2 Bft) W 278 ° 1 min 0,000 mm 3,6 UV-I 626 W/m² -1,0 °C 19,6 °C 16,1 km/h (3 Bft)
04.04.2018 15:52 19,6 °C 27 % 1000,7 hPa 0,0 mm 9,0 km/h (2 Bft) S 180 ° 1 min 0,000 mm 3,6 UV-I 622 W/m² 0,1 °C 19,6 °C 12,9 km/h (3 Bft)
04.04.2018 15:53 19,5 °C 27 % 1000,6 hPa 0,0 mm 3,0 km/h (1 Bft) W-NW 301 ° 1 min 0,000 mm 3,6 UV-I 613 W/m² 0,0 °C 19,5 °C 8,0 km/h (2 Bft)
04.04.2018 15:54 19,4 °C 28 % 1000,6 hPa 0,0 mm 7,2 km/h (2 Bft) SW 230 ° 1 min 0,000 mm 3,5 UV-I 599 W/m² 0,4 °C 19,4 °C 11,3 km/h (2 Bft)
04.04.2018 15:55 19,5 °C 27 % 1000,7 hPa 0,0 mm 4,7 km/h (1 Bft) S 177 ° 1 min 0,000 mm 3,4 UV-I 585 W/m² 0,0 °C 19,5 °C 9,7 km/h (2 Bft)
04.04.2018 15:56 19,5 °C 27 % 1000,6 hPa 0,0 mm 6,6 km/h (2 Bft) W-SW 248 ° 1 min 0,000 mm 3,5 UV-I 592 W/m² 0,0 °C 19,5 °C 9,7 km/h (2 Bft)
04.04.2018 15:57 19,5 °C 27 % 1000,6 hPa 0,0 mm 5,0 km/h (1 Bft) S-SW 199 ° 1 min 0,000 mm 3,5 UV-I 601 W/m² 0,0 °C 19,5 °C 9,7 km/h (2 Bft)
04.04.2018 15:58 19,5 °C 26 % 1000,6 hPa 0,0 mm 11,8 km/h (2 Bft) S 191 ° 1 min 0,000 mm 3,5 UV-I 605 W/m² -0,5 °C 19,5 °C 19,3 km/h (3 Bft)
04.04.2018 15:59 19,4 °C 25 % 1000,6 hPa 0,0 mm 3,0 km/h (1 Bft) NW 322 ° 1 min 0,000 mm 3,4 UV-I 599 W/m² -1,1 °C 19,4 °C 8,0 km/h (2 Bft)
04.04.2018 16:00 19,4 °C 26 % 1000,6 hPa 0,0 mm 3,1 km/h (1 Bft) W-NW 298 ° 1 min 0,000 mm 3,4 UV-I 598 W/m² -0,6 °C 19,4 °C 8,0 km/h (2 Bft)
04.04.2018 16:01 19,5 °C 27 % 1000,7 hPa 0,0 mm 8,0 km/h (2 Bft) SW 229 ° 1 min 0,457 mm 3,4 UV-I 605 W/m² 0,0 °C 19,5 °C 19,3 km/h (3 Bft)
04.04.2018 16:02 19,5 °C 27 % 1000,6 hPa 0,0 mm 9,4 km/h (2 Bft) W-NW 286 ° 1 min 0,000 mm 3,4 UV-I 587 W/m² 0,0 °C 19,5 °C 14,5 km/h (3 Bft)
04.04.2018 16:03 19,5 °C 28 % 1000,6 hPa 0,0 mm 5,7 km/h (1 Bft) W-SW 248 ° 1 min 0,000 mm 3,4 UV-I 578 W/m² 0,5 °C 19,5 °C 16,1 km/h (3 Bft)
04.04.2018 16:04 19,5 °C 27 % 1000,7 hPa 0,0 mm 8,0 km/h (2 Bft) S-SW 208 ° 1 min 0,000 mm 3,3 UV-I 589 W/m² 0,0 °C 19,5 °C 16,1 km/h (3 Bft)
04.04.2018 16:05 19,5 °C 28 % 1000,6 hPa 0,0 mm 2,7 km/h (1 Bft) NW 310 ° 1 min 0,000 mm 3,3 UV-I 578 W/m² 0,5 °C 19,5 °C 4,8 km/h (1 Bft)
04.04.2018 16:06 19,4 °C 27 % 1000,6 hPa 0,0 mm 6,8 km/h (2 Bft) S-SW 211 ° 1 min 0,000 mm 3,3 UV-I 578 W/m² -0,1 °C 19,4 °C 9,7 km/h (2 Bft)
04.04.2018 16:07 19,4 °C 26 % 1000,6 hPa 0,0 mm 12,1 km/h (2 Bft) W 261 ° 1 min 0,000 mm 3,3 UV-I 577 W/m² -0,6 °C 19,4 °C 19,3 km/h (3 Bft)
04.04.2018 16:08 19,4 °C 26 % 1000,5 hPa 0,0 mm 6,7 km/h (2 Bft) W-SW 257 ° 1 min 0,000 mm 3,3 UV-I 591 W/m² -0,6 °C 19,4 °C 14,5 km/h (3 Bft)
04.04.2018 16:09 19,3 °C 25 % 1000,5 hPa 0,0 mm 6,5 km/h (2 Bft) S-SW 208 ° 1 min 0,000 mm 3,3 UV-I 585 W/m² -1,2 °C 19,3 °C 11,3 km/h (2 Bft)
04.04.2018 16:10 19,3 °C 24 % 1000,5 hPa 0,0 mm 5,6 km/h (1 Bft) W-SW 244 ° 1 min 0,000 mm 3,3 UV-I 592 W/m² -1,8 °C 19,3 °C 9,7 km/h (2 Bft)
04.04.2018 16:11 19,3 °C 26 % 1000,5 hPa 0,0 mm 7,1 km/h (2 Bft) W-SW 240 ° 1 min 0,000 mm 3,1 UV-I 592 W/m² -0,7 °C 19,3 °C 14,5 km/h (3 Bft)
04.04.2018 16:12 19,3 °C 27 % 1000,5 hPa 0,0 mm 5,6 km/h (1 Bft) W-SW 254 ° 1 min 0,000 mm 3,2 UV-I 575 W/m² -0,2 °C 19,3 °C 8,0 km/h (2 Bft)
04.04.2018 16:13 19,4 °C 29 % 1000,5 hPa 0,0 mm 10,3 km/h (2 Bft) W-SW 256 ° 1 min 0,000 mm 3,2 UV-I 584 W/m² 0,9 °C 19,4 °C 16,1 km/h (3 Bft)
04.04.2018 16:14 19,6 °C 28 % 1000,5 hPa 0,0 mm 14,3 km/h (3 Bft) W-SW 256 ° 1 min 0,000 mm 3,2 UV-I 559 W/m² 0,6 °C 19,6 °C 20,9 km/h (4 Bft)
04.04.2018 16:15 19,6 °C 25 % 1000,4 hPa 0,0 mm 8,9 km/h (2 Bft) W 272 ° 1 min 0,000 mm 3,2 UV-I 552 W/m² -1,0 °C 19,6 °C 16,1 km/h (3 Bft)
04.04.2018 16:16 19,6 °C 27 % 1000,5 hPa 0,0 mm 7,8 km/h (2 Bft) W-SW 253 ° 1 min 0,000 mm 3,2 UV-I 564 W/m² 0,1 °C 19,6 °C 16,1 km/h (3 Bft)
04.04.2018 16:17 19,6 °C 28 % 1000,4 hPa 0,0 mm 12,7 km/h (3 Bft) W-SW 244 ° 1 min 0,000 mm 3,1 UV-I 564 W/m² 0,6 °C 19,6 °C 16,1 km/h (3 Bft)
04.04.2018 16:18 19,6 °C 26 % 1000,5 hPa 0,0 mm 8,4 km/h (2 Bft) S-SW 201 ° 1 min 0,000 mm 3,1 UV-I 563 W/m² -0,4 °C 19,6 °C 16,1 km/h (3 Bft)
04.04.2018 16:19 19,6 °C 27 % 1000,5 hPa 0,0 mm 10,5 km/h (2 Bft) W-SW 256 ° 1 min 0,000 mm 3,1 UV-I 559 W/m² 0,1 °C 19,6 °C 14,5 km/h (3 Bft)
04.04.2018 16:20 19,5 °C 25 % 1000,5 hPa 0,0 mm 5,6 km/h (1 Bft) W-SW 248 ° 1 min 0,000 mm 3,0 UV-I 557 W/m² -1,0 °C 19,5 °C 12,9 km/h (3 Bft)
04.04.2018 16:21 19,4 °C 26 % 1000,6 hPa 0,0 mm 3,8 km/h (1 Bft) W-SW 242 ° 1 min 0,000 mm 3,1 UV-I 573 W/m² -0,6 °C 19,4 °C 8,0 km/h (2 Bft)
04.04.2018 16:22 19,4 °C 26 % 1000,6 hPa 0,0 mm 12,0 km/h (2 Bft) S-SW 205 ° 1 min 0,000 mm 3,1 UV-I 570 W/m² -0,6 °C 19,4 °C 19,3 km/h (3 Bft)
04.04.2018 16:23 19,4 °C 26 % 1000,6 hPa 0,0 mm 11,7 km/h (2 Bft) S 190 ° 1 min 0,000 mm 3,1 UV-I 568 W/m² -0,6 °C 19,4 °C 20,9 km/h (4 Bft)
04.04.2018 16:24 19,4 °C 27 % 1000,6 hPa 0,0 mm 7,0 km/h (2 Bft) S 182 ° 1 min 0,000 mm 3,1 UV-I 552 W/m² -0,1 °C 19,4 °C 12,9 km/h (3 Bft)
04.04.2018 16:25 19,4 °C 25 % 1000,6 hPa 0,0 mm 8,2 km/h (2 Bft) W-SW 257 ° 1 min 0,000 mm 3,0 UV-I 531 W/m² -1,1 °C 19,4 °C 14,5 km/h (3 Bft)
04.04.2018 16:26 19,4 °C 29 % 1000,6 hPa 0,0 mm 4,4 km/h (1 Bft) W-SW 246 ° 1 min 0,000 mm 2,9 UV-I 506 W/m² 0,9 °C 19,4 °C 6,4 km/h (2 Bft)
04.04.2018 16:27 19,4 °C 26 % 1000,6 hPa 0,0 mm 11,3 km/h (2 Bft) W-NW 297 ° 1 min 0,000 mm 2,8 UV-I 492 W/m² -0,6 °C 19,4 °C 20,9 km/h (4 Bft)
04.04.2018 16:28 19,5 °C 26 % 1000,6 hPa 0,0 mm 8,2 km/h (2 Bft) W-SW 254 ° 1 min 0,000 mm 2,8 UV-I 504 W/m² -0,5 °C 19,5 °C 14,5 km/h (3 Bft)
04.04.2018 16:29 19,4 °C 26 % 1000,6 hPa 0,0 mm 9,1 km/h (2 Bft) SW 231 ° 1 min 0,000 mm 2,7 UV-I 490 W/m² -0,6 °C 19,4 °C 14,5 km/h (3 Bft)
04.04.2018 16:30 19,4 °C 27 % 1000,7 hPa 0,0 mm 13,8 km/h (3 Bft) W-NW 290 ° 1 min 0,000 mm 2,8 UV-I 464 W/m² -0,1 °C 19,4 °C 24,1 km/h (4 Bft)
04.04.2018 16:31 19,4 °C 25 % 1000,7 hPa 0,0 mm 11,7 km/h (2 Bft) W-SW 250 ° 1 min 0,000 mm 2,6 UV-I 438 W/m² -1,1 °C 19,4 °C 16,1 km/h (3 Bft)
04.04.2018 16:32 19,4 °C 27 % 1000,7 hPa 0,0 mm 6,3 km/h (2 Bft) W-NW 282 ° 1 min 0,000 mm 2,7 UV-I 459 W/m² -0,1 °C 19,4 °C 9,7 km/h (2 Bft)
04.04.2018 16:33 19,3 °C 25 % 1000,6 hPa 0,0 mm 5,8 km/h (2 Bft) W-SW 243 ° 1 min 0,000 mm 2,7 UV-I 499 W/m² -1,2 °C 19,3 °C 11,3 km/h (2 Bft)
04.04.2018 16:34 19,3 °C 25 % 1000,6 hPa 0,0 mm 8,2 km/h (2 Bft) W 271 ° 1 min 0,000 mm 2,7 UV-I 492 W/m² -1,2 °C 19,3 °C 12,9 km/h (3 Bft)
04.04.2018 16:35 19,3 °C 26 % 1000,6 hPa 0,0 mm 16,7 km/h (3 Bft) W 259 ° 1 min 0,000 mm 2,6 UV-I 461 W/m² -0,7 °C 19,3 °C 22,5 km/h (4 Bft)
04.04.2018 16:36 19,3 °C 26 % 1000,7 hPa 0,0 mm 8,6 km/h (2 Bft) S-SW 199 ° 1 min 0,000 mm 2,4 UV-I 392 W/m² -0,7 °C 19,3 °C 12,9 km/h (3 Bft)
04.04.2018 16:37 19,3 °C 26 % 1000,7 hPa 0,0 mm 7,3 km/h (2 Bft) SW 225 ° 1 min 0,000 mm 2,3 UV-I 334 W/m² -0,7 °C 19,3 °C 12,9 km/h (3 Bft)
04.04.2018 16:38 19,2 °C 27 % 1000,6 hPa 0,0 mm 10,8 km/h (2 Bft) W-NW 298 ° 0 min 0,000 mm 2,2 UV-I 272 W/m² -0,2 °C 19,2 °C 16,1 km/h (3 Bft)
04.04.2018 16:39 19,2 °C 25 % 1000,6 hPa 0,0 mm 7,6 km/h (2 Bft) W-SW 246 ° 0 min 0,000 mm 2,0 UV-I 246 W/m² -1,3 °C 19,2 °C 11,3 km/h (2 Bft)
04.04.2018 16:40 19,2 °C 25 % 1000,6 hPa 0,0 mm 7,1 km/h (2 Bft) W 279 ° 1 min 0,000 mm 2,0 UV-I 306 W/m² -1,3 °C 19,2 °C 12,9 km/h (3 Bft)
04.04.2018 16:41 19,2 °C 27 % 1000,7 hPa 0,0 mm 15,0 km/h (3 Bft) W 266 ° 1 min 0,000 mm 2,1 UV-I 316 W/m² -0,2 °C 19,2 °C 19,3 km/h (3 Bft)
04.04.2018 16:42 19,2 °C 27 % 1000,6 hPa 0,0 mm 7,2 km/h (2 Bft) W 265 ° 1 min 0,000 mm 2,2 UV-I 301 W/m² -0,2 °C 19,2 °C 11,3 km/h (2 Bft)
04.04.2018 16:43 19,2 °C 26 % 1000,5 hPa 0,0 mm 4,1 km/h (1 Bft) W-SW 250 ° 1 min 0,000 mm 2,1 UV-I 315 W/m² -0,8 °C 19,2 °C 6,4 km/h (2 Bft)
04.04.2018 16:44 19,2 °C 28 % 1000,5 hPa 0,0 mm 13,4 km/h (3 Bft) SW 223 ° 1 min 0,000 mm 2,2 UV-I 302 W/m² 0,3 °C 19,2 °C 19,3 km/h (3 Bft)
04.04.2018 16:45 19,3 °C 27 % 1000,6 hPa 0,0 mm 4,5 km/h (1 Bft) S-SW 209 ° 1 min 0,000 mm 2,0 UV-I 290 W/m² -0,2 °C 19,3 °C 8,0 km/h (2 Bft)
04.04.2018 16:46 19,2 °C 27 % 1000,6 hPa 0,0 mm 9,4 km/h (2 Bft) SW 221 ° 0 min 0,000 mm 1,9 UV-I 244 W/m² -0,2 °C 19,2 °C 19,3 km/h (3 Bft)
04.04.2018 16:47 19,2 °C 26 % 1000,7 hPa 0,0 mm 6,7 km/h (2 Bft) SW 233 ° 0 min 0,000 mm 1,9 UV-I 262 W/m² -0,8 °C 19,2 °C 11,3 km/h (2 Bft)
04.04.2018 16:48 19,1 °C 26 % 1000,7 hPa 0,0 mm 13,2 km/h (3 Bft) W-NW 290 ° 0 min 0,000 mm 1,9 UV-I 287 W/m² -0,8 °C 19,1 °C 19,3 km/h (3 Bft)
04.04.2018 16:49 19,1 °C 25 % 1000,7 hPa 0,0 mm 10,3 km/h (2 Bft) SW 223 ° 1 min 0,000 mm 2,0 UV-I 292 W/m² -1,4 °C 19,1 °C 16,1 km/h (3 Bft)
04.04.2018 16:50 19,1 °C 25 % 1000,7 hPa 0,0 mm 5,1 km/h (1 Bft) W-SW 253 ° 0 min 0,000 mm 2,0 UV-I 274 W/m² -1,4 °C 19,1 °C 9,7 km/h (2 Bft)
04.04.2018 16:51 19,1 °C 29 % 1000,7 hPa 0,0 mm 7,0 km/h (2 Bft) W-SW 242 ° 0 min 0,000 mm 1,9 UV-I 276 W/m² 0,7 °C 19,1 °C 11,3 km/h (2 Bft)
04.04.2018 16:52 19,1 °C 28 % 1000,7 hPa 0,0 mm 4,5 km/h (1 Bft) SW 231 ° 0 min 0,000 mm 2,0 UV-I 230 W/m² 0,2 °C 19,1 °C 9,7 km/h (2 Bft)
04.04.2018 16:53 19,0 °C 28 % 1000,8 hPa 0,0 mm 11,9 km/h (2 Bft) S-SW 198 ° 0 min 0,000 mm 1,9 UV-I 211 W/m² 0,1 °C 19,0 °C 19,3 km/h (3 Bft)
04.04.2018 16:54 18,9 °C 26 % 1000,8 hPa 0,0 mm 12,1 km/h (2 Bft) SW 214 ° 0 min 0,000 mm 1,8 UV-I 176 W/m² -1,0 °C 18,9 °C 16,1 km/h (3 Bft)
04.04.2018 16:55 18,8 °C 27 % 1000,8 hPa 0,0 mm 9,7 km/h (2 Bft) W-SW 241 ° 0 min 0,000 mm 1,6 UV-I 230 W/m² -0,6 °C 18,8 °C 17,7 km/h (3 Bft)
04.04.2018 16:56 18,8 °C 27 % 1000,8 hPa 0,0 mm 8,6 km/h (2 Bft) W-SW 247 ° 0 min 0,000 mm 1,7 UV-I 199 W/m² -0,6 °C 18,8 °C 12,9 km/h (3 Bft)
04.04.2018 16:57 18,8 °C 27 % 1000,9 hPa 0,0 mm 9,2 km/h (2 Bft) W-SW 244 ° 0 min 0,000 mm 1,6 UV-I 153 W/m² -0,6 °C 18,8 °C 12,9 km/h (3 Bft)
04.04.2018 16:58 18,7 °C 27 % 1000,9 hPa 0,0 mm 9,4 km/h (2 Bft) SW 221 ° 0 min 0,000 mm 1,5 UV-I 130 W/m² -0,7 °C 18,7 °C 25,7 km/h (4 Bft)
04.04.2018 16:59 18,7 °C 26 % 1001,0 hPa 0,0 mm 14,8 km/h (3 Bft) S 189 ° 0 min 0,000 mm 1,4 UV-I 91 W/m² -1,2 °C 18,7 °C 22,5 km/h (4 Bft)
04.04.2018 17:00 18,6 °C 27 % 1001,0 hPa 0,0 mm 7,7 km/h (2 Bft) SW 232 ° 0 min 0,000 mm 1,3 UV-I 77 W/m² -0,8 °C 18,6 °C 14,5 km/h (3 Bft)
04.04.2018 17:01 18,4 °C 27 % 1000,9 hPa 0,0 mm 4,0 km/h (1 Bft) S 184 ° 0 min 0,331 mm 1,3 UV-I 81 W/m² -0,9 °C 18,4 °C 8,0 km/h (2 Bft)
04.04.2018 17:02 18,4 °C 26 % 1000,9 hPa 0,0 mm 7,9 km/h (2 Bft) S-SW 194 ° 0 min 0,000 mm 1,2 UV-I 77 W/m² -1,4 °C 18,4 °C 14,5 km/h (3 Bft)
04.04.2018 17:03 18,3 °C 27 % 1000,9 hPa 0,0 mm 9,7 km/h (2 Bft) W-NW 296 ° 0 min 0,000 mm 1,2 UV-I 77 W/m² -1,0 °C 18,3 °C 14,5 km/h (3 Bft)
04.04.2018 17:04 18,2 °C 26 % 1000,9 hPa 0,0 mm 10,2 km/h (2 Bft) SW 225 ° 0 min 0,000 mm 1,2 UV-I 76 W/m² -1,6 °C 18,2 °C 14,5 km/h (3 Bft)
04.04.2018 17:05 18,1 °C 27 % 1000,9 hPa 0,0 mm 7,7 km/h (2 Bft) S-SW 196 ° 0 min 0,000 mm 1,2 UV-I 77 W/m² -1,2 °C 18,1 °C 11,3 km/h (2 Bft)
04.04.2018 17:06 17,9 °C 28 % 1001,0 hPa 0,0 mm 5,6 km/h (1 Bft) S-SW 194 ° 0 min 0,000 mm 1,2 UV-I 79 W/m² -0,9 °C 17,9 °C 11,3 km/h (2 Bft)
04.04.2018 17:07 17,9 °C 26 % 1000,9 hPa 0,0 mm 5,5 km/h (1 Bft) SW 234 ° 0 min 0,000 mm 1,2 UV-I 83 W/m² -1,9 °C 17,9 °C 11,3 km/h (2 Bft)
04.04.2018 17:08 17,8 °C 28 % 1000,9 hPa 0,0 mm 7,0 km/h (2 Bft) S-SW 211 ° 0 min 0,000 mm 1,1 UV-I 83 W/m² -0,9 °C 17,8 °C 12,9 km/h (3 Bft)
04.04.2018 17:09 17,7 °C 28 % 1000,9 hPa 0,0 mm 4,4 km/h (1 Bft) SW 232 ° 0 min 0,000 mm 1,1 UV-I 81 W/m² -1,0 °C 17,7 °C 9,7 km/h (2 Bft)
04.04.2018 17:10 17,7 °C 28 % 1000,9 hPa 0,0 mm 7,0 km/h (2 Bft) SW 236 ° 0 min 0,000 mm 1,1 UV-I 79 W/m² -1,0 °C 17,7 °C 12,9 km/h (3 Bft)
04.04.2018 17:11 17,7 °C 29 % 1001,0 hPa 0,0 mm 5,3 km/h (1 Bft) SW 225 ° 0 min 0,000 mm 1,1 UV-I 77 W/m² -0,6 °C 17,7 °C 9,7 km/h (2 Bft)
04.04.2018 17:12 17,6 °C 29 % 1001,0 hPa 0,0 mm 5,3 km/h (1 Bft) W-SW 257 ° 0 min 0,000 mm 1,1 UV-I 74 W/m² -0,6 °C 17,6 °C 8,0 km/h (2 Bft)
04.04.2018 17:13 17,5 °C 30 % 1001,0 hPa 0,0 mm 6,1 km/h (2 Bft) W-SW 254 ° 0 min 0,000 mm 1,0 UV-I 70 W/m² -0,3 °C 17,5 °C 8,0 km/h (2 Bft)
04.04.2018 17:14 17,4 °C 29 % 1001,1 hPa 0,0 mm 1,7 km/h (1 Bft) W-SW 240 ° 0 min 0,000 mm 1,0 UV-I 69 W/m² -0,8 °C 17,4 °C 6,4 km/h (2 Bft)
04.04.2018 17:15 17,4 °C 29 % 1001,1 hPa 0,0 mm 7,4 km/h (2 Bft) W-SW 241 ° 0 min 0,000 mm 1,0 UV-I 69 W/m² -0,8 °C 17,4 °C 17,7 km/h (3 Bft)
04.04.2018 17:16 17,3 °C 29 % 1001,1 hPa 0,0 mm 10,7 km/h (2 Bft) W 273 ° 0 min 0,000 mm 1,0 UV-I 69 W/m² -0,9 °C 17,3 °C 20,9 km/h (4 Bft)
04.04.2018 17:17 17,3 °C 28 % 1001,0 hPa 0,0 mm 7,0 km/h (2 Bft) S-SW 193 ° 0 min 0,000 mm 1,0 UV-I 70 W/m² -1,4 °C 17,3 °C 9,7 km/h (2 Bft)
04.04.2018 17:18 17,3 °C 29 % 1001,1 hPa 0,0 mm 6,5 km/h (2 Bft) SW 217 ° 0 min 0,000 mm 1,0 UV-I 72 W/m² -0,9 °C 17,3 °C 8,0 km/h (2 Bft)
04.04.2018 17:19 17,3 °C 29 % 1001,2 hPa 0,0 mm 6,4 km/h (2 Bft) W-SW 247 ° 0 min 0,000 mm 0,9 UV-I 76 W/m² -0,9 °C 17,3 °C 11,3 km/h (2 Bft)
04.04.2018 17:20 17,3 °C 28 % 1001,1 hPa 0,0 mm 3,8 km/h (1 Bft) S-SW 209 ° 0 min 0,000 mm 0,9 UV-I 77 W/m² -1,4 °C 17,3 °C 4,8 km/h (1 Bft)
04.04.2018 17:21 17,4 °C 29 % 1001,2 hPa 0,0 mm 2,6 km/h (1 Bft) SW 215 ° 0 min 0,000 mm 0,9 UV-I 79 W/m² -0,8 °C 17,4 °C 4,8 km/h (1 Bft)
04.04.2018 17:22 17,3 °C 29 % 1001,2 hPa 0,0 mm 5,0 km/h (1 Bft) W-SW 251 ° 0 min 0,000 mm 0,9 UV-I 81 W/m² -0,9 °C 17,3 °C 6,4 km/h (2 Bft)
04.04.2018 17:23 17,3 °C 30 % 1001,3 hPa 0,0 mm 4,4 km/h (1 Bft) SW 234 ° 0 min 0,000 mm 0,9 UV-I 83 W/m² -0,4 °C 17,3 °C 6,4 km/h (2 Bft)
04.04.2018 17:24 17,3 °C 30 % 1001,4 hPa 0,0 mm 9,5 km/h (2 Bft) S 176 ° 0 min 0,000 mm 0,9 UV-I 88 W/m² -0,4 °C 17,3 °C 19,3 km/h (3 Bft)
04.04.2018 17:25 17,3 °C 29 % 1001,4 hPa 0,0 mm 5,8 km/h (2 Bft) S-SW 208 ° 0 min 0,000 mm 0,9 UV-I 98 W/m² -0,9 °C 17,3 °C 9,7 km/h (2 Bft)
04.04.2018 17:26 17,3 °C 30 % 1001,4 hPa 0,0 mm 3,9 km/h (1 Bft) SW 231 ° 0 min 0,000 mm 0,9 UV-I 107 W/m² -0,4 °C 17,3 °C 8,0 km/h (2 Bft)
04.04.2018 17:27 17,3 °C 31 % 1001,4 hPa 0,0 mm 6,2 km/h (2 Bft) S-SW 207 ° 0 min 0,000 mm 0,9 UV-I 116 W/m² 0,0 °C 17,3 °C 12,9 km/h (3 Bft)
04.04.2018 17:28 17,3 °C 29 % 1001,5 hPa 0,0 mm 0,8 km/h (0 Bft) S-SW 194 ° 0 min 0,000 mm 0,9 UV-I 125 W/m² -0,9 °C 17,3 °C 3,2 km/h (1 Bft)
04.04.2018 17:29 17,3 °C 30 % 1001,5 hPa 0,0 mm 3,3 km/h (1 Bft) W-SW 258 ° 0 min 0,000 mm 1,0 UV-I 135 W/m² -0,4 °C 17,3 °C 6,4 km/h (2 Bft)
04.04.2018 17:30 17,3 °C 30 % 1001,5 hPa 0,0 mm 1,9 km/h (1 Bft) W-SW 258 ° 0 min 0,000 mm 1,0 UV-I 141 W/m² -0,4 °C 17,3 °C 4,8 km/h (1 Bft)
04.04.2018 17:31 17,3 °C 30 % 1001,4 hPa 0,0 mm 5,3 km/h (1 Bft) W 260 ° 0 min 0,000 mm 1,0 UV-I 148 W/m² -0,4 °C 17,3 °C 9,7 km/h (2 Bft)
04.04.2018 17:32 17,4 °C 30 % 1001,4 hPa 0,0 mm 4,2 km/h (1 Bft) S-SW 201 ° 0 min 0,000 mm 1,1 UV-I 148 W/m² -0,3 °C 17,4 °C 6,4 km/h (2 Bft)
04.04.2018 17:33 17,5 °C 29 % 1001,4 hPa 0,0 mm 2,9 km/h (1 Bft) SW 225 ° 0 min 0,000 mm 1,1 UV-I 174 W/m² -0,7 °C 17,5 °C 4,8 km/h (1 Bft)
04.04.2018 17:34 17,5 °C 30 % 1001,4 hPa 0,0 mm 6,0 km/h (2 Bft) W 262 ° 0 min 0,000 mm 1,0 UV-I 134 W/m² -0,3 °C 17,5 °C 9,7 km/h (2 Bft)
04.04.2018 17:35 17,6 °C 29 % 1001,4 hPa 0,0 mm 6,5 km/h (2 Bft) W-NW 288 ° 0 min 0,000 mm 1,0 UV-I 123 W/m² -0,6 °C 17,6 °C 11,3 km/h (2 Bft)
04.04.2018 17:36 17,6 °C 30 % 1001,5 hPa 0,0 mm 2,3 km/h (1 Bft) W-SW 255 ° 0 min 0,000 mm 1,1 UV-I 144 W/m² -0,2 °C 17,6 °C 3,2 km/h (1 Bft)
04.04.2018 17:37 17,6 °C 30 % 1001,4 hPa 0,0 mm 3,2 km/h (1 Bft) SW 220 ° 0 min 0,000 mm 1,0 UV-I 95 W/m² -0,2 °C 17,6 °C 6,4 km/h (2 Bft)
04.04.2018 17:38 17,6 °C 30 % 1001,5 hPa 0,0 mm 6,6 km/h (2 Bft) W 259 ° 0 min 0,000 mm 0,9 UV-I 84 W/m² -0,2 °C 17,6 °C 12,9 km/h (3 Bft)
04.04.2018 17:39 17,6 °C 31 % 1001,5 hPa 0,0 mm 7,4 km/h (2 Bft) W-SW 257 ° 0 min 0,000 mm 0,9 UV-I 77 W/m² 0,3 °C 17,6 °C 11,3 km/h (2 Bft)
04.04.2018 17:40 17,6 °C 31 % 1001,6 hPa 0,0 mm 11,6 km/h (2 Bft) W 271 ° 0 min 0,000 mm 0,9 UV-I 72 W/m² 0,3 °C 17,6 °C 17,7 km/h (3 Bft)
04.04.2018 17:41 17,6 °C 29 % 1001,8 hPa 0,0 mm 17,1 km/h (3 Bft) W 260 ° 0 min 0,000 mm 0,9 UV-I 74 W/m² -0,6 °C 17,6 °C 30,6 km/h (5 Bft)
04.04.2018 17:42 17,4 °C 34 % 1002,1 hPa 0,0 mm 18,5 km/h (3 Bft) W-NW 300 ° 0 min 0,000 mm 0,9 UV-I 79 W/m² 1,4 °C 17,4 °C 30,6 km/h (5 Bft)
04.04.2018 17:43 17,2 °C 38 % 1002,1 hPa 0,0 mm 22,1 km/h (4 Bft) NW 319 ° 0 min 0,000 mm 0,9 UV-I 83 W/m² 2,8 °C 17,2 °C 30,6 km/h (5 Bft)
04.04.2018 17:44 16,9 °C 40 % 1002,1 hPa 0,0 mm 21,2 km/h (4 Bft) W-NW 296 ° 0 min 0,000 mm 0,9 UV-I 83 W/m² 3,2 °C 16,9 °C 32,2 km/h (5 Bft)
04.04.2018 17:45 16,6 °C 40 % 1002,2 hPa 0,0 mm 23,6 km/h (4 Bft) W 281 ° 0 min 0,000 mm 0,9 UV-I 91 W/m² 2,9 °C 16,6 °C 37,0 km/h (5 Bft)
04.04.2018 17:46 16,2 °C 42 % 1002,3 hPa 0,0 mm 22,5 km/h (4 Bft) W 265 ° 0 min 0,000 mm 0,9 UV-I 105 W/m² 3,3 °C 16,2 °C 29,0 km/h (5 Bft)
04.04.2018 17:47 15,9 °C 43 % 1002,3 hPa 0,0 mm 25,0 km/h (4 Bft) W 261 ° 0 min 0,000 mm 0,9 UV-I 104 W/m² 3,3 °C 15,9 °C 37,0 km/h (5 Bft)
04.04.2018 17:48 15,7 °C 44 % 1002,5 hPa 0,0 mm 25,5 km/h (4 Bft) W 268 ° 0 min 0,000 mm 0,9 UV-I 107 W/m² 3,5 °C 15,7 °C 38,6 km/h (5 Bft)
04.04.2018 17:49 15,5 °C 46 % 1002,4 hPa 0,0 mm 29,5 km/h (5 Bft) NW 304 ° 0 min 0,000 mm 0,9 UV-I 111 W/m² 3,9 °C 15,5 °C 37,0 km/h (5 Bft)
04.04.2018 17:50 15,3 °C 47 % 1002,6 hPa 0,0 mm 21,3 km/h (4 Bft) W-NW 302 ° 0 min 0,000 mm 0,9 UV-I 118 W/m² 4,1 °C 15,3 °C 40,2 km/h (6 Bft)
04.04.2018 17:51 15,1 °C 47 % 1002,5 hPa 0,0 mm 13,9 km/h (3 Bft) W-NW 282 ° 0 min 0,000 mm 0,9 UV-I 123 W/m² 3,9 °C 15,1 °C 22,5 km/h (4 Bft)
04.04.2018 17:52 14,9 °C 49 % 1002,6 hPa 0,0 mm 16,0 km/h (3 Bft) NW 312 ° 0 min 0,000 mm 0,9 UV-I 130 W/m² 4,3 °C 14,9 °C 25,7 km/h (4 Bft)
04.04.2018 17:53 14,8 °C 49 % 1002,6 hPa 0,0 mm 15,6 km/h (3 Bft) W-NW 288 ° 0 min 0,000 mm 0,9 UV-I 128 W/m² 4,2 °C 14,8 °C 20,9 km/h (4 Bft)
04.04.2018 17:54 14,8 °C 51 % 1002,7 hPa 0,0 mm 23,4 km/h (4 Bft) W 259 ° 0 min 0,000 mm 0,9 UV-I 104 W/m² 4,8 °C 14,8 °C 33,8 km/h (5 Bft)
04.04.2018 17:55 14,6 °C 51 % 1002,8 hPa 0,0 mm 25,4 km/h (4 Bft) W 276 ° 0 min 0,000 mm 0,9 UV-I 93 W/m² 4,6 °C 14,6 °C 38,6 km/h (5 Bft)
04.04.2018 17:56 14,6 °C 51 % 1002,8 hPa 0,0 mm 22,7 km/h (4 Bft) W 263 ° 0 min 0,000 mm 0,8 UV-I 84 W/m² 4,6 °C 14,6 °C 33,8 km/h (5 Bft)
04.04.2018 17:57 14,3 °C 52 % 1002,7 hPa 0,0 mm 24,0 km/h (4 Bft) W-SW 254 ° 0 min 0,000 mm 0,8 UV-I 81 W/m² 4,6 °C 14,3 °C 30,6 km/h (5 Bft)
04.04.2018 17:58 14,2 °C 53 % 1002,8 hPa 0,0 mm 23,2 km/h (4 Bft) W-NW 296 ° 0 min 0,000 mm 0,8 UV-I 95 W/m² 4,8 °C 14,2 °C 32,2 km/h (5 Bft)
04.04.2018 17:59 14,1 °C 53 % 1002,7 hPa 0,0 mm 20,2 km/h (4 Bft) W 275 ° 0 min 0,000 mm 0,8 UV-I 109 W/m² 4,7 °C 14,1 °C 27,4 km/h (4 Bft)
04.04.2018 18:00 13,9 °C 54 % 1002,8 hPa 0,0 mm 23,1 km/h (4 Bft) W-NW 286 ° 0 min 0,000 mm 0,8 UV-I 91 W/m² 4,7 °C 13,9 °C 32,2 km/h (5 Bft)
04.04.2018 18:01 13,8 °C 55 % 1002,7 hPa 0,0 mm 25,7 km/h (4 Bft) W-SW 251 ° 0 min 0,152 mm 0,8 UV-I 91 W/m² 4,9 °C 13,8 °C 37,0 km/h (5 Bft)
04.04.2018 18:02 13,7 °C 55 % 1002,8 hPa 0,0 mm 18,5 km/h (3 Bft) W-NW 302 ° 0 min 0,000 mm 0,8 UV-I 120 W/m² 4,8 °C 13,7 °C 33,8 km/h (5 Bft)
04.04.2018 18:03 13,6 °C 56 % 1002,8 hPa 0,0 mm 25,8 km/h (4 Bft) W-SW 250 ° 0 min 0,000 mm 0,8 UV-I 56 W/m² 5,0 °C 13,6 °C 53,1 km/h (7 Bft)
04.04.2018 18:04 13,6 °C 56 % 1002,9 hPa 0,0 mm 33,6 km/h (5 Bft) W-NW 286 ° 0 min 0,000 mm 0,0 UV-I 37 W/m² 5,0 °C 13,6 °C 51,5 km/h (7 Bft)
04.04.2018 18:05 13,4 °C 56 % 1003,1 hPa 0,0 mm 19,5 km/h (3 Bft) W 269 ° 0 min 0,000 mm 0,0 UV-I 39 W/m² 4,8 °C 13,4 °C 25,7 km/h (4 Bft)
04.04.2018 18:06 13,3 °C 56 % 1003,2 hPa 0,0 mm 26,6 km/h (4 Bft) W-SW 248 ° 0 min 0,000 mm 0,0 UV-I 35 W/m² 4,7 °C 13,3 °C 35,4 km/h (5 Bft)
04.04.2018 18:07 13,3 °C 57 % 1003,1 hPa 0,0 mm 25,2 km/h (4 Bft) W-NW 289 ° 0 min 0,000 mm 0,0 UV-I 35 W/m² 5,0 °C 13,3 °C 32,2 km/h (5 Bft)
04.04.2018 18:08 13,2 °C 57 % 1003,1 hPa 0,0 mm 28,0 km/h (4 Bft) S-SW 202 ° 0 min 0,000 mm 0,0 UV-I 33 W/m² 4,9 °C 13,2 °C 43,5 km/h (6 Bft)
04.04.2018 18:09 13,1 °C 57 % 1003,1 hPa 0,0 mm 30,2 km/h (5 Bft) W 263 ° 0 min 0,000 mm 0,0 UV-I 33 W/m² 4,8 °C 13,1 °C 56,3 km/h (7 Bft)
04.04.2018 18:10 12,9 °C 57 % 1003,2 hPa 0,0 mm 31,9 km/h (5 Bft) W 268 ° 0 min 0,000 mm 0,0 UV-I 33 W/m² 4,6 °C 12,9 °C 59,5 km/h (7 Bft)
04.04.2018 18:11 12,7 °C 58 % 1003,4 hPa 0,0 mm 32,2 km/h (5 Bft) W 264 ° 0 min 0,000 mm 0,0 UV-I 44 W/m² 4,7 °C 12,7 °C 54,7 km/h (7 Bft)
04.04.2018 18:12 12,6 °C 58 % 1003,4 hPa 0,0 mm 21,7 km/h (4 Bft) W 269 ° 0 min 0,000 mm 0,0 UV-I 32 W/m² 4,6 °C 12,6 °C 45,1 km/h (6 Bft)
04.04.2018 18:13 12,5 °C 59 % 1003,4 hPa 0,0 mm 30,0 km/h (5 Bft) W 264 ° 0 min 0,000 mm 0,0 UV-I 28 W/m² 4,7 °C 12,5 °C 43,5 km/h (6 Bft)
04.04.2018 18:14 12,4 °C 59 % 1003,5 hPa 0,0 mm 26,4 km/h (4 Bft) W 264 ° 0 min 0,000 mm 0,0 UV-I 26 W/m² 4,6 °C 12,4 °C 40,2 km/h (6 Bft)
04.04.2018 18:15 12,3 °C 59 % 1003,7 hPa 0,0 mm 32,5 km/h (5 Bft) W-SW 252 ° 0 min 0,000 mm 0,0 UV-I 30 W/m² 4,5 °C 12,3 °C 43,5 km/h (6 Bft)
04.04.2018 18:16 12,2 °C 59 % 1003,5 hPa 0,0 mm 27,9 km/h (4 Bft) W 267 ° 0 min 0,000 mm 0,0 UV-I 35 W/m² 4,4 °C 12,2 °C 40,2 km/h (6 Bft)
04.04.2018 18:17 12,0 °C 60 % 1003,8 hPa 0,0 mm 31,6 km/h (5 Bft) W-NW 298 ° 0 min 0,000 mm 0,0 UV-I 30 W/m² 4,5 °C 12,0 °C 40,2 km/h (6 Bft)
04.04.2018 18:18 11,9 °C 60 % 1003,7 hPa 0,0 mm 23,2 km/h (4 Bft) W-SW 242 ° 0 min 0,000 mm 0,0 UV-I 32 W/m² 4,4 °C 11,9 °C 40,2 km/h (6 Bft)
04.04.2018 18:19 11,8 °C 60 % 1003,5 hPa 0,0 mm 21,7 km/h (4 Bft) W 260 ° 0 min 0,000 mm 0,0 UV-I 32 W/m² 4,3 °C 11,8 °C 33,8 km/h (5 Bft)
04.04.2018 18:20 11,7 °C 60 % 1003,7 hPa 0,0 mm 30,8 km/h (5 Bft) W 263 ° 0 min 0,000 mm 0,0 UV-I 32 W/m² 4,2 °C 11,7 °C 45,1 km/h (6 Bft)
04.04.2018 18:21 11,7 °C 59 % 1003,7 hPa 0,0 mm 27,4 km/h (4 Bft) W-SW 254 ° 0 min 0,000 mm 0,0 UV-I 33 W/m² 4,0 °C 11,7 °C 35,4 km/h (5 Bft)
04.04.2018 18:22 11,6 °C 60 % 1003,7 hPa 0,0 mm 22,6 km/h (4 Bft) W-NW 283 ° 0 min 0,000 mm 0,0 UV-I 39 W/m² 4,1 °C 11,6 °C 32,2 km/h (5 Bft)
04.04.2018 18:23 11,6 °C 60 % 1003,7 hPa 0,0 mm 19,1 km/h (3 Bft) W 281 ° 0 min 0,000 mm 0,0 UV-I 70 W/m² 4,1 °C 11,6 °C 25,7 km/h (4 Bft)
04.04.2018 18:24 11,5 °C 60 % 1003,7 hPa 0,0 mm 23,3 km/h (4 Bft) W 277 ° 0 min 0,000 mm 0,6 UV-I 63 W/m² 4,0 °C 11,5 °C 35,4 km/h (5 Bft)
04.04.2018 18:25 11,5 °C 60 % 1003,7 hPa 0,0 mm 28,2 km/h (4 Bft) W-NW 286 ° 0 min 0,000 mm 0,0 UV-I 40 W/m² 4,0 °C 11,5 °C 40,2 km/h (6 Bft)
04.04.2018 18:26 11,4 °C 60 % 1003,6 hPa 0,0 mm 22,8 km/h (4 Bft) W-SW 257 ° 0 min 0,000 mm 0,0 UV-I 32 W/m² 3,9 °C 11,4 °C 54,7 km/h (7 Bft)
04.04.2018 18:27 11,4 °C 60 % 1003,9 hPa 0,0 mm 37,8 km/h (5 Bft) W-SW 254 ° 0 min 0,000 mm 0,0 UV-I 46 W/m² 3,9 °C 11,4 °C 48,3 km/h (6 Bft)
04.04.2018 18:28 11,3 °C 60 % 1003,7 hPa 0,0 mm 20,4 km/h (4 Bft) W 263 ° 0 min 0,000 mm 0,6 UV-I 56 W/m² 3,8 °C 11,3 °C 30,6 km/h (5 Bft)
04.04.2018 18:29 11,3 °C 61 % 1003,7 hPa 0,0 mm 23,3 km/h (4 Bft) W-NW 288 ° 0 min 0,000 mm 0,6 UV-I 49 W/m² 4,1 °C 11,3 °C 32,2 km/h (5 Bft)
04.04.2018 18:30 11,3 °C 61 % 1003,7 hPa 0,0 mm 30,1 km/h (5 Bft) W 261 ° 0 min 0,000 mm 0,0 UV-I 46 W/m² 4,1 °C 11,3 °C 43,5 km/h (6 Bft)
04.04.2018 18:31 11,2 °C 61 % 1003,7 hPa 0,0 mm 25,7 km/h (4 Bft) NW 309 ° 0 min 0,000 mm 0,5 UV-I 69 W/m² 4,0 °C 11,2 °C 41,8 km/h (6 Bft)
04.04.2018 18:32 11,2 °C 61 % 1004,0 hPa 0,0 mm 32,0 km/h (5 Bft) W-NW 288 ° 0 min 0,000 mm 0,5 UV-I 67 W/m² 4,0 °C 11,2 °C 45,1 km/h (6 Bft)
04.04.2018 18:33 11,2 °C 61 % 1003,8 hPa 0,0 mm 24,1 km/h (4 Bft) W 261 ° 0 min 0,000 mm 0,5 UV-I 77 W/m² 4,0 °C 11,2 °C 38,6 km/h (5 Bft)
04.04.2018 18:34 11,2 °C 62 % 1003,9 hPa 0,0 mm 23,2 km/h (4 Bft) W-NW 286 ° 0 min 0,000 mm 0,5 UV-I 69 W/m² 4,2 °C 11,2 °C 29,0 km/h (5 Bft)
04.04.2018 18:35 11,1 °C 62 % 1003,9 hPa 0,0 mm 18,7 km/h (3 Bft) W-NW 287 ° 0 min 0,000 mm 0,0 UV-I 40 W/m² 4,1 °C 11,1 °C 29,0 km/h (5 Bft)
04.04.2018 18:36 11,0 °C 62 % 1003,9 hPa 0,0 mm 31,1 km/h (5 Bft) W-NW 288 ° 0 min 0,000 mm 0,0 UV-I 40 W/m² 4,0 °C 11,0 °C 41,8 km/h (6 Bft)
04.04.2018 18:37 10,9 °C 62 % 1004,0 hPa 0,0 mm 23,6 km/h (4 Bft) W 281 ° 0 min 0,000 mm 0,0 UV-I 28 W/m² 3,9 °C 10,9 °C 41,8 km/h (6 Bft)
04.04.2018 18:38 10,8 °C 62 % 1004,0 hPa 0,0 mm 26,1 km/h (4 Bft) W 273 ° 0 min 0,000 mm 0,0 UV-I 44 W/m² 3,8 °C 10,8 °C 35,4 km/h (5 Bft)
04.04.2018 18:39 10,8 °C 63 % 1004,2 hPa 0,0 mm 27,2 km/h (4 Bft) W 269 ° 0 min 0,000 mm 0,0 UV-I 54 W/m² 4,0 °C 10,8 °C 38,6 km/h (5 Bft)
04.04.2018 18:40 10,7 °C 63 % 1004,3 hPa 0,0 mm 25,8 km/h (4 Bft) W 264 ° 0 min 0,000 mm 0,5 UV-I 81 W/m² 3,9 °C 10,7 °C 45,1 km/h (6 Bft)
04.04.2018 18:41 10,7 °C 63 % 1004,2 hPa 0,0 mm 26,9 km/h (4 Bft) W 277 ° 0 min 0,000 mm 0,5 UV-I 63 W/m² 3,9 °C 10,7 °C 33,8 km/h (5 Bft)
04.04.2018 18:42 10,6 °C 63 % 1004,2 hPa 0,0 mm 21,9 km/h (4 Bft) W-SW 248 ° 0 min 0,000 mm 0,0 UV-I 40 W/m² 3,9 °C 10,6 °C 35,4 km/h (5 Bft)
04.04.2018 18:43 10,6 °C 64 % 1004,1 hPa 0,0 mm 30,3 km/h (5 Bft) W 263 ° 0 min 0,000 mm 0,0 UV-I 46 W/m² 4,1 °C 10,6 °C 46,7 km/h (6 Bft)
04.04.2018 18:44 10,4 °C 64 % 1004,5 hPa 0,0 mm 32,2 km/h (5 Bft) W 277 ° 0 min 0,000 mm 0,0 UV-I 35 W/m² 3,9 °C 10,4 °C 49,9 km/h (6 Bft)
04.04.2018 18:45 10,3 °C 64 % 1004,5 hPa 0,0 mm 24,0 km/h (4 Bft) W 262 ° 0 min 0,000 mm 0,0 UV-I 21 W/m² 3,8 °C 10,3 °C 35,4 km/h (5 Bft)
04.04.2018 18:46 10,3 °C 64 % 1004,5 hPa 0,0 mm 30,0 km/h (5 Bft) N-NW 329 ° 0 min 0,000 mm 0,0 UV-I 21 W/m² 3,8 °C 10,3 °C 40,2 km/h (6 Bft)
04.04.2018 18:47 10,2 °C 64 % 1004,5 hPa 0,0 mm 26,3 km/h (4 Bft) W 267 ° 0 min 0,000 mm 0,0 UV-I 21 W/m² 3,7 °C 10,2 °C 37,0 km/h (5 Bft)
04.04.2018 18:48 10,1 °C 65 % 1004,7 hPa 0,0 mm 27,6 km/h (4 Bft) W-SW 246 ° 0 min 0,000 mm 0,0 UV-I 19 W/m² 3,8 °C 10,1 °C 40,2 km/h (6 Bft)
04.04.2018 18:49 10,0 °C 65 % 1004,7 hPa 0,0 mm 26,8 km/h (4 Bft) W 271 ° 0 min 0,000 mm 0,0 UV-I 19 W/m² 3,7 °C 6,8 °C 37,0 km/h (5 Bft)
04.04.2018 18:50 9,9 °C 66 % 1004,7 hPa 0,0 mm 22,5 km/h (4 Bft) W-SW 238 ° 0 min 0,000 mm 0,0 UV-I 19 W/m² 3,9 °C 7,0 °C 32,2 km/h (5 Bft)
04.04.2018 18:51 9,9 °C 66 % 1004,8 hPa 0,0 mm 23,8 km/h (4 Bft) W 265 ° 0 min 0,000 mm 0,0 UV-I 19 W/m² 3,9 °C 6,9 °C 38,6 km/h (5 Bft)
04.04.2018 18:52 9,8 °C 66 % 1004,8 hPa 0,0 mm 21,9 km/h (4 Bft) W-NW 286 ° 0 min 0,000 mm 0,0 UV-I 18 W/m² 3,8 °C 6,9 °C 33,8 km/h (5 Bft)
04.04.2018 18:53 9,8 °C 66 % 1004,8 hPa 0,0 mm 21,9 km/h (4 Bft) W 277 ° 0 min 0,000 mm 0,0 UV-I 18 W/m² 3,8 °C 6,9 °C 30,6 km/h (5 Bft)
04.04.2018 18:54 9,7 °C 67 % 1004,9 hPa 0,0 mm 12,6 km/h (3 Bft) SW 236 ° 0 min 0,000 mm 0,0 UV-I 18 W/m² 3,9 °C 7,9 °C 17,7 km/h (3 Bft)
04.04.2018 18:55 9,7 °C 67 % 1005,0 hPa 0,0 mm 22,9 km/h (4 Bft) W-SW 246 ° 0 min 0,000 mm 0,0 UV-I 18 W/m² 3,9 °C 6,7 °C 30,6 km/h (5 Bft)
04.04.2018 18:56 9,6 °C 67 % 1005,0 hPa 0,0 mm 27,4 km/h (4 Bft) W 266 ° 0 min 0,000 mm 0,0 UV-I 19 W/m² 3,8 °C 6,2 °C 37,0 km/h (5 Bft)
04.04.2018 18:57 9,5 °C 68 % 1005,0 hPa 0,0 mm 26,0 km/h (4 Bft) W 264 ° 0 min 0,000 mm 0,0 UV-I 19 W/m² 3,9 °C 6,2 °C 30,6 km/h (5 Bft)
04.04.2018 18:58 9,4 °C 68 % 1005,0 hPa 0,0 mm 22,0 km/h (4 Bft) NW 309 ° 0 min 0,000 mm 0,0 UV-I 19 W/m² 3,8 °C 6,4 °C 32,2 km/h (5 Bft)
04.04.2018 18:59 9,3 °C 68 % 1005,2 hPa 0,0 mm 18,2 km/h (3 Bft) W-NW 302 ° 0 min 0,000 mm 0,0 UV-I 25 W/m² 3,7 °C 6,7 °C 30,6 km/h (5 Bft)
04.04.2018 19:00 9,3 °C 68 % 1005,1 hPa 0,0 mm 25,1 km/h (4 Bft) W 273 ° 0 min 0,000 mm 0,0 UV-I 23 W/m² 3,7 °C 6,0 °C 40,2 km/h (6 Bft)
04.04.2018 19:01 9,3 °C 68 % 1005,1 hPa 0,0 mm 25,6 km/h (4 Bft) W-NW 297 ° 0 min 0,127 mm 0,0 UV-I 25 W/m² 3,7 °C 6,0 °C 40,2 km/h (6 Bft)
04.04.2018 19:02 9,2 °C 69 % 1005,1 hPa 0,0 mm 20,3 km/h (4 Bft) N-NW 338 ° 0 min 0,000 mm 0,0 UV-I 21 W/m² 3,8 °C 6,3 °C 32,2 km/h (5 Bft)
04.04.2018 19:03 9,2 °C 69 % 1005,1 hPa 0,0 mm 22,2 km/h (4 Bft) W 268 ° 0 min 0,000 mm 0,0 UV-I 21 W/m² 3,8 °C 6,2 °C 32,2 km/h (5 Bft)
04.04.2018 19:04 9,1 °C 69 % 1005,1 hPa 0,0 mm 16,9 km/h (3 Bft) W 263 ° 0 min 0,000 mm 0,0 UV-I 26 W/m² 3,7 °C 6,6 °C 24,1 km/h (4 Bft)
04.04.2018 19:05 9,1 °C 69 % 1005,2 hPa 0,0 mm 14,5 km/h (3 Bft) N-NW 327 ° 0 min 0,000 mm 0,0 UV-I 30 W/m² 3,7 °C 6,9 °C 19,3 km/h (3 Bft)
04.04.2018 19:06 9,0 °C 69 % 1005,4 hPa 0,0 mm 19,7 km/h (3 Bft) W 273 ° 0 min 0,000 mm 0,0 UV-I 37 W/m² 3,6 °C 6,1 °C 27,4 km/h (4 Bft)
04.04.2018 19:07 8,9 °C 69 % 1005,5 hPa 0,0 mm 12,9 km/h (3 Bft) NW 311 ° 0 min 0,000 mm 0,0 UV-I 42 W/m² 3,5 °C 6,8 °C 17,7 km/h (3 Bft)
04.04.2018 19:08 8,9 °C 70 % 1005,6 hPa 0,0 mm 15,8 km/h (3 Bft) W 267 ° 0 min 0,000 mm 0,0 UV-I 33 W/m² 3,7 °C 6,5 °C 27,4 km/h (4 Bft)
04.04.2018 19:09 8,8 °C 70 % 1005,6 hPa 0,0 mm 19,1 km/h (3 Bft) W 276 ° 0 min 0,000 mm 0,0 UV-I 35 W/m² 3,6 °C 6,0 °C 35,4 km/h (5 Bft)
04.04.2018 19:10 8,8 °C 70 % 1005,8 hPa 0,0 mm 22,8 km/h (4 Bft) SW 234 ° 0 min 0,000 mm 0,0 UV-I 37 W/m² 3,6 °C 5,6 °C 32,2 km/h (5 Bft)
04.04.2018 19:11 8,8 °C 70 % 1005,8 hPa 0,0 mm 18,4 km/h (3 Bft) W-NW 289 ° 0 min 0,000 mm 0,0 UV-I 40 W/m² 3,6 °C 6,0 °C 24,1 km/h (4 Bft)
04.04.2018 19:12 8,7 °C 70 % 1005,8 hPa 0,0 mm 22,1 km/h (4 Bft) W-NW 298 ° 0 min 0,000 mm 0,0 UV-I 39 W/m² 3,5 °C 5,5 °C 33,8 km/h (5 Bft)
04.04.2018 19:13 8,7 °C 70 % 1005,8 hPa 0,0 mm 18,8 km/h (3 Bft) N 355 ° 0 min 0,000 mm 0,0 UV-I 39 W/m² 3,5 °C 5,9 °C 25,7 km/h (4 Bft)
04.04.2018 19:14 8,6 °C 70 % 1005,9 hPa 0,0 mm 16,0 km/h (3 Bft) W 265 ° 0 min 0,000 mm 0,0 UV-I 40 W/m² 3,4 °C 6,1 °C 30,6 km/h (5 Bft)
04.04.2018 19:15 8,6 °C 70 % 1006,0 hPa 0,0 mm 27,2 km/h (4 Bft) W-NW 292 ° 0 min 0,000 mm 0,0 UV-I 40 W/m² 3,4 °C 5,0 °C 37,0 km/h (5 Bft)
04.04.2018 19:16 8,4 °C 71 % 1005,9 hPa 0,0 mm 18,4 km/h (3 Bft) W-SW 256 ° 0 min 0,000 mm 0,0 UV-I 42 W/m² 3,5 °C 5,5 °C 25,7 km/h (4 Bft)
04.04.2018 19:17 8,4 °C 71 % 1006,0 hPa 0,0 mm 13,8 km/h (3 Bft) W-NW 282 ° 0 min 0,000 mm 0,0 UV-I 44 W/m² 3,5 °C 6,1 °C 24,1 km/h (4 Bft)
04.04.2018 19:18 8,3 °C 71 % 1005,9 hPa 0,0 mm 19,2 km/h (3 Bft) W 276 ° 0 min 0,000 mm 0,0 UV-I 46 W/m² 3,4 °C 5,3 °C 27,4 km/h (4 Bft)
04.04.2018 19:19 8,3 °C 71 % 1006,0 hPa 0,0 mm 17,1 km/h (3 Bft) W-NW 288 ° 0 min 0,000 mm 0,0 UV-I 49 W/m² 3,4 °C 5,6 °C 25,7 km/h (4 Bft)
04.04.2018 19:20 8,3 °C 71 % 1005,9 hPa 0,0 mm 12,5 km/h (3 Bft) W 281 ° 0 min 0,000 mm 0,0 UV-I 53 W/m² 3,4 °C 6,2 °C 20,9 km/h (4 Bft)
04.04.2018 19:21 8,3 °C 72 % 1006,0 hPa 0,0 mm 19,5 km/h (3 Bft) W 271 ° 0 min 0,000 mm 0,0 UV-I 54 W/m² 3,6 °C 5,3 °C 30,6 km/h (5 Bft)
04.04.2018 19:22 8,2 °C 72 % 1006,0 hPa 0,0 mm 12,1 km/h (2 Bft) W-SW 257 ° 0 min 0,000 mm 0,0 UV-I 54 W/m² 3,5 °C 6,1 °C 19,3 km/h (3 Bft)
04.04.2018 19:23 8,1 °C 72 % 1006,0 hPa 0,0 mm 14,8 km/h (3 Bft) W-SW 238 ° 0 min 0,000 mm 0,0 UV-I 53 W/m² 3,4 °C 5,6 °C 17,7 km/h (3 Bft)
04.04.2018 19:24 8,1 °C 72 % 1006,0 hPa 0,0 mm 12,8 km/h (3 Bft) W 265 ° 0 min 0,000 mm 0,0 UV-I 49 W/m² 3,4 °C 5,9 °C 19,3 km/h (3 Bft)
04.04.2018 19:25 8,1 °C 73 % 1006,0 hPa 0,0 mm 16,1 km/h (3 Bft) W-NW 303 ° 0 min 0,000 mm 0,0 UV-I 46 W/m² 3,6 °C 5,4 °C 32,2 km/h (5 Bft)
04.04.2018 19:26 7,9 °C 73 % 1006,0 hPa 0,0 mm 10,3 km/h (2 Bft) W 264 ° 0 min 0,000 mm 0,0 UV-I 42 W/m² 3,4 °C 6,1 °C 17,7 km/h (3 Bft)
04.04.2018 19:27 7,9 °C 73 % 1006,0 hPa 0,0 mm 8,5 km/h (2 Bft) W 277 ° 0 min 0,000 mm 0,0 UV-I 42 W/m² 3,4 °C 6,4 °C 14,5 km/h (3 Bft)
04.04.2018 19:28 7,8 °C 73 % 1006,1 hPa 0,0 mm 13,7 km/h (3 Bft) W-SW 248 ° 0 min 0,000 mm 0,0 UV-I 39 W/m² 3,3 °C 5,4 °C 17,7 km/h (3 Bft)
04.04.2018 19:29 7,8 °C 73 % 1006,1 hPa 0,0 mm 10,2 km/h (2 Bft) W-SW 257 ° 0 min 0,000 mm 0,0 UV-I 35 W/m² 3,3 °C 6,0 °C 17,7 km/h (3 Bft)
04.04.2018 19:30 7,8 °C 74 % 1006,1 hPa 0,0 mm 17,2 km/h (3 Bft) W-SW 248 ° 0 min 0,000 mm 0,0 UV-I 32 W/m² 3,5 °C 4,9 °C 24,1 km/h (4 Bft)
04.04.2018 19:31 7,7 °C 74 % 1006,1 hPa 0,0 mm 8,4 km/h (2 Bft) W-SW 256 ° 0 min 0,000 mm 0,0 UV-I 28 W/m² 3,4 °C 6,2 °C 16,1 km/h (3 Bft)
04.04.2018 19:32 7,7 °C 74 % 1006,1 hPa 0,0 mm 8,9 km/h (2 Bft) W 262 ° 0 min 0,000 mm 0,0 UV-I 25 W/m² 3,4 °C 6,1 °C 14,5 km/h (3 Bft)
04.04.2018 19:33 7,7 °C 74 % 1006,2 hPa 0,0 mm 19,2 km/h (3 Bft) W-SW 250 ° 0 min 0,000 mm 0,0 UV-I 21 W/m² 3,4 °C 4,6 °C 25,7 km/h (4 Bft)
04.04.2018 19:34 7,6 °C 74 % 1006,2 hPa 0,0 mm 14,1 km/h (3 Bft) SW 230 ° 0 min 0,000 mm 0,0 UV-I 16 W/m² 3,3 °C 5,1 °C 24,1 km/h (4 Bft)
04.04.2018 19:35 7,6 °C 74 % 1006,2 hPa 0,0 mm 12,5 km/h (3 Bft) SW 228 ° 0 min 0,000 mm 0,0 UV-I 14 W/m² 3,3 °C 5,3 °C 19,3 km/h (3 Bft)
04.04.2018 19:36 7,5 °C 75 % 1006,3 hPa 0,0 mm 15,9 km/h (3 Bft) W-SW 244 ° 0 min 0,000 mm 0,0 UV-I 14 W/m² 3,4 °C 4,7 °C 32,2 km/h (5 Bft)
04.04.2018 19:37 7,4 °C 75 % 1006,3 hPa 0,0 mm 15,8 km/h (3 Bft) W-NW 286 ° 0 min 0,000 mm 0,0 UV-I 14 W/m² 3,3 °C 4,6 °C 20,9 km/h (4 Bft)
04.04.2018 19:38 7,4 °C 75 % 1006,3 hPa 0,0 mm 24,5 km/h (4 Bft) W-SW 242 ° 0 min 0,000 mm 0,0 UV-I 14 W/m² 3,3 °C 3,6 °C 32,2 km/h (5 Bft)
04.04.2018 19:39 7,4 °C 75 % 1006,2 hPa 0,0 mm 19,2 km/h (3 Bft) NW 321 ° 0 min 0,000 mm 0,0 UV-I 14 W/m² 3,3 °C 4,2 °C 25,7 km/h (4 Bft)
04.04.2018 19:40 7,4 °C 75 % 1006,3 hPa 0,0 mm 14,8 km/h (3 Bft) W 262 ° 0 min 0,000 mm 0,0 UV-I 14 W/m² 3,3 °C 4,7 °C 22,5 km/h (4 Bft)
04.04.2018 19:41 7,3 °C 75 % 1006,2 hPa 0,0 mm 16,5 km/h (3 Bft) W 263 ° 0 min 0,000 mm 0,0 UV-I 14 W/m² 3,2 °C 4,4 °C 27,4 km/h (4 Bft)
04.04.2018 19:42 7,3 °C 75 % 1006,3 hPa 0,0 mm 21,0 km/h (4 Bft) W-SW 254 ° 0 min 0,000 mm 0,0 UV-I 14 W/m² 3,2 °C 3,9 °C 29,0 km/h (5 Bft)
04.04.2018 19:43 7,3 °C 75 % 1006,3 hPa 0,0 mm 15,9 km/h (3 Bft) W 267 ° 0 min 0,000 mm 0,0 UV-I 16 W/m² 3,2 °C 4,5 °C 20,9 km/h (4 Bft)
04.04.2018 19:44 7,3 °C 75 % 1006,2 hPa 0,0 mm 12,3 km/h (3 Bft) W-NW 298 ° 0 min 0,000 mm 0,0 UV-I 16 W/m² 3,2 °C 5,0 °C 24,1 km/h (4 Bft)
04.04.2018 19:45 7,3 °C 76 % 1006,3 hPa 0,0 mm 14,8 km/h (3 Bft) W-SW 249 ° 0 min 0,000 mm 0,0 UV-I 18 W/m² 3,4 °C 4,6 °C 22,5 km/h (4 Bft)
04.04.2018 19:46 7,3 °C 76 % 1006,3 hPa 0,0 mm 14,8 km/h (3 Bft) W 268 ° 0 min 0,000 mm 0,0 UV-I 16 W/m² 3,4 °C 4,6 °C 22,5 km/h (4 Bft)
04.04.2018 19:47 7,3 °C 76 % 1006,4 hPa 0,0 mm 19,7 km/h (3 Bft) W-SW 238 ° 0 min 0,000 mm 0,0 UV-I 16 W/m² 3,4 °C 4,0 °C 25,7 km/h (4 Bft)
04.04.2018 19:48 7,3 °C 76 % 1006,3 hPa 0,0 mm 15,9 km/h (3 Bft) W 265 ° 0 min 0,000 mm 0,0 UV-I 14 W/m² 3,4 °C 4,5 °C 25,7 km/h (4 Bft)
04.04.2018 19:49 7,3 °C 76 % 1006,3 hPa 0,0 mm 14,1 km/h (3 Bft) W-SW 258 ° 0 min 0,000 mm 0,0 UV-I 12 W/m² 3,4 °C 4,7 °C 20,9 km/h (4 Bft)
04.04.2018 19:50 7,3 °C 76 % 1006,3 hPa 0,0 mm 22,8 km/h (4 Bft) W-SW 258 ° 0 min 0,000 mm 0,0 UV-I 9 W/m² 3,4 °C 3,7 °C 33,8 km/h (5 Bft)
04.04.2018 19:51 7,2 °C 76 % 1006,2 hPa 0,0 mm 15,1 km/h (3 Bft) W-SW 240 ° 0 min 0,000 mm 0,0 UV-I 5 W/m² 3,3 °C 4,4 °C 24,1 km/h (4 Bft)
04.04.2018 19:52 7,2 °C 76 % 1006,2 hPa 0,0 mm 19,0 km/h (3 Bft) W-NW 288 ° 0 min 0,000 mm 0,0 UV-I 0 W/m² 3,3 °C 4,0 °C 24,1 km/h (4 Bft)
04.04.2018 19:53 7,2 °C 76 % 1006,2 hPa 0,0 mm 15,3 km/h (3 Bft) W 279 ° 0 min 0,000 mm 0,0 UV-I 0 W/m² 3,3 °C 4,4 °C 20,9 km/h (4 Bft)
04.04.2018 19:54 7,2 °C 76 % 1006,3 hPa 0,0 mm 9,9 km/h (2 Bft) W 267 ° 0 min 0,000 mm 0,0 UV-I 0 W/m² 3,3 °C 5,3 °C 16,1 km/h (3 Bft)
04.04.2018 19:55 7,2 °C 77 % 1006,3 hPa 0,0 mm 8,9 km/h (2 Bft) SW 229 ° 0 min 0,000 mm 0,0 UV-I 0 W/m² 3,4 °C 5,5 °C 16,1 km/h (3 Bft)
04.04.2018 19:56 7,2 °C 76 % 1006,4 hPa 0,0 mm 5,3 km/h (1 Bft) W 261 ° 0 min 0,000 mm 0,0 UV-I 0 W/m² 3,3 °C 6,5 °C 9,7 km/h (2 Bft)
04.04.2018 19:57 7,1 °C 77 % 1006,4 hPa 0,0 mm 11,1 km/h (2 Bft) W-SW 253 ° 0 min 0,000 mm 0,0 UV-I 0 W/m² 3,3 °C 5,0 °C 16,1 km/h (3 Bft)
04.04.2018 19:58 7,1 °C 77 % 1006,4 hPa 0,0 mm 12,3 km/h (3 Bft) W 260 ° 0 min 0,000 mm 0,0 UV-I 0 W/m² 3,3 °C 4,8 °C 19,3 km/h (3 Bft)
04.04.2018 19:59 7,1 °C 77 % 1006,4 hPa 0,0 mm 11,5 km/h (2 Bft) W-SW 246 ° 0 min 0,000 mm 0,0 UV-I 0 W/m² 3,3 °C 4,9 °C 22,5 km/h (4 Bft)
04.04.2018 20:00 7,1 °C 77 % 1006,4 hPa 0,0 mm 15,1 km/h (3 Bft) W 269 ° 0 min 0,000 mm 0,0 UV-I 0 W/m² 3,3 °C 4,3 °C 22,5 km/h (4 Bft)
04.04.2018 20:01 7,1 °C 77 % 1006,4 hPa 0,0 mm 12,2 km/h (2 Bft) W 260 ° 0 min 0,051 mm 0,0 UV-I 0 W/m² 3,3 °C 4,8 °C 19,3 km/h (3 Bft)
04.04.2018 20:02 7,1 °C 77 % 1006,4 hPa 0,0 mm 8,4 km/h (2 Bft) SW 235 ° 0 min 0,000 mm 0,0 UV-I 0 W/m² 3,3 °C 5,5 °C 12,9 km/h (3 Bft)
04.04.2018 20:03 7,1 °C 77 % 1006,5 hPa 0,0 mm 9,7 km/h (2 Bft) W 263 ° 0 min 0,000 mm 0,0 UV-I 0 W/m² 3,3 °C 5,2 °C 19,3 km/h (3 Bft)
04.04.2018 20:04 7,1 °C 77 % 1006,5 hPa 0,0 mm 10,7 km/h (2 Bft) W-SW 250 ° 0 min 0,000 mm 0,0 UV-I 0 W/m² 3,3 °C 5,0 °C 19,3 km/h (3 Bft)
04.04.2018 20:05 7,1 °C 77 % 1006,5 hPa 0,0 mm 8,1 km/h (2 Bft) SW 236 ° 0 min 0,000 mm 0,0 UV-I 0 W/m² 3,3 °C 5,6 °C 11,3 km/h (2 Bft)
04.04.2018 20:06 7,1 °C 77 % 1006,5 hPa 0,0 mm 3,2 km/h (1 Bft) SW 229 ° 0 min 0,000 mm 0,0 UV-I 0 W/m² 3,3 °C 7,1 °C 4,8 km/h (1 Bft)
04.04.2018 20:07 7,1 °C 77 % 1006,5 hPa 0,0 mm 5,5 km/h (1 Bft) W-NW 297 ° 0 min 0,000 mm 0,0 UV-I 0 W/m² 3,3 °C 6,3 °C 8,0 km/h (2 Bft)
04.04.2018 20:08 7,1 °C 77 % 1006,5 hPa 0,0 mm 12,4 km/h (3 Bft) W 265 ° 0 min 0,000 mm 0,0 UV-I 0 W/m² 3,3 °C 4,7 °C 19,3 km/h (3 Bft)
04.04.2018 20:09 7,2 °C 77 % 1006,5 hPa 0,0 mm 10,0 km/h (2 Bft) W-SW 253 ° 0 min 0,000 mm 0,0 UV-I 0 W/m² 3,4 °C 5,3 °C 16,1 km/h (3 Bft)
04.04.2018 20:10 7,2 °C 77 % 1006,5 hPa 0,0 mm 9,7 km/h (2 Bft) W-SW 257 ° 0 min 0,000 mm 0,0 UV-I 0 W/m² 3,4 °C 5,3 °C 12,9 km/h (3 Bft)
04.04.2018 20:11 7,2 °C 77 % 1006,5 hPa 0,0 mm 6,8 km/h (2 Bft) W 268 ° 0 min 0,000 mm 0,0 UV-I 0 W/m² 3,4 °C 6,0 °C 16,1 km/h (3 Bft)
04.04.2018 20:12 7,2 °C 77 % 1006,4 hPa 0,0 mm 14,5 km/h (3 Bft) W-NW 302 ° 0 min 0,000 mm 0,0 UV-I 0 W/m² 3,4 °C 4,5 °C 20,9 km/h (4 Bft)
04.04.2018 20:13 7,2 °C 77 % 1006,4 hPa 0,0 mm 10,8 km/h (2 Bft) S-SW 196 ° 0 min 0,000 mm 0,0 UV-I 0 W/m² 3,4 °C 5,1 °C 20,9 km/h (4 Bft)
04.04.2018 20:14 7,2 °C 77 % 1006,3 hPa 0,0 mm 9,2 km/h (2 Bft) W 276 ° 0 min 0,000 mm 0,0 UV-I 0 W/m² 3,4 °C 5,4 °C 14,5 km/h (3 Bft)
04.04.2018 20:15 7,2 °C 77 % 1006,4 hPa 0,0 mm 9,6 km/h (2 Bft) W 260 ° 0 min 0,000 mm 0,0 UV-I 0 W/m² 3,4 °C 5,4 °C 12,9 km/h (3 Bft)
04.04.2018 20:16 7,2 °C 77 % 1006,4 hPa 0,0 mm 12,6 km/h (3 Bft) W 267 ° 0 min 0,000 mm 0,0 UV-I 0 W/m² 3,4 °C 4,8 °C 19,3 km/h (3 Bft)
04.04.2018 20:17 7,2 °C 77 % 1006,4 hPa 0,0 mm 12,1 km/h (2 Bft) W-SW 256 ° 0 min 0,000 mm 0,0 UV-I 0 W/m² 3,4 °C 4,9 °C 19,3 km/h (3 Bft)
04.04.2018 20:18 7,2 °C 77 % 1006,4 hPa 0,0 mm 11,8 km/h (2 Bft) W-SW 253 ° 0 min 0,000 mm 0,0 UV-I 0 W/m² 3,4 °C 5,0 °C 14,5 km/h (3 Bft)
04.04.2018 20:19 7,2 °C 77 % 1006,4 hPa 0,0 mm 11,9 km/h (2 Bft) W 260 ° 0 min 0,000 mm 0,0 UV-I 0 W/m² 3,4 °C 4,9 °C 16,1 km/h (3 Bft)
04.04.2018 20:20 7,2 °C 77 % 1006,4 hPa 0,0 mm 4,3 km/h (1 Bft) W 262 ° 0 min 0,000 mm 0,0 UV-I 0 W/m² 3,4 °C 7,2 °C 9,7 km/h (2 Bft)
04.04.2018 20:21 7,2 °C 77 % 1006,4 hPa 0,0 mm 7,1 km/h (2 Bft) SW 222 ° 0 min 0,000 mm 0,0 UV-I 0 W/m² 3,4 °C 5,9 °C 11,3 km/h (2 Bft)
04.04.2018 20:22 7,2 °C 77 % 1006,3 hPa 0,0 mm 13,3 km/h (3 Bft) W 264 ° 0 min 0,000 mm 0,0 UV-I 0 W/m² 3,4 °C 4,7 °C 22,5 km/h (4 Bft)
04.04.2018 20:23 7,2 °C 77 % 1006,4 hPa 0,0 mm 14,9 km/h (3 Bft) S-SW 194 ° 0 min 0,000 mm 0,0 UV-I 0 W/m² 3,4 °C 4,5 °C 22,5 km/h (4 Bft)
04.04.2018 20:24 7,2 °C 77 % 1006,3 hPa 0,0 mm 11,7 km/h (2 Bft) SW 232 ° 0 min 0,000 mm 0,0 UV-I 0 W/m² 3,4 °C 5,0 °C 16,1 km/h (3 Bft)
04.04.2018 20:25 7,2 °C 77 % 1006,3 hPa 0,0 mm 4,9 km/h (1 Bft) W-SW 257 ° 0 min 0,000 mm 0,0 UV-I 0 W/m² 3,4 °C 6,6 °C 8,0 km/h (2 Bft)
04.04.2018 20:26 7,2 °C 77 % 1006,4 hPa 0,0 mm 10,2 km/h (2 Bft) W-SW 238 ° 0 min 0,000 mm 0,0 UV-I 0 W/m² 3,4 °C 5,2 °C 14,5 km/h (3 Bft)
04.04.2018 20:27 7,2 °C 77 % 1006,5 hPa 0,0 mm 11,7 km/h (2 Bft) W-NW 299 ° 0 min 0,000 mm 0,0 UV-I 0 W/m² 3,4 °C 5,0 °C 16,1 km/h (3 Bft)
04.04.2018 20:28 7,2 °C 77 % 1006,5 hPa 0,0 mm 6,1 km/h (2 Bft) SW 221 ° 0 min 0,000 mm 0,0 UV-I 0 W/m² 3,4 °C 6,2 °C 9,7 km/h (2 Bft)
04.04.2018 20:29 7,2 °C 77 % 1006,6 hPa 0,0 mm 6,0 km/h (2 Bft) SW 231 ° 0 min 0,000 mm 0,0 UV-I 0 W/m² 3,4 °C 6,3 °C 20,9 km/h (4 Bft)
04.04.2018 20:30 7,2 °C 77 % 1006,5 hPa 0,0 mm 17,6 km/h (3 Bft) W 275 ° 0 min 0,000 mm 0,0 UV-I 0 W/m² 3,4 °C 4,1 °C 27,4 km/h (4 Bft)
04.04.2018 20:31 7,2 °C 77 % 1006,6 hPa 0,0 mm 10,9 km/h (2 Bft) W-NW 284 ° 0 min 0,000 mm 0,0 UV-I 0 W/m² 3,4 °C 5,1 °C 17,7 km/h (3 Bft)
04.04.2018 20:33 7,2 °C 77 % 1006,6 hPa 0,0 mm 8,6 km/h (2 Bft) W 272 ° 0 min 0,000 mm 0,0 UV-I 0 W/m² 3,4 °C 5,6 °C 14,5 km/h (3 Bft)
04.04.2018 20:34 7,1 °C 78 % 1006,6 hPa 0,0 mm 8,8 km/h (2 Bft) SW 234 ° 0 min 0,000 mm 0,0 UV-I 0 W/m² 3,5 °C 5,4 °C 12,9 km/h (3 Bft)
04.04.2018 20:35 7,1 °C 78 % 1006,6 hPa 0,0 mm 11,8 km/h (2 Bft) W-SW 246 ° 0 min 0,000 mm 0,0 UV-I 0 W/m² 3,5 °C 4,8 °C 16,1 km/h (3 Bft)
04.04.2018 20:36 7,1 °C 78 % 1006,5 hPa 0,0 mm 6,5 km/h (2 Bft) SW 234 ° 0 min 0,000 mm 0,0 UV-I 0 W/m² 3,5 °C 6,0 °C 8,0 km/h (2 Bft)
04.04.2018 20:37 7,1 °C 78 % 1006,6 hPa 0,0 mm 6,5 km/h (2 Bft) W-SW 243 ° 0 min 0,000 mm 0,0 UV-I 0 W/m² 3,5 °C 6,0 °C 11,3 km/h (2 Bft)
04.04.2018 20:38 7,1 °C 78 % 1006,5 hPa 0,0 mm 13,2 km/h (3 Bft) W-SW 254 ° 0 min 0,000 mm 0,0 UV-I 0 W/m² 3,5 °C 4,6 °C 22,5 km/h (4 Bft)
04.04.2018 20:39 7,1 °C 78 % 1006,6 hPa 0,0 mm 8,1 km/h (2 Bft) W 271 ° 0 min 0,000 mm 0,0 UV-I 0 W/m² 3,5 °C 5,6 °C 14,5 km/h (3 Bft)
04.04.2018 20:40 7,1 °C 78 % 1006,5 hPa 0,0 mm 5,2 km/h (1 Bft) W-SW 242 ° 0 min 0,000 mm 0,0 UV-I 0 W/m² 3,5 °C 6,4 °C 9,7 km/h (2 Bft)
04.04.2018 20:41 7,1 °C 78 % 1006,5 hPa 0,0 mm 4,3 km/h (1 Bft) SW 231 ° 0 min 0,000 mm 0,0 UV-I 0 W/m² 3,5 °C 7,1 °C 9,7 km/h (2 Bft)
04.04.2018 20:42 7,1 °C 78 % 1006,5 hPa 0,0 mm 5,8 km/h (2 Bft) W 262 ° 0 min 0,000 mm 0,0 UV-I 0 W/m² 3,5 °C 6,2 °C 11,3 km/h (2 Bft)
04.04.2018 20:43 7,1 °C 78 % 1006,5 hPa 0,0 mm 6,8 km/h (2 Bft) S 184 ° 0 min 0,000 mm 0,0 UV-I 0 W/m² 3,5 °C 5,9 °C 12,9 km/h (3 Bft)
04.04.2018 20:44 7,1 °C 78 % 1006,5 hPa 0,0 mm 6,0 km/h (2 Bft) SW 236 ° 0 min 0,000 mm 0,0 UV-I 0 W/m² 3,5 °C 6,1 °C 12,9 km/h (3 Bft)
04.04.2018 20:45 7,1 °C 78 % 1006,5 hPa 0,0 mm 5,4 km/h (1 Bft) W 279 ° 0 min 0,000 mm 0,0 UV-I 0 W/m² 3,5 °C 6,3 °C 9,7 km/h (2 Bft)
04.04.2018 20:46 7,1 °C 78 % 1006,5 hPa 0,0 mm 4,4 km/h (1 Bft) W-SW 252 ° 0 min 0,000 mm 0,0 UV-I 0 W/m² 3,5 °C 7,1 °C 4,8 km/h (1 Bft)
04.04.2018 20:47 7,1 °C 78 % 1006,5 hPa 0,0 mm 4,0 km/h (1 Bft) W-SW 240 ° 0 min 0,000 mm 0,0 UV-I 0 W/m² 3,5 °C 7,1 °C 6,4 km/h (2 Bft)
04.04.2018 20:48 7,1 °C 78 % 1006,4 hPa 0,0 mm 3,3 km/h (1 Bft) S 190 ° 0 min 0,000 mm 0,0 UV-I 0 W/m² 3,5 °C 7,1 °C 8,0 km/h (2 Bft)
04.04.2018 20:49 7,1 °C 78 % 1006,4 hPa 0,0 mm 3,2 km/h (1 Bft) S-SW 208 ° 0 min 0,000 mm 0,0 UV-I 0 W/m² 3,5 °C 7,1 °C 4,8 km/h (1 Bft)
04.04.2018 20:50 7,1 °C 78 % 1006,4 hPa 0,0 mm 3,7 km/h (1 Bft) W 261 ° 0 min 0,000 mm 0,0 UV-I 0 W/m² 3,5 °C 7,1 °C 6,4 km/h (2 Bft)
04.04.2018 20:51 7,1 °C 78 % 1006,3 hPa 0,0 mm 4,8 km/h (1 Bft) SW 222 ° 0 min 0,000 mm 0,0 UV-I 0 W/m² 3,5 °C 6,5 °C 6,4 km/h (2 Bft)
04.04.2018 20:52 7,1 °C 78 % 1006,3 hPa 0,0 mm 5,4 km/h (1 Bft) SW 225 ° 0 min 0,000 mm 0,0 UV-I 0 W/m² 3,5 °C 6,3 °C 9,7 km/h (2 Bft)
04.04.2018 20:53 7,1 °C 78 % 1006,2 hPa 0,0 mm 4,4 km/h (1 Bft) SW 215 ° 0 min 0,000 mm 0,0 UV-I 0 W/m² 3,5 °C 7,1 °C 6,4 km/h (2 Bft)
04.04.2018 20:54 7,1 °C 78 % 1006,2 hPa 0,0 mm 2,5 km/h (1 Bft) SW 215 ° 0 min 0,000 mm 0,0 UV-I 0 W/m² 3,5 °C 7,1 °C 4,8 km/h (1 Bft)
04.04.2018 20:55 7,1 °C 78 % 1006,3 hPa 0,0 mm 3,8 km/h (1 Bft) S-SW 209 ° 0 min 0,000 mm 0,0 UV-I 0 W/m² 3,5 °C 7,1 °C 8,0 km/h (2 Bft)
04.04.2018 20:56 7,1 °C 77 % 1006,3 hPa 0,0 mm 2,9 km/h (1 Bft) W-NW 284 ° 0 min 0,000 mm 0,0 UV-I 0 W/m² 3,3 °C 7,1 °C 4,8 km/h (1 Bft)
04.04.2018 20:57 7,1 °C 77 % 1006,3 hPa 0,0 mm 3,2 km/h (1 Bft) W 269 ° 0 min 0,000 mm 0,0 UV-I 0 W/m² 3,3 °C 7,1 °C 6,4 km/h (2 Bft)
04.04.2018 20:58 7,1 °C 77 % 1006,3 hPa 0,0 mm 3,4 km/h (1 Bft) W-NW 293 ° 0 min 0,000 mm 0,0 UV-I 0 W/m² 3,3 °C 7,1 °C 4,8 km/h (1 Bft)
04.04.2018 20:59 7,1 °C 78 % 1006,4 hPa 0,0 mm 2,6 km/h (1 Bft) W 279 ° 0 min 0,000 mm 0,0 UV-I 0 W/m² 3,5 °C 7,1 °C 3,2 km/h (1 Bft)
04.04.2018 21:00 7,1 °C 78 % 1006,4 hPa 0,0 mm 3,4 km/h (1 Bft) W-NW 284 ° 0 min 0,000 mm 0,0 UV-I 0 W/m² 3,5 °C 7,1 °C 4,8 km/h (1 Bft)
04.04.2018 21:01 7,1 °C 78 % 1006,3 hPa 0,0 mm 4,1 km/h (1 Bft) W 272 ° 0 min 0,025 mm 0,0 UV-I 0 W/m² 3,5 °C 7,1 °C 6,4 km/h (2 Bft)
04.04.2018 21:02 7,1 °C 78 % 1006,3 hPa 0,0 mm 2,9 km/h (1 Bft) W 276 ° 0 min 0,000 mm 0,0 UV-I 0 W/m² 3,5 °C 7,1 °C 6,4 km/h (2 Bft)
04.04.2018 21:03 7,1 °C 77 % 1006,2 hPa 0,0 mm 5,1 km/h (1 Bft) W-NW 284 ° 0 min 0,000 mm 0,0 UV-I 0 W/m² 3,3 °C 6,4 °C 6,4 km/h (2 Bft)
04.04.2018 21:04 7,2 °C 77 % 1006,2 hPa 0,0 mm 6,3 km/h (2 Bft) W 260 ° 0 min 0,000 mm 0,0 UV-I 0 W/m² 3,4 °C 6,2 °C 9,7 km/h (2 Bft)
04.04.2018 21:05 7,2 °C 77 % 1006,3 hPa 0,0 mm 4,0 km/h (1 Bft) W 260 ° 0 min 0,000 mm 0,0 UV-I 0 W/m² 3,4 °C 7,2 °C 6,4 km/h (2 Bft)
04.04.2018 21:06 7,1 °C 77 % 1006,3 hPa 0,0 mm 0,9 km/h (0 Bft) W 260 ° 0 min 0,000 mm 0,0 UV-I 0 W/m² 3,3 °C 7,1 °C 3,2 km/h (1 Bft)
04.04.2018 21:07 7,1 °C 77 % 1006,3 hPa 0,0 mm 3,5 km/h (1 Bft) W 260 ° 0 min 0,000 mm 0,0 UV-I 0 W/m² 3,3 °C 7,1 °C 4,8 km/h (1 Bft)
04.04.2018 21:08 7,1 °C 78 % 1006,3 hPa 0,0 mm 2,6 km/h (1 Bft) W 272 ° 0 min 0,000 mm 0,0 UV-I 0 W/m² 3,5 °C 7,1 °C 6,4 km/h (2 Bft)
04.04.2018 21:09 7,1 °C 78 % 1006,2 hPa 0,0 mm 0,0 km/h (0 Bft) W 272 ° 0 min 0,000 mm 0,0 UV-I 0 W/m² 3,5 °C 7,1 °C 0,0 km/h (0 Bft)
04.04.2018 21:10 7,1 °C 78 % 1006,1 hPa 0,0 mm 1,8 km/h (1 Bft) W 260 ° 0 min 0,000 mm 0,0 UV-I 0 W/m² 3,5 °C 7,1 °C 4,8 km/h (1 Bft)
04.04.2018 21:11 7,1 °C 77 % 1006,0 hPa 0,0 mm 1,4 km/h (1 Bft) W-SW 248 ° 0 min 0,000 mm 0,0 UV-I 0 W/m² 3,3 °C 7,1 °C 3,2 km/h (1 Bft)
04.04.2018 21:12 7,1 °C 77 % 1005,9 hPa 0,0 mm 1,1 km/h (1 Bft) W-SW 248 ° 0 min 0,000 mm 0,0 UV-I 0 W/m² 3,3 °C 7,1 °C 3,2 km/h (1 Bft)
04.04.2018 21:13 7,1 °C 77 % 1005,9 hPa 0,0 mm 0,3 km/h (0 Bft) W-SW 248 ° 0 min 0,000 mm 0,0 UV-I 0 W/m² 3,3 °C 7,1 °C 1,6 km/h (1 Bft)
04.04.2018 21:14 7,1 °C 77 % 1005,9 hPa 0,0 mm 0,4 km/h (0 Bft) W-SW 248 ° 0 min 0,000 mm 0,0 UV-I 0 W/m² 3,3 °C 7,1 °C 1,6 km/h (1 Bft)
04.04.2018 21:15 7,1 °C 78 % 1005,8 hPa 0,0 mm 0,0 km/h (0 Bft) W-SW 248 ° 0 min 0,000 mm 0,0 UV-I 0 W/m² 3,5 °C 7,1 °C 0,0 km/h (0 Bft)
04.04.2018 21:16 7,0 °C 78 % 1005,8 hPa 0,0 mm 0,0 km/h (0 Bft) W-SW 248 ° 0 min 0,000 mm 0,0 UV-I 0 W/m² 3,4 °C 7,0 °C 0,0 km/h (0 Bft)
04.04.2018 21:17 7,0 °C 78 % 1005,8 hPa 0,0 mm 0,0 km/h (0 Bft) W-SW 248 ° 0 min 0,000 mm 0,0 UV-I 0 W/m² 3,4 °C 7,0 °C 0,0 km/h (0 Bft)
04.04.2018 21:18 6,9 °C 78 % 1006,0 hPa 0,0 mm 1,4 km/h (1 Bft) W-SW 248 ° 0 min 0,000 mm 0,0 UV-I 0 W/m² 3,3 °C 6,9 °C 3,2 km/h (1 Bft)
04.04.2018 21:19 6,9 °C 78 % 1006,1 hPa 0,0 mm 2,0 km/h (1 Bft) W-SW 248 ° 0 min 0,000 mm 0,0 UV-I 0 W/m² 3,3 °C 6,9 °C 3,2 km/h (1 Bft)
04.04.2018 21:20 6,9 °C 78 % 1006,2 hPa 0,0 mm 0,8 km/h (0 Bft) W-SW 248 ° 0 min 0,000 mm 0,0 UV-I 0 W/m² 3,3 °C 6,9 °C 3,2 km/h (1 Bft)
04.04.2018 21:21 6,9 °C 78 % 1006,2 hPa 0,0 mm 0,0 km/h (0 Bft) W-SW 248 ° 0 min 0,000 mm 0,0 UV-I 0 W/m² 3,3 °C 6,9 °C 0,0 km/h (0 Bft)
04.04.2018 21:22 6,9 °C 78 % 1006,2 hPa 0,0 mm 0,0 km/h (0 Bft) W-SW 248 ° 0 min 0,000 mm 0,0 UV-I 0 W/m² 3,3 °C 6,9 °C 0,0 km/h (0 Bft)
04.04.2018 21:23 6,8 °C 79 % 1006,2 hPa 0,0 mm 0,0 km/h (0 Bft) W-SW 248 ° 0 min 0,000 mm 0,0 UV-I 0 W/m² 3,4 °C 6,8 °C 0,0 km/h (0 Bft)
04.04.2018 21:24 6,8 °C 79 % 1006,2 hPa 0,0 mm 0,0 km/h (0 Bft) W-SW 248 ° 0 min 0,000 mm 0,0 UV-I 0 W/m² 3,4 °C 6,8 °C 0,0 km/h (0 Bft)
04.04.2018 21:25 6,8 °C 79 % 1006,1 hPa 0,0 mm 1,9 km/h (1 Bft) W-SW 247 ° 0 min 0,000 mm 0,0 UV-I 0 W/m² 3,4 °C 6,8 °C 3,2 km/h (1 Bft)
04.04.2018 21:26 6,8 °C 79 % 1005,9 hPa 0,0 mm 4,7 km/h (1 Bft) S-SW 195 ° 0 min 0,000 mm 0,0 UV-I 0 W/m² 3,4 °C 6,2 °C 4,8 km/h (1 Bft)
04.04.2018 21:27 6,8 °C 79 % 1005,8 hPa 0,0 mm 4,0 km/h (1 Bft) S-SW 195 ° 0 min 0,000 mm 0,0 UV-I 0 W/m² 3,4 °C 6,8 °C 4,8 km/h (1 Bft)
04.04.2018 21:28 6,8 °C 80 % 1005,9 hPa 0,0 mm 1,7 km/h (1 Bft) S-SW 195 ° 0 min 0,000 mm 0,0 UV-I 0 W/m² 3,6 °C 6,8 °C 3,2 km/h (1 Bft)
04.04.2018 21:29 6,8 °C 79 % 1006,1 hPa 0,0 mm 3,1 km/h (1 Bft) S-SW 195 ° 0 min 0,000 mm 0,0 UV-I 0 W/m² 3,4 °C 6,8 °C 4,8 km/h (1 Bft)
04.04.2018 21:30 6,8 °C 79 % 1006,2 hPa 0,0 mm 0,4 km/h (0 Bft) S-SW 195 ° 0 min 0,000 mm 0,0 UV-I 0 W/m² 3,4 °C 6,8 °C 1,6 km/h (1 Bft)
04.04.2018 21:31 6,8 °C 79 % 1006,2 hPa 0,0 mm 0,7 km/h (0 Bft) S-SW 195 ° 0 min 0,000 mm 0,0 UV-I 0 W/m² 3,4 °C 6,8 °C 1,6 km/h (1 Bft)
04.04.2018 21:32 6,8 °C 79 % 1006,0 hPa 0,0 mm 0,3 km/h (0 Bft) S-SW 195 ° 0 min 0,000 mm 0,0 UV-I 0 W/m² 3,4 °C 6,8 °C 1,6 km/h (1 Bft)
04.04.2018 21:33 6,8 °C 79 % 1006,0 hPa 0,0 mm 0,0 km/h (0 Bft) S-SW 195 ° 0 min 0,000 mm 0,0 UV-I 0 W/m² 3,4 °C 6,8 °C 0,0 km/h (0 Bft)
04.04.2018 21:34 6,7 °C 79 % 1005,9 hPa 0,0 mm 2,5 km/h (1 Bft) S-SW 195 ° 0 min 0,000 mm 0,0 UV-I 0 W/m² 3,3 °C 6,7 °C 4,8 km/h (1 Bft)
04.04.2018 21:35 6,7 °C 79 % 1005,9 hPa 0,0 mm 3,3 km/h (1 Bft) S-SW 195 ° 0 min 0,000 mm 0,0 UV-I 0 W/m² 3,3 °C 6,7 °C 4,8 km/h (1 Bft)
04.04.2018 21:36 6,7 °C 79 % 1006,0 hPa 0,0 mm 1,8 km/h (1 Bft) S-SW 195 ° 0 min 0,000 mm 0,0 UV-I 0 W/m² 3,3 °C 6,7 °C 3,2 km/h (1 Bft)
04.04.2018 21:37 6,7 °C 80 % 1006,1 hPa 0,0 mm 0,0 km/h (0 Bft) S-SW 195 ° 0 min 0,000 mm 0,0 UV-I 0 W/m² 3,5 °C 6,7 °C 0,0 km/h (0 Bft)
04.04.2018 21:38 6,6 °C 80 % 1006,1 hPa 0,0 mm 0,0 km/h (0 Bft) S-SW 195 ° 0 min 0,000 mm 0,0 UV-I 0 W/m² 3,4 °C 6,6 °C 0,0 km/h (0 Bft)
04.04.2018 21:39 6,6 °C 80 % 1006,0 hPa 0,0 mm 0,0 km/h (0 Bft) S-SW 195 ° 0 min 0,000 mm 0,0 UV-I 0 W/m² 3,4 °C 6,6 °C 0,0 km/h (0 Bft)
04.04.2018 21:40 6,6 °C 80 % 1006,0 hPa 0,0 mm 0,0 km/h (0 Bft) S-SW 195 ° 0 min 0,000 mm 0,0 UV-I 0 W/m² 3,4 °C 6,6 °C 0,0 km/h (0 Bft)
04.04.2018 21:41 6,5 °C 80 % 1006,0 hPa 0,0 mm 0,0 km/h (0 Bft) S-SW 195 ° 0 min 0,000 mm 0,0 UV-I 0 W/m² 3,3 °C 6,5 °C 0,0 km/h (0 Bft)
04.04.2018 21:42 6,4 °C 80 % 1006,0 hPa 0,0 mm 0,7 km/h (0 Bft) S-SW 195 ° 0 min 0,000 mm 0,0 UV-I 0 W/m² 3,2 °C 6,4 °C 3,2 km/h (1 Bft)
04.04.2018 21:43 6,4 °C 80 % 1005,9 hPa 0,0 mm 0,3 km/h (0 Bft) S-SW 195 ° 0 min 0,000 mm 0,0 UV-I 0 W/m² 3,2 °C 6,4 °C 1,6 km/h (1 Bft)
04.04.2018 21:44 6,3 °C 81 % 1005,9 hPa 0,0 mm 0,0 km/h (0 Bft) S-SW 195 ° 0 min 0,000 mm 0,0 UV-I 0 W/m² 3,3 °C 6,3 °C 0,0 km/h (0 Bft)
04.04.2018 21:45 6,3 °C 81 % 1006,0 hPa 0,0 mm 0,0 km/h (0 Bft) S-SW 195 ° 0 min 0,000 mm 0,0 UV-I 0 W/m² 3,3 °C 6,3 °C 0,0 km/h (0 Bft)
04.04.2018 21:46 6,2 °C 81 % 1005,9 hPa 0,0 mm 0,0 km/h (0 Bft) S-SW 195 ° 0 min 0,000 mm 0,0 UV-I 0 W/m² 3,2 °C 6,2 °C 0,0 km/h (0 Bft)
04.04.2018 21:47 6,2 °C 81 % 1005,9 hPa 0,0 mm 0,0 km/h (0 Bft) S-SW 195 ° 0 min 0,000 mm 0,0 UV-I 0 W/m² 3,2 °C 6,2 °C 0,0 km/h (0 Bft)
04.04.2018 21:48 6,2 °C 81 % 1006,0 hPa 0,0 mm 0,0 km/h (0 Bft) S-SW 195 ° 0 min 0,000 mm 0,0 UV-I 0 W/m² 3,2 °C 6,2 °C 0,0 km/h (0 Bft)
04.04.2018 21:49 6,2 °C 81 % 1006,0 hPa 0,0 mm 0,0 km/h (0 Bft) S-SW 195 ° 0 min 0,000 mm 0,0 UV-I 0 W/m² 3,2 °C 6,2 °C 0,0 km/h (0 Bft)
04.04.2018 21:50 6,2 °C 81 % 1005,9 hPa 0,0 mm 0,0 km/h (0 Bft) S-SW 195 ° 0 min 0,000 mm 0,0 UV-I 0 W/m² 3,2 °C 6,2 °C 0,0 km/h (0 Bft)
04.04.2018 21:51 6,2 °C 81 % 1006,0 hPa 0,0 mm 0,0 km/h (0 Bft) S-SW 195 ° 0 min 0,000 mm 0,0 UV-I 0 W/m² 3,2 °C 6,2 °C 0,0 km/h (0 Bft)
04.04.2018 21:52 6,2 °C 81 % 1006,0 hPa 0,0 mm 0,0 km/h (0 Bft) S-SW 195 ° 0 min 0,000 mm 0,0 UV-I 0 W/m² 3,2 °C 6,2 °C 0,0 km/h (0 Bft)
04.04.2018 21:53 6,2 °C 81 % 1005,9 hPa 0,0 mm 0,0 km/h (0 Bft) S-SW 195 ° 0 min 0,000 mm 0,0 UV-I 0 W/m² 3,2 °C 6,2 °C 0,0 km/h (0 Bft)
04.04.2018 21:54 6,3 °C 81 % 1005,9 hPa 0,0 mm 0,0 km/h (0 Bft) S-SW 195 ° 0 min 0,000 mm 0,0 UV-I 0 W/m² 3,3 °C 6,3 °C 0,0 km/h (0 Bft)
04.04.2018 21:55 6,3 °C 81 % 1005,8 hPa 0,0 mm 0,0 km/h (0 Bft) S-SW 195 ° 0 min 0,000 mm 0,0 UV-I 0 W/m² 3,3 °C 6,3 °C 0,0 km/h (0 Bft)
04.04.2018 21:56 6,3 °C 81 % 1005,8 hPa 0,0 mm 0,0 km/h (0 Bft) S-SW 195 ° 0 min 0,000 mm 0,0 UV-I 0 W/m² 3,3 °C 6,3 °C 0,0 km/h (0 Bft)
04.04.2018 21:57 6,3 °C 80 % 1005,8 hPa 0,0 mm 0,0 km/h (0 Bft) S-SW 195 ° 0 min 0,000 mm 0,0 UV-I 0 W/m² 3,1 °C 6,3 °C 0,0 km/h (0 Bft)
04.04.2018 21:58 6,3 °C 80 % 1005,8 hPa 0,0 mm 0,0 km/h (0 Bft) S-SW 195 ° 0 min 0,000 mm 0,0 UV-I 0 W/m² 3,1 °C 6,3 °C 0,0 km/h (0 Bft)
04.04.2018 21:59 6,3 °C 81 % 1005,8 hPa 0,0 mm 0,0 km/h (0 Bft) S-SW 195 ° 0 min 0,000 mm 0,0 UV-I 0 W/m² 3,3 °C 6,3 °C 0,0 km/h (0 Bft)
04.04.2018 22:00 6,4 °C 81 % 1005,8 hPa 0,0 mm 0,0 km/h (0 Bft) S-SW 195 ° 0 min 0,000 mm 0,0 UV-I 0 W/m² 3,4 °C 6,4 °C 0,0 km/h (0 Bft)
04.04.2018 22:01 6,4 °C 80 % 1005,8 hPa 0,0 mm 0,0 km/h (0 Bft) S-SW 195 ° 0 min 0,026 mm 0,0 UV-I 0 W/m² 3,2 °C 6,4 °C 0,0 km/h (0 Bft)
04.04.2018 22:02 6,4 °C 80 % 1005,8 hPa 0,0 mm 0,0 km/h (0 Bft) S-SW 195 ° 0 min 0,000 mm 0,0 UV-I 0 W/m² 3,2 °C 6,4 °C 0,0 km/h (0 Bft)
04.04.2018 22:03 6,4 °C 80 % 1005,7 hPa 0,0 mm 0,0 km/h (0 Bft) S-SW 195 ° 0 min 0,000 mm 0,0 UV-I 0 W/m² 3,2 °C 6,4 °C 0,0 km/h (0 Bft)
04.04.2018 22:04 6,4 °C 80 % 1005,8 hPa 0,0 mm 0,0 km/h (0 Bft) S-SW 195 ° 0 min 0,000 mm 0,0 UV-I 0 W/m² 3,2 °C 6,4 °C 0,0 km/h (0 Bft)
04.04.2018 22:05 6,4 °C 80 % 1005,8 hPa 0,0 mm 0,0 km/h (0 Bft) S-SW 195 ° 0 min 0,000 mm 0,0 UV-I 0 W/m² 3,2 °C 6,4 °C 0,0 km/h (0 Bft)
04.04.2018 22:06 6,4 °C 80 % 1005,8 hPa 0,0 mm 0,0 km/h (0 Bft) S-SW 195 ° 0 min 0,000 mm 0,0 UV-I 0 W/m² 3,2 °C 6,4 °C 0,0 km/h (0 Bft)
04.04.2018 22:07 6,4 °C 80 % 1005,8 hPa 0,0 mm 0,0 km/h (0 Bft) S-SW 195 ° 0 min 0,000 mm 0,0 UV-I 0 W/m² 3,2 °C 6,4 °C 0,0 km/h (0 Bft)
04.04.2018 22:08 6,4 °C 81 % 1005,7 hPa 0,0 mm 0,0 km/h (0 Bft) S-SW 195 ° 0 min 0,000 mm 0,0 UV-I 0 W/m² 3,4 °C 6,4 °C 0,0 km/h (0 Bft)
04.04.2018 22:09 6,4 °C 80 % 1005,7 hPa 0,0 mm 1,4 km/h (1 Bft) S-SW 195 ° 0 min 0,000 mm 0,0 UV-I 0 W/m² 3,2 °C 6,4 °C 1,6 km/h (1 Bft)
04.04.2018 22:10 6,4 °C 80 % 1005,7 hPa 0,0 mm 0,0 km/h (0 Bft) S-SW 195 ° 0 min 0,000 mm 0,0 UV-I 0 W/m² 3,2 °C 6,4 °C 0,0 km/h (0 Bft)
04.04.2018 22:11 6,4 °C 80 % 1005,7 hPa 0,0 mm 0,0 km/h (0 Bft) S-SW 195 ° 0 min 0,000 mm 0,0 UV-I 0 W/m² 3,2 °C 6,4 °C 0,0 km/h (0 Bft)
04.04.2018 22:12 6,4 °C 81 % 1005,7 hPa 0,0 mm 0,0 km/h (0 Bft) S-SW 195 ° 0 min 0,000 mm 0,0 UV-I 0 W/m² 3,4 °C 6,4 °C 0,0 km/h (0 Bft)
04.04.2018 22:13 6,3 °C 81 % 1005,6 hPa 0,0 mm 0,0 km/h (0 Bft) S-SW 195 ° 0 min 0,000 mm 0,0 UV-I 0 W/m² 3,3 °C 6,3 °C 0,0 km/h (0 Bft)
04.04.2018 22:14 6,3 °C 81 % 1005,6 hPa 0,0 mm 0,0 km/h (0 Bft) S-SW 195 ° 0 min 0,000 mm 0,0 UV-I 0 W/m² 3,3 °C 6,3 °C 0,0 km/h (0 Bft)
04.04.2018 22:15 6,2 °C 81 % 1005,7 hPa 0,0 mm 0,0 km/h (0 Bft) S-SW 195 ° 0 min 0,000 mm 0,0 UV-I 0 W/m² 3,2 °C 6,2 °C 0,0 km/h (0 Bft)
04.04.2018 22:16 6,2 °C 81 % 1005,6 hPa 0,0 mm 0,0 km/h (0 Bft) S-SW 195 ° 0 min 0,000 mm 0,0 UV-I 0 W/m² 3,2 °C 6,2 °C 0,0 km/h (0 Bft)
04.04.2018 22:17 6,2 °C 82 % 1005,6 hPa 0,0 mm 0,0 km/h (0 Bft) S-SW 195 ° 0 min 0,000 mm 0,0 UV-I 0 W/m² 3,4 °C 6,2 °C 0,0 km/h (0 Bft)
04.04.2018 22:18 6,2 °C 81 % 1005,5 hPa 0,0 mm 0,0 km/h (0 Bft) S-SW 195 ° 0 min 0,000 mm 0,0 UV-I 0 W/m² 3,2 °C 6,2 °C 0,0 km/h (0 Bft)
04.04.2018 22:19 6,2 °C 81 % 1005,5 hPa 0,0 mm 0,0 km/h (0 Bft) S-SW 195 ° 0 min 0,000 mm 0,0 UV-I 0 W/m² 3,2 °C 6,2 °C 0,0 km/h (0 Bft)
04.04.2018 22:20 6,1 °C 81 % 1005,5 hPa 0,0 mm 0,0 km/h (0 Bft) S-SW 195 ° 0 min 0,000 mm 0,0 UV-I 0 W/m² 3,1 °C 6,1 °C 0,0 km/h (0 Bft)
04.04.2018 22:21 6,1 °C 81 % 1005,5 hPa 0,0 mm 0,4 km/h (0 Bft) S-SW 195 ° 0 min 0,000 mm 0,0 UV-I 0 W/m² 3,1 °C 6,1 °C 1,6 km/h (1 Bft)
04.04.2018 22:22 6,0 °C 82 % 1005,5 hPa 0,0 mm 1,3 km/h (1 Bft) S-SW 195 ° 0 min 0,000 mm 0,0 UV-I 0 W/m² 3,2 °C 6,0 °C 3,2 km/h (1 Bft)
04.04.2018 22:23 5,9 °C 82 % 1005,5 hPa 0,0 mm 0,0 km/h (0 Bft) S-SW 195 ° 0 min 0,000 mm 0,0 UV-I 0 W/m² 3,1 °C 5,9 °C 0,0 km/h (0 Bft)
04.04.2018 22:24 5,8 °C 82 % 1005,5 hPa 0,0 mm 0,0 km/h (0 Bft) S-SW 195 ° 0 min 0,000 mm 0,0 UV-I 0 W/m² 3,0 °C 5,8 °C 0,0 km/h (0 Bft)
04.04.2018 22:25 5,8 °C 82 % 1005,5 hPa 0,0 mm 0,0 km/h (0 Bft) S-SW 195 ° 0 min 0,000 mm 0,0 UV-I 0 W/m² 3,0 °C 5,8 °C 0,0 km/h (0 Bft)
04.04.2018 22:26 5,8 °C 82 % 1005,5 hPa 0,0 mm 0,0 km/h (0 Bft) S-SW 195 ° 0 min 0,000 mm 0,0 UV-I 0 W/m² 3,0 °C 5,8 °C 0,0 km/h (0 Bft)
04.04.2018 22:27 5,8 °C 82 % 1005,5 hPa 0,0 mm 0,0 km/h (0 Bft) S-SW 195 ° 0 min 0,000 mm 0,0 UV-I 0 W/m² 3,0 °C 5,8 °C 0,0 km/h (0 Bft)
04.04.2018 22:28 5,7 °C 82 % 1005,5 hPa 0,0 mm 0,0 km/h (0 Bft) S-SW 195 ° 0 min 0,000 mm 0,0 UV-I 0 W/m² 2,9 °C 5,7 °C 0,0 km/h (0 Bft)
04.04.2018 22:29 5,7 °C 82 % 1005,5 hPa 0,0 mm 0,0 km/h (0 Bft) S-SW 195 ° 0 min 0,000 mm 0,0 UV-I 0 W/m² 2,9 °C 5,7 °C 0,0 km/h (0 Bft)
04.04.2018 22:30 5,7 °C 82 % 1005,6 hPa 0,0 mm 0,9 km/h (0 Bft) S-SW 195 ° 0 min 0,000 mm 0,0 UV-I 0 W/m² 2,9 °C 5,7 °C 3,2 km/h (1 Bft)
04.04.2018 22:31 5,6 °C 82 % 1005,6 hPa 0,0 mm 3,1 km/h (1 Bft) S-SW 195 ° 0 min 0,000 mm 0,0 UV-I 0 W/m² 2,8 °C 5,6 °C 4,8 km/h (1 Bft)
04.04.2018 22:32 5,7 °C 83 % 1005,6 hPa 0,0 mm 2,9 km/h (1 Bft) S-SW 195 ° 0 min 0,000 mm 0,0 UV-I 0 W/m² 3,0 °C 5,7 °C 4,8 km/h (1 Bft)
04.04.2018 22:33 5,6 °C 82 % 1005,6 hPa 0,0 mm 2,5 km/h (1 Bft) S-SW 195 ° 0 min 0,000 mm 0,0 UV-I 0 W/m² 2,8 °C 5,6 °C 3,2 km/h (1 Bft)
04.04.2018 22:34 5,6 °C 82 % 1005,5 hPa 0,0 mm 2,4 km/h (1 Bft) S-SW 195 ° 0 min 0,000 mm 0,0 UV-I 0 W/m² 2,8 °C 5,6 °C 3,2 km/h (1 Bft)
04.04.2018 22:35 5,6 °C 83 % 1005,5 hPa 0,0 mm 2,1 km/h (1 Bft) S-SW 195 ° 0 min 0,000 mm 0,0 UV-I 0 W/m² 2,9 °C 5,6 °C 3,2 km/h (1 Bft)
04.04.2018 22:36 5,6 °C 83 % 1005,5 hPa 0,0 mm 2,8 km/h (1 Bft) S-SW 195 ° 0 min 0,000 mm 0,0 UV-I 0 W/m² 2,9 °C 5,6 °C 3,2 km/h (1 Bft)
04.04.2018 22:37 5,5 °C 83 % 1005,4 hPa 0,0 mm 2,9 km/h (1 Bft) S-SW 195 ° 0 min 0,000 mm 0,0 UV-I 0 W/m² 2,8 °C 5,5 °C 3,2 km/h (1 Bft)
04.04.2018 22:38 5,5 °C 83 % 1005,5 hPa 0,0 mm 2,7 km/h (1 Bft) S-SW 194 ° 0 min 0,000 mm 0,0 UV-I 0 W/m² 2,8 °C 5,5 °C 3,2 km/h (1 Bft)
04.04.2018 22:39 5,6 °C 83 % 1005,5 hPa 0,0 mm 2,5 km/h (1 Bft) S-SW 194 ° 0 min 0,000 mm 0,0 UV-I 0 W/m² 2,9 °C 5,6 °C 3,2 km/h (1 Bft)
04.04.2018 22:40 5,6 °C 83 % 1005,5 hPa 0,0 mm 0,8 km/h (0 Bft) S-SW 194 ° 0 min 0,000 mm 0,0 UV-I 0 W/m² 2,9 °C 5,6 °C 3,2 km/h (1 Bft)
04.04.2018 22:41 5,6 °C 83 % 1005,4 hPa 0,0 mm 0,0 km/h (0 Bft) S-SW 194 ° 0 min 0,000 mm 0,0 UV-I 0 W/m² 2,9 °C 5,6 °C 0,0 km/h (0 Bft)
04.04.2018 22:42 5,6 °C 83 % 1005,5 hPa 0,0 mm 0,0 km/h (0 Bft) S-SW 194 ° 0 min 0,000 mm 0,0 UV-I 0 W/m² 2,9 °C 5,6 °C 0,0 km/h (0 Bft)
04.04.2018 22:43 5,6 °C 82 % 1005,5 hPa 0,0 mm 0,0 km/h (0 Bft) S-SW 194 ° 0 min 0,000 mm 0,0 UV-I 0 W/m² 2,8 °C 5,6 °C 0,0 km/h (0 Bft)
04.04.2018 22:44 5,4 °C 82 % 1005,5 hPa 0,0 mm 0,0 km/h (0 Bft) S-SW 194 ° 0 min 0,000 mm 0,0 UV-I 0 W/m² 2,6 °C 5,4 °C 0,0 km/h (0 Bft)
04.04.2018 22:45 5,2 °C 82 % 1005,5 hPa 0,0 mm 0,0 km/h (0 Bft) S-SW 194 ° 0 min 0,000 mm 0,0 UV-I 0 W/m² 2,4 °C 5,2 °C 0,0 km/h (0 Bft)
04.04.2018 22:46 5,1 °C 83 % 1005,5 hPa 0,0 mm 0,0 km/h (0 Bft) S-SW 194 ° 0 min 0,000 mm 0,0 UV-I 0 W/m² 2,5 °C 5,1 °C 0,0 km/h (0 Bft)
04.04.2018 22:47 4,9 °C 83 % 1005,5 hPa 0,0 mm 0,0 km/h (0 Bft) S-SW 194 ° 0 min 0,000 mm 0,0 UV-I 0 W/m² 2,3 °C 4,9 °C 0,0 km/h (0 Bft)
04.04.2018 22:48 4,9 °C 83 % 1005,6 hPa 0,0 mm 0,0 km/h (0 Bft) S-SW 194 ° 0 min 0,000 mm 0,0 UV-I 0 W/m² 2,3 °C 4,9 °C 0,0 km/h (0 Bft)
04.04.2018 22:49 4,8 °C 84 % 1005,5 hPa 0,0 mm 0,0 km/h (0 Bft) S-SW 194 ° 0 min 0,000 mm 0,0 UV-I 0 W/m² 2,3 °C 4,8 °C 0,0 km/h (0 Bft)
04.04.2018 22:50 4,9 °C 84 % 1005,5 hPa 0,0 mm 0,0 km/h (0 Bft) S-SW 194 ° 0 min 0,000 mm 0,0 UV-I 0 W/m² 2,4 °C 4,9 °C 0,0 km/h (0 Bft)
04.04.2018 22:51 4,9 °C 84 % 1005,4 hPa 0,0 mm 1,8 km/h (1 Bft) S-SW 194 ° 0 min 0,000 mm 0,0 UV-I 0 W/m² 2,4 °C 4,9 °C 3,2 km/h (1 Bft)
04.04.2018 22:52 4,9 °C 84 % 1005,3 hPa 0,0 mm 3,1 km/h (1 Bft) S-SW 194 ° 0 min 0,000 mm 0,0 UV-I 0 W/m² 2,4 °C 4,9 °C 4,8 km/h (1 Bft)
04.04.2018 22:53 5,1 °C 84 % 1005,4 hPa 0,0 mm 3,4 km/h (1 Bft) S-SW 194 ° 0 min 0,000 mm 0,0 UV-I 0 W/m² 2,6 °C 5,1 °C 4,8 km/h (1 Bft)
04.04.2018 22:54 5,1 °C 84 % 1005,3 hPa 0,0 mm 4,0 km/h (1 Bft) S-SW 194 ° 0 min 0,000 mm 0,0 UV-I 0 W/m² 2,6 °C 5,1 °C 4,8 km/h (1 Bft)
04.04.2018 22:55 5,2 °C 84 % 1005,3 hPa 0,0 mm 4,2 km/h (1 Bft) S-SW 194 ° 0 min 0,000 mm 0,0 UV-I 0 W/m² 2,7 °C 5,2 °C 4,8 km/h (1 Bft)
04.04.2018 22:56 5,3 °C 84 % 1005,2 hPa 0,0 mm 3,2 km/h (1 Bft) S-SW 194 ° 0 min 0,000 mm 0,0 UV-I 0 W/m² 2,8 °C 5,3 °C 4,8 km/h (1 Bft)
04.04.2018 22:57 5,3 °C 84 % 1005,2 hPa 0,0 mm 2,9 km/h (1 Bft) S-SW 194 ° 0 min 0,000 mm 0,0 UV-I 0 W/m² 2,8 °C 5,3 °C 3,2 km/h (1 Bft)
04.04.2018 22:58 5,3 °C 84 % 1005,2 hPa 0,0 mm 3,7 km/h (1 Bft) S-SW 194 ° 0 min 0,000 mm 0,0 UV-I 0 W/m² 2,8 °C 5,3 °C 4,8 km/h (1 Bft)
04.04.2018 22:59 5,3 °C 84 % 1005,2 hPa 0,0 mm 3,8 km/h (1 Bft) S-SW 194 ° 0 min 0,000 mm 0,0 UV-I 0 W/m² 2,8 °C 5,3 °C 4,8 km/h (1 Bft)
04.04.2018 23:00 5,3 °C 84 % 1005,2 hPa 0,0 mm 3,8 km/h (1 Bft) S-SW 194 ° 0 min 0,000 mm 0,0 UV-I 0 W/m² 2,8 °C 5,3 °C 4,8 km/h (1 Bft)
04.04.2018 23:01 5,3 °C 83 % 1005,2 hPa 0,0 mm 3,6 km/h (1 Bft) S-SW 194 ° 0 min 0,000 mm 0,0 UV-I 0 W/m² 2,7 °C 5,3 °C 4,8 km/h (1 Bft)
04.04.2018 23:02 5,3 °C 83 % 1005,2 hPa 0,0 mm 2,2 km/h (1 Bft) S-SW 194 ° 0 min 0,000 mm 0,0 UV-I 0 W/m² 2,7 °C 5,3 °C 3,2 km/h (1 Bft)
04.04.2018 23:03 5,3 °C 83 % 1005,2 hPa 0,0 mm 0,6 km/h (0 Bft) S-SW 194 ° 0 min 0,000 mm 0,0 UV-I 0 W/m² 2,7 °C 5,3 °C 1,6 km/h (1 Bft)
04.04.2018 23:04 5,3 °C 83 % 1005,2 hPa 0,0 mm 0,0 km/h (0 Bft) S-SW 194 ° 0 min 0,000 mm 0,0 UV-I 0 W/m² 2,7 °C 5,3 °C 0,0 km/h (0 Bft)
04.04.2018 23:05 5,3 °C 83 % 1005,3 hPa 0,0 mm 0,0 km/h (0 Bft) S-SW 194 ° 0 min 0,000 mm 0,0 UV-I 0 W/m² 2,7 °C 5,3 °C 0,0 km/h (0 Bft)
04.04.2018 23:06 5,1 °C 82 % 1005,4 hPa 0,0 mm 0,0 km/h (0 Bft) S-SW 194 ° 0 min 0,000 mm 0,0 UV-I 0 W/m² 2,3 °C 5,1 °C 0,0 km/h (0 Bft)
04.04.2018 23:07 4,8 °C 82 % 1005,4 hPa 0,0 mm 0,0 km/h (0 Bft) S-SW 194 ° 0 min 0,000 mm 0,0 UV-I 0 W/m² 2,0 °C 4,8 °C 0,0 km/h (0 Bft)
04.04.2018 23:08 4,6 °C 83 % 1005,4 hPa 0,0 mm 0,0 km/h (0 Bft) S-SW 194 ° 0 min 0,000 mm 0,0 UV-I 0 W/m² 2,0 °C 4,6 °C 0,0 km/h (0 Bft)
04.04.2018 23:09 4,4 °C 84 % 1005,4 hPa 0,0 mm 0,0 km/h (0 Bft) S-SW 194 ° 0 min 0,000 mm 0,0 UV-I 0 W/m² 1,9 °C 4,4 °C 0,0 km/h (0 Bft)
04.04.2018 23:10 4,3 °C 84 % 1005,4 hPa 0,0 mm 0,0 km/h (0 Bft) S-SW 194 ° 0 min 0,000 mm 0,0 UV-I 0 W/m² 1,8 °C 4,3 °C 0,0 km/h (0 Bft)
04.04.2018 23:11 4,3 °C 85 % 1005,4 hPa 0,0 mm 0,0 km/h (0 Bft) S-SW 194 ° 0 min 0,000 mm 0,0 UV-I 0 W/m² 2,0 °C 4,3 °C 0,0 km/h (0 Bft)
04.04.2018 23:12 4,3 °C 86 % 1005,4 hPa 0,0 mm 0,0 km/h (0 Bft) S-SW 194 ° 0 min 0,000 mm 0,0 UV-I 0 W/m² 2,2 °C 4,3 °C 0,0 km/h (0 Bft)
04.04.2018 23:13 4,3 °C 86 % 1005,5 hPa 0,0 mm 0,0 km/h (0 Bft) S-SW 194 ° 0 min 0,000 mm 0,0 UV-I 0 W/m² 2,2 °C 4,3 °C 0,0 km/h (0 Bft)
04.04.2018 23:14 4,3 °C 86 % 1005,5 hPa 0,0 mm 0,0 km/h (0 Bft) S-SW 194 ° 0 min 0,000 mm 0,0 UV-I 0 W/m² 2,2 °C 4,3 °C 0,0 km/h (0 Bft)
04.04.2018 23:15 4,3 °C 86 % 1005,5 hPa 0,0 mm 0,0 km/h (0 Bft) S-SW 194 ° 0 min 0,000 mm 0,0 UV-I 0 W/m² 2,2 °C 4,3 °C 0,0 km/h (0 Bft)
04.04.2018 23:16 4,3 °C 86 % 1005,5 hPa 0,0 mm 0,0 km/h (0 Bft) S-SW 194 ° 0 min 0,000 mm 0,0 UV-I 0 W/m² 2,2 °C 4,3 °C 0,0 km/h (0 Bft)
04.04.2018 23:17 4,1 °C 85 % 1005,5 hPa 0,0 mm 0,0 km/h (0 Bft) S-SW 194 ° 0 min 0,000 mm 0,0 UV-I 0 W/m² 1,8 °C 4,1 °C 0,0 km/h (0 Bft)
04.04.2018 23:18 4,1 °C 86 % 1005,5 hPa 0,0 mm 0,0 km/h (0 Bft) S-SW 194 ° 0 min 0,000 mm 0,0 UV-I 0 W/m² 2,0 °C 4,1 °C 0,0 km/h (0 Bft)
04.04.2018 23:19 4,1 °C 86 % 1005,5 hPa 0,0 mm 0,0 km/h (0 Bft) S-SW 194 ° 0 min 0,000 mm 0,0 UV-I 0 W/m² 2,0 °C 4,1 °C 0,0 km/h (0 Bft)
04.04.2018 23:20 4,2 °C 87 % 1005,5 hPa 0,0 mm 0,0 km/h (0 Bft) S-SW 194 ° 0 min 0,000 mm 0,0 UV-I 0 W/m² 2,2 °C 4,2 °C 0,0 km/h (0 Bft)
04.04.2018 23:21 4,3 °C 87 % 1005,5 hPa 0,0 mm 0,0 km/h (0 Bft) S-SW 194 ° 0 min 0,000 mm 0,0 UV-I 0 W/m² 2,3 °C 4,3 °C 0,0 km/h (0 Bft)
04.04.2018 23:22 4,3 °C 86 % 1005,6 hPa 0,0 mm 0,0 km/h (0 Bft) S-SW 194 ° 0 min 0,000 mm 0,0 UV-I 0 W/m² 2,2 °C 4,3 °C 0,0 km/h (0 Bft)
04.04.2018 23:23 4,3 °C 86 % 1005,6 hPa 0,0 mm 0,0 km/h (0 Bft) S-SW 194 ° 0 min 0,000 mm 0,0 UV-I 0 W/m² 2,2 °C 4,3 °C 0,0 km/h (0 Bft)
04.04.2018 23:24 4,3 °C 86 % 1005,6 hPa 0,0 mm 0,0 km/h (0 Bft) S-SW 194 ° 0 min 0,000 mm 0,0 UV-I 0 W/m² 2,2 °C 4,3 °C 0,0 km/h (0 Bft)
04.04.2018 23:25 4,2 °C 85 % 1005,7 hPa 0,0 mm 0,0 km/h (0 Bft) S-SW 194 ° 0 min 0,000 mm 0,0 UV-I 0 W/m² 1,9 °C 4,2 °C 0,0 km/h (0 Bft)
04.04.2018 23:26 4,0 °C 85 % 1005,6 hPa 0,0 mm 0,0 km/h (0 Bft) S-SW 194 ° 0 min 0,000 mm 0,0 UV-I 0 W/m² 1,7 °C 4,0 °C 0,0 km/h (0 Bft)
04.04.2018 23:27 3,9 °C 85 % 1005,7 hPa 0,0 mm 0,0 km/h (0 Bft) S-SW 194 ° 0 min 0,000 mm 0,0 UV-I 0 W/m² 1,6 °C 3,9 °C 0,0 km/h (0 Bft)
04.04.2018 23:28 3,8 °C 86 % 1005,7 hPa 0,0 mm 0,0 km/h (0 Bft) S-SW 194 ° 0 min 0,000 mm 0,0 UV-I 0 W/m² 1,7 °C 3,8 °C 0,0 km/h (0 Bft)
04.04.2018 23:29 3,8 °C 86 % 1005,8 hPa 0,0 mm 0,0 km/h (0 Bft) S-SW 194 ° 0 min 0,000 mm 0,0 UV-I 0 W/m² 1,7 °C 3,8 °C 0,0 km/h (0 Bft)
04.04.2018 23:30 3,7 °C 86 % 1005,8 hPa 0,0 mm 0,0 km/h (0 Bft) S-SW 194 ° 0 min 0,000 mm 0,0 UV-I 0 W/m² 1,6 °C 3,7 °C 0,0 km/h (0 Bft)
04.04.2018 23:31 3,6 °C 86 % 1005,8 hPa 0,0 mm 0,0 km/h (0 Bft) S-SW 194 ° 0 min 0,000 mm 0,0 UV-I 0 W/m² 1,5 °C 3,6 °C 0,0 km/h (0 Bft)
04.04.2018 23:32 3,6 °C 86 % 1005,8 hPa 0,0 mm 0,0 km/h (0 Bft) S-SW 194 ° 0 min 0,000 mm 0,0 UV-I 0 W/m² 1,5 °C 3,6 °C 0,0 km/h (0 Bft)
04.04.2018 23:33 3,5 °C 87 % 1005,9 hPa 0,0 mm 0,3 km/h (0 Bft) S-SW 194 ° 0 min 0,000 mm 0,0 UV-I 0 W/m² 1,5 °C 3,5 °C 1,6 km/h (1 Bft)
04.04.2018 23:34 3,5 °C 87 % 1005,9 hPa 0,0 mm 0,0 km/h (0 Bft) S-SW 194 ° 0 min 0,000 mm 0,0 UV-I 0 W/m² 1,5 °C 3,5 °C 0,0 km/h (0 Bft)
04.04.2018 23:35 3,5 °C 87 % 1005,9 hPa 0,0 mm 0,0 km/h (0 Bft) S-SW 194 ° 0 min 0,000 mm 0,0 UV-I 0 W/m² 1,5 °C 3,5 °C 0,0 km/h (0 Bft)
04.04.2018 23:36 3,7 °C 87 % 1005,9 hPa 0,0 mm 0,0 km/h (0 Bft) S-SW 194 ° 0 min 0,000 mm 0,0 UV-I 0 W/m² 1,7 °C 3,7 °C 0,0 km/h (0 Bft)
04.04.2018 23:37 3,7 °C 88 % 1005,9 hPa 0,0 mm 0,0 km/h (0 Bft) S-SW 194 ° 0 min 0,000 mm 0,0 UV-I 0 W/m² 1,9 °C 3,7 °C 0,0 km/h (0 Bft)
04.04.2018 23:38 3,7 °C 88 % 1006,0 hPa 0,0 mm 0,0 km/h (0 Bft) S-SW 194 ° 0 min 0,000 mm 0,0 UV-I 0 W/m² 1,9 °C 3,7 °C 0,0 km/h (0 Bft)
04.04.2018 23:39 3,8 °C 87 % 1005,9 hPa 0,0 mm 0,0 km/h (0 Bft) S-SW 194 ° 0 min 0,000 mm 0,0 UV-I 0 W/m² 1,8 °C 3,8 °C 0,0 km/h (0 Bft)
04.04.2018 23:40 3,9 °C 87 % 1006,0 hPa 0,0 mm 0,0 km/h (0 Bft) S-SW 194 ° 0 min 0,000 mm 0,0 UV-I 0 W/m² 1,9 °C 3,9 °C 0,0 km/h (0 Bft)
04.04.2018 23:41 3,9 °C 87 % 1006,0 hPa 0,0 mm 1,6 km/h (1 Bft) S-SW 194 ° 0 min 0,000 mm 0,0 UV-I 0 W/m² 1,9 °C 3,9 °C 3,2 km/h (1 Bft)
04.04.2018 23:42 4,1 °C 87 % 1006,1 hPa 0,0 mm 2,3 km/h (1 Bft) S-SW 194 ° 0 min 0,000 mm 0,0 UV-I 0 W/m² 2,1 °C 4,1 °C 3,2 km/h (1 Bft)
04.04.2018 23:43 4,1 °C 87 % 1006,1 hPa 0,0 mm 0,2 km/h (0 Bft) S-SW 194 ° 0 min 0,000 mm 0,0 UV-I 0 W/m² 2,1 °C 4,1 °C 1,6 km/h (1 Bft)
04.04.2018 23:44 4,2 °C 87 % 1006,2 hPa 0,0 mm 0,2 km/h (0 Bft) S-SW 194 ° 0 min 0,000 mm 0,0 UV-I 0 W/m² 2,2 °C 4,2 °C 1,6 km/h (1 Bft)
04.04.2018 23:45 4,3 °C 87 % 1006,1 hPa 0,0 mm 0,0 km/h (0 Bft) S-SW 194 ° 0 min 0,000 mm 0,0 UV-I 0 W/m² 2,3 °C 4,3 °C 0,0 km/h (0 Bft)
04.04.2018 23:46 4,3 °C 86 % 1006,1 hPa 0,0 mm 0,0 km/h (0 Bft) S-SW 194 ° 0 min 0,000 mm 0,0 UV-I 0 W/m² 2,2 °C 4,3 °C 0,0 km/h (0 Bft)
04.04.2018 23:47 4,3 °C 86 % 1006,2 hPa 0,0 mm 0,0 km/h (0 Bft) S-SW 194 ° 0 min 0,000 mm 0,0 UV-I 0 W/m² 2,2 °C 4,3 °C 0,0 km/h (0 Bft)
04.04.2018 23:48 4,2 °C 86 % 1006,3 hPa 0,0 mm 0,0 km/h (0 Bft) S-SW 194 ° 0 min 0,000 mm 0,0 UV-I 0 W/m² 2,1 °C 4,2 °C 0,0 km/h (0 Bft)
04.04.2018 23:49 3,9 °C 84 % 1006,3 hPa 0,0 mm 0,0 km/h (0 Bft) S-SW 194 ° 0 min 0,000 mm 0,0 UV-I 0 W/m² 1,4 °C 3,9 °C 0,0 km/h (0 Bft)
04.04.2018 23:50 3,8 °C 85 % 1006,4 hPa 0,0 mm 0,0 km/h (0 Bft) S-SW 194 ° 0 min 0,000 mm 0,0 UV-I 0 W/m² 1,5 °C 3,8 °C 0,0 km/h (0 Bft)
04.04.2018 23:51 3,8 °C 86 % 1006,4 hPa 0,0 mm 0,9 km/h (0 Bft) S-SW 194 ° 0 min 0,000 mm 0,0 UV-I 0 W/m² 1,7 °C 3,8 °C 3,2 km/h (1 Bft)
04.04.2018 23:52 3,9 °C 87 % 1006,4 hPa 0,0 mm 0,0 km/h (0 Bft) S-SW 194 ° 0 min 0,000 mm 0,0 UV-I 0 W/m² 1,9 °C 3,9 °C 0,0 km/h (0 Bft)
04.04.2018 23:53 4,1 °C 87 % 1006,4 hPa 0,0 mm 0,0 km/h (0 Bft) S-SW 194 ° 0 min 0,000 mm 0,0 UV-I 0 W/m² 2,1 °C 4,1 °C 0,0 km/h (0 Bft)
04.04.2018 23:54 4,2 °C 87 % 1006,4 hPa 0,0 mm 1,3 km/h (1 Bft) S-SW 194 ° 0 min 0,000 mm 0,0 UV-I 0 W/m² 2,2 °C 4,2 °C 3,2 km/h (1 Bft)
04.04.2018 23:55 4,4 °C 87 % 1006,4 hPa 0,0 mm 1,0 km/h (0 Bft) S-SW 194 ° 0 min 0,000 mm 0,0 UV-I 0 W/m² 2,4 °C 4,4 °C 1,6 km/h (1 Bft)
04.04.2018 23:56 4,6 °C 87 % 1006,4 hPa 0,0 mm 0,0 km/h (0 Bft) S-SW 194 ° 0 min 0,000 mm 0,0 UV-I 0 W/m² 2,6 °C 4,6 °C 0,0 km/h (0 Bft)
04.04.2018 23:57 4,5 °C 86 % 1006,5 hPa 0,0 mm 1,6 km/h (1 Bft) W-NW 294 ° 0 min 0,000 mm 0,0 UV-I 0 W/m² 2,4 °C 4,5 °C 4,8 km/h (1 Bft)
04.04.2018 23:58 4,3 °C 85 % 1006,6 hPa 0,0 mm 1,5 km/h (1 Bft) W-NW 294 ° 0 min 0,000 mm 0,0 UV-I 0 W/m² 2,0 °C 4,3 °C 3,2 km/h (1 Bft)
04.04.2018 23:59 4,1 °C 84 % 1006,6 hPa 0,0 mm 0,0 km/h (0 Bft) W-NW 294 ° 0 min 0,000 mm 0,0 UV-I 0 W/m² 1,6 °C 4,1 °C 0,0 km/h (0 Bft)
_ Min-Zeit 23:35 16:10 16:17 - 23:59 - - - - - - 17:07 23:35 23:59
Minimum _ 3,4 °C 24 % 1000,4 hPa - 0,0 km/h (0 Bft) - - - - - - -1,9 °C 3,5 °C 0,0 km/h (0 Bft)
_ Max-Zeit 14:26 23:38 23:59 23:59 18:27 - - 16:49 15:01 13:31 13:31 08:57 14:29 18:10
Maximum _ 20,8 °C 88 % 1006,6 hPa 0,0 mm 37,8 km/h
W-SW (5 Bft)
- - 1 min 0,508 mm 5,5 UV-I 853 W/m² 6,0 °C 20,7 °C 59,5 km/h
W (7 Bft)
Durchschnitt _ 12,6 °C 53 % 1003,7 hPa #0,0 mm 4,9 km/h (1 Bft) W - #7:41 h #3,658 mm 3,0 UV-I 201 W/m² 2,3 °C 12,4 °C 8,1 km/h (2 Bft)